GFSSW_925_spd_000.txt.gz
Wind_Speed
18 15 17 13 12 12 11 10 10 12 13 12 10 11 15 12 8 6 6 8 4 12 2 3 2 5 2 1 2 3 1 6 6 7 6 2 1 2 2 3 3 3 3 3 3
21 18 15 14 12 11 11 10 9 10 12 9 7 7 14 11 9 11 16 10 7 5 1 2 1 3 1 2 2 4 4 7 6 5 4 4 4 2 4 4 4 4 4 3 2
19 20 17 14 12 11 11 10 8 8 8 7 5 3 8 8 3 7 14 19 14 11 5 2 2 1 2 3 4 4 8 4 3 4 5 4 4 3 3 6 7 6 6 5 3
19 20 19 16 12 11 11 9 8 6 7 7 5 3 3 7 6 1 3 2 13 17 9 4 2 3 3 5 4 3 5 5 0 3 3 3 4 6 6 7 5 5 6 4 6
22 19 20 18 13 12 12 9 7 5 6 5 5 3 4 3 6 2 3 3 8 20 13 8 3 4 4 3 1 4 3 3 4 7 6 7 12 9 10 10 10 10 5 10 8
21 21 20 21 16 14 13 10 8 6 5 4 4 5 1 4 5 8 5 4 11 14 10 8 4 5 2 4 3 2 4 5 4 5 5 9 11 5 11 7 8 8 10 10 10
19 24 21 22 18 15 13 11 9 8 7 5 3 3 1 10 2 5 4 4 2 4 5 7 6 1 1 3 2 3 4 6 5 5 6 5 16 18 13 9 9 9 9 10 10
30 21 21 22 21 18 14 11 10 8 9 6 4 2 6 5 6 13 8 1 7 3 2 6 6 3 4 3 4 3 1 2 4 7 6 6 13 5 6 14 16 14 10 10 12
27 26 19 19 25 20 16 13 8 6 5 6 3 3 7 4 4 9 7 6 5 5 3 2 3 3 2 3 3 5 4 4 6 2 4 12 8 5 8 10 11 9 9 9 10
27 29 23 19 25 23 17 12 7 7 6 4 0 2 3 3 4 4 7 10 3 4 3 2 1 2 3 4 6 5 5 4 7 2 4 10 16 12 8 8 10 9 9 9 9
28 28 25 19 19 27 23 14 4 1 7 7 5 3 1 2 4 3 6 8 4 4 5 2 3 9 13 10 8 2 4 8 6 8 7 9 14 15 9 9 10 14 9 12 10
25 28 24 21 19 32 32 7 7 5 4 13 5 7 6 3 3 2 12 5 4 5 4 2 12 8 5 5 6 8 11 13 9 9 9 11 23 18 15 17 12 12 13 11 10
25 26 21 21 21 37 31 13 17 7 1 4 7 7 3 5 3 7 9 5 3 6 9 9 3 4 10 5 6 5 10 5 11 10 14 13 28 19 25 22 19 19 17 15 15
25 27 21 21 14 34 14 23 14 8 4 5 4 6 6 5 5 12 14 6 3 10 7 9 7 7 4 5 7 14 7 12 11 4 4 5 10 8 8 11 15 19 13 13 14
29 27 23 20 7 17 19 27 15 6 2 3 4 5 7 13 3 1 10 4 7 7 6 5 4 5 12 12 7 5 6 8 7 5 5 8 7 5 5 10 14 11 10 12 15
37 30 19 17 15 25 34 30 13 5 6 5 4 6 9 6 2 4 5 1 2 5 7 6 3 5 5 4 12 1 4 5 3 5 9 11 9 11 5 6 8 11 11 11 10
30 23 15 20 5 36 45 14 5 4 1 6 6 7 9 7 5 6 11 10 6 4 7 4 15 4 4 4 4 7 4 2 4 6 7 8 10 20 9 11 8 11 10 9 8
39 16 11 17 21 51 31 4 4 6 5 3 6 7 6 5 5 6 10 8 13 4 2 6 5 13 11 14 7 11 10 4 6 3 4 6 7 6 10 16 20 18 13 6 7
15 11 8 19 39 45 13 5 8 6 7 8 9 5 7 5 2 6 8 8 9 14 7 3 5 1 3 7 10 4 8 13 5 4 4 5 8 9 10 11 14 12 13 10 8
10 8 6 7 31 30 7 6 5 5 7 4 6 5 6 7 6 7 7 4 12 14 11 2 7 5 3 5 10 6 1 3 5 5 5 7 11 10 13 9 8 14 16 8 9
1 4 10 13 23 5 4 4 4 5 7 5 5 4 3 5 6 5 4 4 6 4 16 5 6 1 3 10 11 8 5 4 2 3 4 3 6 8 10 3 11 14 13 11 13
3 1 13 43 7 3 4 5 4 5 1 3 3 4 6 7 6 5 8 6 6 9 9 9 4 6 14 4 12 13 11 12 5 5 4 3 16 4 1 5 9 16 9 6 8
3 2 20 27 3 4 4 3 3 3 4 5 4 5 4 6 3 7 5 6 9 10 10 9 5 3 3 2 4 8 12 15 13 3 8 4 8 2 4 10 8 9 3 6 8
3 2 5 5 3 8 9 4 3 1 4 3 4 4 4 6 5 3 4 4 11 9 9 12 5 7 8 3 2 6 12 16 16 8 14 17 17 16 18 16 11 6 3 6 10
1 3 3 5 4 10 5 6 5 2 1 6 4 8 5 4 6 8 7 6 5 11 8 7 6 11 19 20 9 6 10 17 21 19 11 16 19 18 13 18 13 9 5 8 11
2 3 1 6 9 10 6 6 11 7 4 5 6 7 8 5 7 2 3 6 5 8 9 4 5 5 10 15 18 14 17 15 21 23 24 20 22 14 16 16 14 8 9 10 10
6 5 2 11 8 9 8 5 6 7 6 6 10 8 9 13 13 14 9 7 4 5 8 2 3 3 6 8 12 11 24 21 14 19 18 17 25 11 16 5 6 10 7 10 11

GFSSW_925_spd_003.txt.gz
Wind_Speed
18 18 18 14 13 10 9 10 10 11 10 9 12 12 8 14 10 7 6 8 3 7 2 1 2 2 4 2 2 3 2 7 8 8 6 2 2 2 1 3 3 2 3 2 3
20 18 20 17 13 11 9 8 9 10 10 8 9 8 8 12 10 10 9 7 6 4 4 2 1 1 2 2 2 3 4 8 6 6 4 3 4 3 2 3 5 6 5 5 2
19 19 18 19 14 12 9 7 9 8 8 6 5 7 5 13 2 5 7 17 13 10 4 4 4 1 2 2 3 3 8 3 3 3 2 3 4 3 4 7 6 6 4 7 2
24 19 18 19 16 14 10 9 8 8 6 6 4 4 1 5 3 3 2 2 16 14 9 6 2 3 2 4 2 3 5 5 3 2 2 3 2 5 5 8 5 4 4 5 10
28 21 19 17 20 15 11 10 9 7 5 5 2 0 1 1 4 2 2 2 10 19 12 5 3 4 4 3 1 3 2 3 4 6 5 5 11 11 11 9 10 12 8 12 12
27 26 22 18 18 18 14 11 10 8 5 3 1 3 4 5 4 6 3 5 9 15 8 7 4 3 2 2 2 0 2 5 6 6 4 9 15 6 10 11 12 10 12 10 10
26 28 26 17 16 21 16 12 10 9 7 3 2 4 3 9 3 3 7 5 8 10 5 7 6 2 3 1 0 1 4 7 7 7 7 4 14 15 19 12 15 14 13 12 12
25 26 26 21 14 19 18 15 10 10 9 6 4 4 5 3 10 15 4 4 5 6 8 8 6 3 2 1 3 1 2 3 3 3 6 9 14 7 3 10 16 17 12 12 14
25 26 25 25 18 15 24 18 13 9 5 8 5 4 6 1 4 8 12 7 7 7 6 8 4 3 2 3 1 2 4 5 5 4 2 11 6 5 10 4 9 10 11 11 12
27 25 24 23 20 13 25 20 15 11 8 6 3 1 3 3 5 8 10 11 4 5 3 3 3 3 2 3 5 4 4 5 5 2 3 11 17 15 12 13 16 13 11 10 11
29 26 22 21 21 15 27 18 5 2 6 7 6 2 2 5 8 4 8 8 4 4 4 2 3 8 11 6 4 0 3 9 9 11 11 15 20 17 15 12 14 15 16 15 13
29 25 21 21 20 20 34 5 9 10 4 10 3 4 4 1 4 2 14 5 4 4 5 3 9 8 4 5 8 10 14 16 11 8 11 12 25 17 16 19 18 19 17 16 14
25 20 18 19 19 21 28 16 23 15 5 2 7 5 4 4 3 8 9 4 4 5 7 5 3 2 11 6 10 13 16 14 16 9 13 16 26 19 18 23 20 21 21 21 19
21 23 23 20 13 13 19 23 17 14 4 4 4 5 7 5 4 10 14 5 2 9 7 9 7 4 4 7 8 14 7 11 13 7 8 2 10 7 5 10 9 12 16 18 17
26 30 26 17 13 7 13 31 21 4 2 4 4 5 6 11 5 1 6 4 7 5 5 4 4 4 11 6 7 5 4 7 8 8 7 12 7 6 2 4 9 10 14 14 16
30 35 28 16 18 18 28 30 8 4 6 6 5 7 8 4 3 4 7 1 2 5 5 5 1 4 6 5 9 2 2 4 1 4 9 11 10 17 7 10 3 6 11 9 13
35 43 36 24 13 17 31 12 4 4 1 8 6 9 9 7 4 7 9 8 4 4 5 3 13 4 3 3 2 7 4 3 5 6 8 8 11 20 9 17 16 17 14 10 8
46 52 23 19 25 19 26 4 3 5 3 5 9 10 5 8 5 6 10 7 9 2 1 4 5 11 9 15 7 11 9 5 6 5 4 3 9 8 12 13 13 13 14 12 9
46 6 8 18 19 9 8 4 6 6 9 9 11 5 3 2 2 4 7 6 8 12 5 3 5 2 6 5 9 4 10 11 5 4 3 4 8 11 13 15 11 12 10 13 12
3 6 4 12 17 8 4 5 1 3 11 9 5 5 9 9 6 8 7 3 6 13 11 1 5 4 1 3 6 7 1 4 5 5 5 7 7 13 9 14 6 6 10 14 13
12 2 7 4 20 6 2 3 5 4 6 4 4 5 5 7 7 5 4 3 7 5 13 5 5 1 3 10 11 7 6 6 2 4 3 4 6 5 9 3 3 7 11 14 12
4 2 14 6 5 2 2 5 5 4 3 3 4 5 4 6 4 5 6 5 6 8 10 8 4 6 14 8 14 15 12 15 7 5 5 2 13 12 14 4 5 10 12 13 9
2 1 15 11 3 3 3 4 4 3 2 2 4 4 3 5 4 6 4 5 8 9 9 7 4 4 6 0 3 8 14 16 13 4 15 7 8 1 5 8 8 10 10 9 3
1 1 3 2 2 6 5 3 4 4 3 3 4 5 4 4 4 3 4 3 10 7 8 11 5 7 10 8 2 5 14 19 14 7 10 18 21 19 18 14 17 15 12 7 3
3 1 1 3 2 4 4 4 5 3 1 3 3 3 5 4 6 5 5 3 5 10 7 9 8 11 19 22 15 10 13 18 19 22 12 10 15 12 9 9 10 11 9 5 6
4 2 1 3 8 7 3 3 5 3 4 4 2 8 7 5 6 4 4 5 5 4 8 5 5 4 15 17 19 18 16 18 20 21 21 19 25 15 13 8 7 13 12 6 6
6 6 1 7 6 4 3 6 7 6 2 2 4 4 8 10 8 9 7 4 3 5 10 4 3 3 10 3 8 7 16 21 18 18 13 17 23 8 10 9 12 16 9 7 10

GFSSW_925_spd_006.txt.gz
Wind_Speed
19 17 16 16 17 13 10 10 11 11 10 11 12 11 8 10 14 10 12 8 9 10 3 4 3 4 5 6 4 3 8 13 19 16 12 5 10 7 2 9 6 5 5 4 2
24 21 17 17 17 16 12 10 10 10 9 9 9 7 5 13 13 13 8 10 10 5 11 6 6 6 5 6 6 11 11 17 11 12 10 9 9 8 6 11 12 9 7 1 1
24 26 19 19 16 17 15 12 10 9 8 7 7 5 7 13 4 6 11 15 11 11 7 5 5 6 8 5 8 9 16 14 7 11 10 12 12 11 13 15 14 13 8 3 2
23 25 24 20 18 17 16 12 11 10 9 7 6 5 4 15 5 4 0 6 18 13 9 8 6 7 6 9 7 9 13 13 11 10 10 12 10 13 14 18 11 10 8 8 10
24 23 25 23 20 17 18 14 12 10 8 5 5 4 4 5 4 3 1 4 10 17 14 9 9 6 8 5 7 12 11 9 9 8 12 14 20 20 21 17 15 14 14 15 14
26 24 25 25 19 18 18 16 13 11 8 6 4 4 4 9 3 4 3 2 7 17 15 9 5 4 3 4 9 2 6 10 10 14 15 17 21 17 21 18 19 22 24 20 18
25 24 25 24 24 18 16 20 15 12 10 6 4 3 3 5 3 4 8 5 5 12 8 8 5 6 5 4 3 5 10 12 15 13 12 10 19 23 25 23 25 22 20 20 21
24 24 24 24 25 21 14 24 17 15 12 8 5 3 4 2 7 5 7 8 8 6 7 9 7 3 2 1 3 4 5 5 2 3 7 11 18 6 1 6 16 19 21 22 23
24 24 23 24 23 23 14 23 20 17 12 10 5 2 3 3 4 8 11 11 9 8 7 9 5 2 4 6 5 8 7 9 9 6 5 11 12 3 9 10 13 15 16 15 17
25 23 26 25 21 22 17 15 20 17 13 9 5 3 4 3 5 8 10 13 6 11 6 4 3 5 7 8 5 5 7 7 10 2 7 15 21 19 18 20 20 20 19 16 15
27 25 27 26 22 19 21 12 7 5 9 8 10 2 6 8 8 6 13 12 8 10 10 7 7 11 13 14 9 4 7 11 9 7 15 17 24 21 21 23 22 22 22 22 22
23 25 21 17 18 20 22 4 13 6 8 9 8 5 4 7 5 9 14 9 10 11 9 5 11 12 7 10 12 13 15 16 14 12 12 19 31 23 23 28 26 24 25 24 23
21 20 17 21 21 20 17 12 20 3 3 11 10 6 5 8 5 13 16 8 11 11 15 9 3 0 13 11 12 15 15 13 15 15 17 21 26 15 9 14 19 25 27 27 26
17 15 19 26 12 12 13 20 9 7 2 9 10 7 9 8 4 13 17 5 4 11 9 9 9 7 7 11 12 14 8 12 13 10 6 2 11 14 13 14 13 13 14 18 21
17 19 23 22 21 10 9 20 11 8 7 10 6 9 13 12 12 7 12 3 6 8 6 3 6 10 12 11 13 8 5 8 9 11 11 16 7 13 4 12 9 11 15 16 16
22 24 23 22 16 18 15 26 8 4 6 7 6 11 14 10 6 7 10 1 2 6 7 10 2 5 7 8 13 2 6 9 10 9 7 21 14 17 19 15 14 11 13 14 13
29 33 33 28 16 17 14 9 4 5 9 9 9 14 16 12 9 10 12 10 6 5 8 5 15 6 7 9 8 10 5 3 4 6 9 9 10 20 17 10 14 17 19 15 10
41 47 32 37 28 24 11 4 5 6 6 6 15 16 9 17 6 11 12 10 10 3 2 4 4 15 11 16 4 16 14 6 7 11 14 5 11 16 20 18 19 19 13 16 14
39 10 7 13 19 20 5 4 4 8 12 15 14 8 6 13 6 7 11 8 11 15 7 5 5 2 6 7 11 5 9 15 15 15 9 12 18 19 22 17 16 19 15 10 13
21 7 4 15 18 8 4 0 2 4 17 17 7 8 9 14 8 10 12 6 8 17 14 2 4 6 3 7 11 14 1 5 6 7 17 11 17 14 7 11 13 12 7 12 13
11 2 4 17 14 3 3 2 3 11 12 4 7 9 9 13 9 12 6 3 9 12 16 8 4 4 5 12 13 10 8 6 6 7 7 14 13 3 2 4 2 7 9 12 14
3 1 11 12 3 2 2 3 5 6 0 4 9 10 14 14 11 10 9 5 8 11 11 12 5 7 15 13 13 16 16 19 7 8 6 9 20 12 14 12 8 9 11 14 13
1 0 3 4 2 3 6 3 3 4 2 3 4 3 5 9 6 9 5 3 10 12 12 11 4 4 4 2 6 9 18 20 12 8 17 10 17 1 7 10 11 15 16 14 13
2 2 3 2 1 8 10 4 4 5 5 7 7 5 6 5 1 7 7 3 10 13 6 10 6 7 10 14 6 7 13 17 16 10 17 20 29 22 20 22 21 15 13 12 16
2 2 1 3 5 8 4 4 9 4 3 4 3 3 5 4 5 4 6 2 3 8 8 7 6 11 20 22 21 23 23 17 20 26 16 26 21 19 16 13 13 14 15 13 18
4 3 3 4 7 11 3 4 5 5 4 4 3 7 6 4 5 5 5 6 5 10 11 6 5 3 13 20 22 22 21 17 20 25 26 26 28 24 20 15 11 11 11 13 16
7 5 3 3 4 6 4 5 5 6 3 5 5 5 7 7 6 9 7 5 3 5 12 5 1 3 8 13 19 8 7 12 8 19 22 20 26 14 10 11 12 10 15 17 12

GFSSW_925_spd_009.txt.gz
Wind_Speed
25 25 25 18 18 17 17 15 14 12 12 11 11 11 14 13 13 15 16 11 13 8 5 6 9 11 10 9 9 10 14 15 21 21 15 14 11 12 14 14 10 10 14 9 4
24 24 25 24 20 18 19 17 14 12 11 10 10 9 10 9 12 15 14 11 11 13 11 11 11 11 11 12 8 12 13 20 17 15 16 13 11 11 7 14 15 12 11 2 3
23 24 24 25 22 22 17 19 15 13 12 9 9 8 5 10 10 10 18 12 12 13 13 14 9 9 14 9 13 13 18 15 16 9 10 15 15 14 15 16 13 15 14 11 5
21 22 23 23 23 21 19 19 15 13 11 10 9 8 5 13 5 5 6 10 16 12 12 12 12 13 11 11 12 17 14 19 17 9 10 15 15 16 18 18 18 14 14 10 8
22 22 22 22 23 23 20 16 16 13 12 10 8 6 4 4 5 4 5 8 11 17 15 12 12 13 11 9 11 13 16 15 12 14 16 17 19 19 18 18 15 16 13 14 15
23 22 21 21 23 23 21 17 18 14 12 10 6 6 9 11 8 6 5 5 9 20 16 12 4 8 7 9 9 2 11 15 13 15 15 18 20 19 17 19 22 21 21 20 20
24 24 22 22 23 23 23 17 16 14 12 11 7 7 9 9 3 5 7 4 7 16 10 8 3 4 5 7 9 9 14 14 17 17 14 10 19 23 25 23 23 22 20 21 22
24 24 23 23 21 24 22 20 13 19 15 12 8 6 6 3 5 5 9 8 8 10 7 8 7 7 6 2 4 6 10 10 6 5 13 13 16 12 6 11 15 23 20 21 22
27 24 23 24 23 24 22 22 18 21 18 13 7 8 6 4 8 13 11 10 11 11 9 8 6 4 4 9 8 10 9 12 9 6 7 13 11 5 4 13 16 13 14 16 17
27 26 23 23 25 23 20 22 15 19 18 10 2 4 7 7 10 11 12 12 11 14 11 5 3 8 10 10 6 7 13 10 9 3 8 15 20 19 17 18 17 17 18 18 17
23 20 23 22 20 15 14 10 6 7 12 8 10 2 9 11 12 11 17 16 10 11 7 7 5 12 16 15 16 8 10 12 12 8 14 18 21 20 19 20 22 21 20 20 21
21 22 21 15 17 16 9 3 5 3 6 12 4 5 11 14 7 11 19 11 13 12 12 5 14 15 11 9 11 12 14 15 14 13 12 17 27 23 24 26 23 22 23 23 23
21 17 16 18 23 12 13 14 11 8 3 13 10 12 9 9 7 17 18 11 14 14 16 11 2 2 12 11 11 14 14 14 14 15 18 20 26 20 12 14 17 20 22 24 24
20 17 13 17 10 17 11 10 10 6 3 8 9 8 8 7 5 17 19 9 6 14 13 12 10 5 8 12 11 12 10 11 11 9 7 4 10 10 11 10 10 13 15 16 18
21 17 15 9 14 8 10 12 5 3 5 15 11 9 13 10 16 13 19 4 10 7 8 4 5 12 12 13 10 6 4 4 7 10 14 16 8 9 11 19 19 17 12 12 13
21 23 19 18 12 11 10 7 16 3 5 6 7 11 15 12 7 15 13 6 1 7 11 11 3 7 9 6 10 3 2 5 6 4 8 14 15 19 15 13 15 13 15 12 12
28 32 30 33 23 10 7 3 5 5 8 8 9 13 17 12 11 13 16 11 8 6 10 10 16 6 9 7 6 9 3 2 4 6 8 6 8 18 20 20 22 15 16 16 19
36 33 16 21 35 19 6 4 3 7 8 8 15 17 9 15 11 15 15 12 14 10 5 7 6 18 13 13 5 13 11 5 6 9 13 17 10 14 14 18 24 16 17 13 14
24 19 10 6 21 20 3 6 4 12 12 15 17 11 7 16 8 12 14 12 14 14 7 5 3 2 7 6 11 6 8 16 13 17 12 12 20 23 24 25 23 18 17 16 14
16 13 10 16 20 14 2 2 4 6 18 18 7 7 8 18 9 12 14 14 11 18 12 0 2 6 8 6 11 12 1 2 5 6 12 13 19 15 13 19 10 11 10 12 7
3 3 9 17 13 0 2 1 1 13 11 3 9 10 10 15 12 14 15 5 17 13 15 7 3 5 4 10 10 9 12 6 7 8 7 12 14 11 10 7 5 1 6 7 9
2 2 8 8 1 2 0 1 8 10 3 3 4 4 15 18 11 12 9 3 7 10 11 9 2 5 12 12 12 14 15 17 8 8 8 13 21 13 16 16 13 7 11 12 12
2 1 3 3 2 2 1 2 4 9 6 5 4 2 6 12 6 7 6 6 9 12 11 10 4 3 3 2 8 11 18 17 18 15 21 14 14 3 3 6 6 14 15 14 12
3 3 2 2 4 6 3 3 5 2 5 4 8 8 10 10 3 9 6 4 10 11 9 7 5 8 8 8 11 8 15 17 15 10 19 22 29 24 22 17 16 15 14 11 14
2 2 1 3 2 4 5 8 6 3 2 2 4 3 5 4 5 4 6 5 5 8 6 5 5 9 18 22 20 20 23 23 19 18 16 28 23 21 19 20 19 17 11 14 10
3 3 4 1 7 6 1 7 7 5 2 2 2 6 4 4 1 5 6 7 6 9 11 4 4 2 14 20 21 18 23 18 18 18 15 24 29 23 21 7 7 12 13 9 12
6 3 3 3 6 5 2 5 4 5 3 4 2 5 4 3 3 3 2 3 1 3 10 3 1 2 6 11 20 9 5 6 7 10 11 12 19 20 17 9 11 14 13 15 14

GFSSW_925_spd_012.txt.gz
Wind_Speed
20 20 20 20 22 19 18 16 17 15 13 12 12 11 12 15 17 15 18 13 22 16 5 6 9 12 13 8 13 7 7 11 15 15 11 10 7 1 4 6 8 4 5 9 9
21 20 20 19 19 22 19 18 17 15 13 11 12 11 12 12 10 16 17 11 13 10 10 12 9 12 9 9 5 6 8 11 11 11 10 12 7 6 3 8 6 9 7 17 10
21 21 21 20 19 20 20 19 14 16 13 11 12 10 9 5 8 13 18 17 13 11 15 14 12 10 9 9 11 7 13 9 13 15 6 7 12 5 7 7 6 8 7 8 12
21 22 22 21 19 19 19 17 16 19 13 10 12 9 8 6 5 5 11 16 13 11 14 17 10 7 6 11 10 16 12 15 15 16 6 5 9 10 11 8 8 11 9 5 5
22 22 22 23 21 21 21 20 17 19 14 11 10 8 4 5 6 3 7 13 14 15 17 11 11 10 11 8 11 11 15 12 9 9 7 9 9 11 13 12 10 10 10 9 5
24 23 23 23 23 23 21 21 19 17 14 12 9 6 5 11 8 8 5 8 11 18 14 12 1 6 5 7 8 4 6 10 12 11 7 12 11 11 8 13 13 15 13 10 9
25 26 25 24 23 22 22 21 20 15 12 13 10 8 9 11 4 7 9 6 9 19 9 12 3 2 7 4 9 5 8 11 13 12 9 5 13 17 18 16 16 13 13 15 13
26 27 28 26 23 25 22 23 21 22 11 16 12 9 6 8 7 6 10 8 5 12 13 7 4 2 1 4 1 3 9 7 9 18 11 10 12 11 11 17 19 17 16 15 13
25 25 26 25 24 22 22 23 21 23 11 18 8 8 6 7 11 10 11 11 8 6 13 9 5 4 5 2 3 7 6 10 7 7 4 9 6 12 12 7 8 8 9 12 14
24 24 24 21 24 22 21 18 18 16 12 13 7 7 8 8 10 17 11 11 11 11 7 6 5 5 5 6 5 5 8 7 7 4 4 8 12 12 12 13 9 9 9 8 8
23 24 24 22 18 14 18 6 3 4 13 5 12 2 11 14 14 15 15 15 9 11 5 5 4 8 11 12 12 10 7 11 10 9 8 9 14 13 13 13 15 11 11 11 13
22 23 21 19 18 17 16 3 4 5 4 15 5 15 16 15 9 12 18 9 8 11 7 3 8 9 7 4 3 7 7 10 11 10 6 10 17 16 21 19 16 15 13 14 12
22 22 19 17 22 14 8 14 10 10 4 9 7 11 12 8 8 15 16 10 12 12 12 5 2 10 11 5 4 7 7 9 11 10 11 12 14 10 6 16 17 19 19 15 14
22 20 16 15 12 15 7 12 10 13 2 9 5 8 7 7 6 16 17 7 6 14 11 9 5 3 4 7 5 6 5 6 7 5 4 7 6 7 9 7 6 8 9 10 10
21 19 16 11 9 7 7 7 13 6 6 12 8 14 10 5 14 11 19 3 11 8 5 1 3 5 5 4 6 3 5 5 5 6 7 4 4 7 9 9 6 6 8 9 9
24 24 25 14 14 8 11 10 12 4 4 4 6 13 14 9 3 12 10 1 3 4 9 4 5 1 3 3 2 6 2 2 4 1 4 10 10 13 6 10 6 2 8 9 6
31 34 28 16 8 9 4 1 4 5 6 7 6 13 16 11 8 15 10 8 5 5 8 4 9 4 2 1 3 5 2 1 2 2 7 1 8 16 12 14 12 4 8 9 8
37 31 16 11 19 18 7 1 4 5 1 5 9 16 9 14 7 11 11 8 10 8 6 5 3 14 9 8 6 9 6 3 5 3 4 5 7 5 1 6 6 6 8 8 9
34 15 14 3 25 23 3 3 4 4 9 10 15 5 5 12 7 9 11 7 11 10 4 5 1 11 12 8 7 6 6 3 5 6 5 5 5 11 14 17 15 7 8 8 8
13 2 14 21 26 13 1 2 1 7 16 15 5 7 7 15 7 11 12 12 12 15 8 3 2 2 6 2 6 6 3 2 1 3 6 5 7 7 9 6 9 9 2 5 3
2 2 9 19 8 2 2 3 4 7 14 3 8 9 9 13 7 10 10 3 15 12 13 5 0 4 5 8 9 5 7 2 3 3 3 6 4 5 7 5 4 6 3 5 4
4 2 7 5 1 2 2 3 3 2 4 3 2 11 11 14 9 8 10 3 12 11 11 7 2 3 10 8 13 9 8 13 3 6 4 5 14 19 16 5 7 9 7 2 6
2 2 3 4 1 3 3 4 2 3 4 2 3 4 15 11 6 9 8 5 4 6 10 8 3 2 2 3 7 6 9 10 14 9 16 9 12 9 15 11 7 12 10 7 7
1 2 2 1 2 1 2 1 4 5 5 7 7 4 6 9 5 7 6 2 5 5 6 9 3 5 3 2 2 4 6 9 9 5 11 21 30 24 20 18 4 6 15 15 4
1 2 3 2 2 7 3 3 6 4 4 4 2 2 5 6 4 4 7 7 5 4 4 2 3 4 7 13 12 14 17 16 16 18 13 25 25 28 22 21 19 8 7 8 6
3 3 5 2 11 11 5 1 1 5 5 2 2 5 3 4 6 8 6 6 6 8 5 3 3 3 5 15 16 15 16 18 18 18 18 21 25 19 17 14 9 6 7 7 7
7 4 3 1 4 2 3 3 3 2 4 7 3 4 6 8 6 5 5 2 3 6 9 5 2 2 4 10 12 6 5 5 9 11 11 11 18 17 14 9 2 3 5 8 11

GFSSW_925_spd_015.txt.gz
Wind_Speed
20 19 19 20 20 20 19 17 16 16 15 11 11 11 11 11 13 15 15 12 25 14 7 5 8 11 10 3 2 1 2 5 8 8 7 10 7 4 2 4 3 3 3 9 17
21 21 21 20 20 20 19 20 20 20 16 13 12 10 10 10 14 16 18 11 13 17 20 11 6 10 3 5 3 5 5 7 5 8 7 5 3 4 1 5 2 2 7 9 18
21 21 22 22 21 20 19 20 22 20 14 15 11 9 8 7 4 7 17 20 17 12 12 16 11 5 6 3 5 4 5 3 9 10 4 4 5 5 3 2 5 5 3 7 9
21 22 21 21 23 21 21 22 22 23 18 17 12 10 5 2 5 1 10 20 17 14 12 8 5 4 6 7 6 5 5 13 11 11 5 4 5 5 2 5 7 6 3 6 2
22 21 22 20 21 23 23 21 21 22 21 13 12 9 3 4 6 3 11 19 17 14 14 7 5 3 5 6 5 6 6 9 9 10 5 5 4 5 6 9 9 10 8 6 5
21 21 23 23 23 22 22 22 22 23 21 12 11 8 4 8 7 7 9 13 14 17 13 12 5 4 4 5 6 4 5 3 5 7 6 7 5 4 2 6 9 8 13 9 6
19 24 24 23 23 21 22 22 21 23 22 21 14 10 5 11 5 14 11 12 10 15 6 13 3 2 1 3 4 1 2 6 6 6 6 6 8 7 10 9 10 12 10 11 9
22 21 23 23 22 22 20 21 21 22 22 17 13 10 5 11 8 12 13 8 5 8 21 9 7 2 1 2 4 3 3 2 7 11 8 9 9 9 11 8 13 18 16 13 15
22 20 20 22 21 21 22 21 22 20 18 17 11 7 5 8 16 16 13 6 7 9 11 8 4 2 1 3 2 1 3 6 7 7 6 10 4 13 8 11 9 14 15 14 13
21 20 19 20 19 19 17 21 20 12 14 9 3 3 5 6 12 17 14 12 6 12 7 2 2 2 3 3 7 6 4 4 5 3 1 4 8 8 9 7 9 9 9 9 9
20 19 18 19 18 16 16 11 1 4 9 2 9 4 5 12 18 12 14 14 6 5 4 3 3 6 7 6 6 3 3 4 4 6 4 6 8 10 12 9 14 14 10 11 11
21 19 20 18 17 18 11 2 3 6 3 12 13 10 16 14 8 10 12 6 7 7 6 4 4 5 6 9 9 6 6 5 7 4 6 11 18 16 17 18 17 19 14 11 8
21 20 19 17 17 5 10 8 12 7 3 6 2 13 6 5 5 14 9 5 8 6 7 5 3 10 7 4 3 2 3 4 5 5 4 7 10 8 7 12 16 17 18 12 11
22 20 17 14 10 10 3 16 1 5 3 7 7 8 5 2 4 11 10 9 4 10 9 3 3 5 3 5 3 2 3 5 5 4 3 6 6 6 7 7 6 10 8 12 15
24 22 21 15 7 3 1 9 13 6 4 10 5 15 6 0 14 9 10 3 9 8 5 6 4 6 2 2 3 3 5 6 4 3 4 3 3 7 5 7 8 5 7 6 10
27 28 29 26 14 10 3 0 4 2 4 5 6 10 7 9 3 6 4 3 1 2 7 4 3 3 5 2 3 4 4 5 4 3 2 9 7 4 3 5 2 4 3 5 5
34 36 31 10 6 13 8 3 4 3 3 7 7 14 11 5 6 10 8 3 4 4 2 4 2 2 3 3 2 5 5 3 3 2 6 2 4 9 9 12 8 11 9 7 6
41 23 13 4 14 21 9 2 3 2 5 6 11 16 6 10 5 7 7 3 3 3 4 4 4 8 5 6 6 4 5 4 6 3 4 3 7 6 10 11 6 7 8 7 9
14 19 11 4 20 11 2 2 4 5 4 11 13 5 5 4 7 5 5 5 5 4 5 4 4 5 5 3 6 3 4 4 1 2 3 5 7 8 9 6 5 7 6 9 8
7 6 13 21 20 6 1 3 2 4 11 9 4 3 5 8 5 6 9 9 5 9 3 1 3 3 2 1 3 5 3 3 2 2 5 6 5 9 6 5 7 6 3 3 4
5 3 6 13 2 2 3 5 4 3 4 2 4 5 7 6 5 6 13 4 13 12 7 2 3 2 6 6 7 3 1 3 2 4 4 4 5 6 7 3 6 6 7 7 6
3 3 5 4 2 1 2 4 7 3 7 6 4 6 7 6 5 5 8 2 12 11 8 5 4 4 9 5 8 4 6 5 4 4 4 2 9 13 14 4 6 10 9 4 6
3 2 2 3 2 3 5 3 2 5 5 4 3 4 13 6 6 3 4 3 9 8 9 7 2 0 2 4 3 5 6 6 4 2 12 4 7 4 10 20 21 18 8 6 6
2 2 3 1 3 1 3 5 6 6 4 5 5 14 6 3 2 7 3 3 3 4 9 8 4 5 5 4 4 3 4 6 9 5 9 18 25 26 22 21 20 18 16 11 7
2 1 2 3 2 5 2 4 4 5 5 6 6 6 6 3 4 5 5 4 4 3 3 4 2 1 6 8 5 7 10 11 12 17 11 25 21 27 23 21 18 15 3 3 1
2 3 5 4 2 4 1 2 3 4 7 5 5 9 11 4 1 5 7 4 4 3 3 2 1 0 5 10 8 8 11 13 15 17 20 24 27 19 13 20 16 3 4 5 5
7 4 2 4 3 2 2 3 3 1 4 4 2 7 8 4 4 3 5 3 7 7 6 5 3 1 4 5 8 5 7 10 6 6 8 10 18 18 16 9 5 7 7 7 8

GFSSW_925_spd_018.txt.gz
Wind_Speed
19 18 17 17 17 19 19 18 20 19 18 16 15 12 11 10 10 12 15 13 23 13 9 3 5 11 6 2 3 4 3 5 6 8 5 1 3 5 4 3 0 1 7 7 20
18 19 19 18 18 17 17 19 19 20 21 22 16 12 10 8 12 18 20 16 18 22 12 8 3 6 3 4 3 4 4 7 5 4 2 5 1 4 6 5 2 3 3 16 18
20 18 19 18 15 18 18 17 19 20 21 23 15 13 9 7 7 9 18 25 19 17 20 16 5 3 4 2 4 4 5 8 4 5 2 3 8 2 2 4 2 2 4 4 4
24 21 19 18 15 15 18 19 19 19 21 23 27 13 9 6 7 2 7 23 21 17 16 8 4 2 5 6 5 3 6 6 3 5 3 2 3 2 5 6 4 1 3 2 5
24 22 18 18 18 18 18 19 18 20 20 21 24 12 6 5 7 3 7 22 20 20 18 6 5 5 5 6 4 3 3 4 7 8 5 5 6 8 7 8 10 4 6 6 7
24 18 18 21 19 19 17 17 19 20 21 22 19 11 4 12 8 7 8 22 23 20 15 9 7 7 4 3 6 3 8 4 5 4 4 6 6 5 4 7 9 7 9 8 9
21 19 19 20 18 19 19 17 18 18 21 21 19 9 5 12 2 11 15 20 19 22 6 14 12 5 5 2 3 2 2 3 4 4 4 3 14 7 10 9 10 11 10 13 10
21 19 18 18 18 17 19 18 19 18 19 20 19 8 6 13 10 13 13 13 13 16 18 14 8 4 4 1 3 3 4 1 4 4 6 8 17 3 9 7 11 13 10 11 18
20 18 17 17 18 17 17 17 16 16 18 14 12 7 4 4 11 16 16 8 11 9 14 8 5 3 1 5 2 4 2 4 7 9 6 10 3 14 14 8 9 10 10 11 13
20 19 18 17 18 17 16 17 21 14 8 9 9 3 5 5 10 17 12 10 4 11 5 3 3 3 2 3 6 5 2 3 6 4 1 6 10 10 8 7 9 9 10 10 10
22 19 19 19 19 18 18 9 3 0 5 5 5 4 5 6 19 11 10 10 6 2 5 2 2 7 9 3 4 5 2 4 5 5 4 7 6 10 11 7 11 12 12 11 13
23 22 21 18 17 16 7 1 3 3 3 9 10 8 6 11 10 8 11 5 4 5 5 4 4 4 4 4 2 2 6 6 6 3 3 7 15 14 14 13 15 18 17 17 12
20 19 17 16 16 5 7 5 4 2 2 4 4 7 6 5 5 11 7 4 7 7 5 5 4 9 5 3 5 4 4 3 5 6 0 7 10 6 6 7 10 16 19 13 14
19 19 17 16 8 5 2 6 8 3 3 4 6 4 4 6 4 4 6 5 3 8 6 2 3 9 6 4 5 2 1 2 2 3 4 5 6 6 8 10 7 7 6 9 10
23 23 22 17 4 2 3 5 4 2 4 5 7 10 4 0 13 6 4 3 6 6 5 4 6 7 4 3 4 3 3 3 2 3 4 3 3 8 5 8 8 7 6 4 8
30 31 26 15 8 8 7 4 1 4 3 4 6 10 6 5 3 7 3 3 2 5 7 2 0 3 5 3 4 6 4 6 4 3 2 5 5 5 4 5 2 4 7 7 7
31 19 7 4 3 15 9 3 4 2 3 6 9 14 11 4 5 9 6 3 4 5 4 2 2 1 4 6 4 5 5 3 4 2 6 2 3 7 8 9 5 9 10 10 8
17 18 11 8 10 17 5 1 3 2 5 11 10 13 6 6 9 8 8 3 2 5 4 4 2 6 3 4 5 4 6 4 5 3 4 1 6 6 7 9 7 6 8 6 8
23 23 15 14 17 12 2 3 1 3 4 10 12 8 5 4 6 5 2 5 3 3 5 4 2 2 3 3 6 3 2 3 2 2 3 4 7 9 6 1 3 6 7 7 7
9 12 14 5 4 3 2 4 3 3 11 8 4 1 5 4 5 4 7 4 3 7 2 4 4 2 2 3 2 4 5 3 3 1 4 4 5 8 6 2 6 7 7 7 7
5 4 1 4 7 2 2 3 3 5 3 2 4 4 4 5 5 4 11 3 8 5 6 1 4 1 4 4 6 3 1 3 3 4 3 4 6 6 5 2 5 6 7 8 9
3 3 3 6 2 1 2 3 5 2 3 3 3 6 5 4 4 4 8 4 9 6 7 2 4 3 7 2 5 4 6 6 4 4 3 3 7 6 4 3 4 13 16 14 15
2 1 1 1 3 3 4 1 3 2 4 3 3 4 5 6 5 3 4 4 10 6 8 4 2 2 3 3 2 4 5 5 1 2 6 1 6 3 7 18 20 15 15 13 12
2 3 3 2 0 2 4 3 4 4 3 4 4 12 4 3 3 4 3 4 4 6 9 7 3 5 5 5 3 3 5 7 7 3 4 12 20 26 23 20 19 19 15 12 12
3 3 2 4 4 3 2 4 4 6 6 6 4 3 4 4 4 4 3 3 5 4 3 4 4 1 4 7 5 6 7 8 9 15 8 20 17 25 23 22 17 16 9 9 8
2 3 5 4 3 4 3 2 5 4 6 5 6 3 4 4 3 6 6 3 4 0 3 1 2 1 5 6 7 6 10 12 15 15 18 22 25 21 13 15 9 10 11 12 13
7 4 1 5 5 3 2 2 3 2 3 4 2 5 9 3 3 3 4 6 7 7 3 5 4 1 5 4 6 5 8 11 5 6 7 7 10 10 14 11 6 10 11 14 12

GFSSW_925_spd_021.txt.gz
Wind_Speed
19 17 16 17 16 15 14 17 17 17 17 21 22 12 12 11 12 14 17 14 23 5 9 13 13 11 6 2 4 4 3 4 4 6 5 1 2 2 1 4 3 2 5 5 23
24 24 20 18 17 14 12 14 16 18 18 18 19 19 12 10 12 18 20 19 17 18 8 8 6 9 4 5 3 4 4 8 5 5 2 3 3 4 6 5 3 4 3 6 27
25 25 25 22 19 17 12 12 15 16 18 18 19 20 11 9 5 10 25 31 23 21 18 6 4 6 4 4 5 5 5 4 3 3 2 2 6 1 3 5 3 2 4 3 5
24 22 21 19 18 15 16 13 13 17 18 17 19 19 9 11 8 2 6 27 26 24 19 10 4 5 5 6 5 3 5 4 4 5 2 2 3 3 5 8 2 4 5 5 3
23 21 19 19 15 16 15 13 14 16 19 19 18 18 6 4 7 6 5 22 27 26 21 7 5 5 6 6 3 4 2 3 5 7 3 3 6 7 6 10 7 4 6 8 7
24 21 19 18 18 16 16 14 15 18 18 18 17 18 1 9 8 12 8 21 22 24 15 11 7 5 4 3 8 5 7 7 5 5 3 5 6 5 3 9 11 4 7 8 8
22 20 18 17 17 16 17 16 15 17 18 16 15 13 5 12 3 4 7 25 24 21 7 15 6 4 4 4 5 3 3 1 5 3 4 2 11 7 8 10 10 12 9 8 10
20 20 18 17 16 17 18 17 17 18 16 14 12 10 5 15 15 6 6 16 20 19 15 20 12 3 3 3 4 5 3 3 3 5 6 6 17 6 8 7 10 11 11 10 9
19 20 19 18 17 18 18 17 17 16 14 13 8 6 4 4 7 16 8 8 12 11 13 15 7 4 2 5 3 3 3 3 6 5 4 8 4 5 7 9 12 13 9 10 9
20 20 18 18 18 18 18 18 20 15 7 5 8 2 3 4 7 8 11 7 4 9 7 5 3 4 3 3 7 5 4 2 4 1 3 6 8 14 11 5 8 10 11 10 11
21 19 18 16 15 15 19 7 3 2 3 3 5 4 1 3 12 7 9 5 4 2 5 3 3 10 11 5 2 6 4 1 3 5 5 6 5 13 9 7 9 10 13 15 16
19 18 17 15 13 14 6 2 3 1 3 9 6 6 12 7 6 5 10 5 5 4 7 3 4 4 5 3 2 2 2 4 5 1 2 6 12 15 15 12 14 16 17 17 10
23 18 14 14 12 2 7 5 8 4 1 3 3 3 2 6 3 5 8 3 10 8 2 4 3 7 5 4 4 2 4 3 4 5 2 7 8 6 5 6 6 13 13 14 11
25 21 17 13 5 3 5 6 5 3 3 2 2 5 2 7 4 4 3 3 3 9 6 3 2 9 3 3 4 3 3 3 2 3 3 4 6 6 8 12 5 8 7 9 9
27 22 21 14 8 5 4 0 4 2 5 8 4 1 3 4 10 1 3 4 5 6 5 3 4 8 5 3 4 3 3 4 3 3 3 2 1 8 4 7 7 8 5 5 7
20 13 9 5 5 8 7 2 2 5 4 6 5 8 6 3 3 3 3 5 5 6 5 2 1 3 3 4 1 7 4 6 4 2 2 3 3 6 3 3 6 5 9 8 9
15 11 12 6 5 10 7 3 4 3 1 6 8 11 8 7 5 4 2 4 4 4 3 4 4 3 4 6 5 5 5 2 4 3 5 2 3 10 8 4 5 9 11 10 9
17 18 15 14 16 13 3 1 5 2 4 10 13 12 5 3 7 4 3 3 3 4 3 4 2 3 1 3 4 2 5 4 4 2 4 0 5 6 4 4 5 3 4 6 9
17 17 14 12 10 2 2 4 2 2 5 10 13 7 3 4 5 5 1 4 3 3 5 4 1 2 2 2 4 3 2 1 5 2 3 3 7 9 5 5 8 8 7 8 9
6 6 5 4 3 5 3 4 2 5 8 4 5 2 4 3 4 4 6 3 3 3 2 5 3 1 2 3 4 3 7 3 3 1 3 4 5 5 3 1 5 5 8 9 8
2 3 1 5 5 3 3 5 4 6 7 5 3 4 4 4 3 2 6 1 6 5 4 3 3 0 4 4 6 3 0 4 4 3 3 3 6 6 4 1 5 8 10 9 9
4 3 10 13 3 2 2 1 3 3 3 2 4 5 4 4 3 2 6 5 6 6 6 3 4 3 5 1 4 3 5 4 4 3 1 3 7 4 5 3 2 13 11 10 9
2 2 5 6 4 3 1 1 2 2 2 3 2 3 2 4 4 3 5 2 8 6 8 4 1 2 2 2 2 3 4 4 5 3 5 2 6 3 4 11 16 14 13 12 11
3 3 4 3 1 2 5 4 5 3 3 3 3 5 4 3 2 6 3 4 8 6 7 6 2 4 5 5 4 2 4 6 6 3 4 9 8 19 17 15 18 14 8 9 9
3 1 1 3 4 5 3 4 4 6 5 5 4 4 5 3 3 3 2 2 4 3 3 4 3 2 4 6 3 5 5 6 7 11 6 3 9 18 17 16 13 4 9 12 13
2 1 2 2 4 4 4 4 5 4 5 5 4 3 3 4 4 7 6 3 3 3 3 1 2 2 3 5 5 5 8 10 11 12 14 19 22 23 17 8 8 6 9 11 12
6 4 1 2 4 3 2 3 4 2 3 4 2 4 6 3 1 3 1 5 5 7 3 4 4 2 4 5 6 6 10 13 5 6 9 7 12 7 9 8 4 7 8 9 11

GFSSW_925_spd_024.txt.gz
Wind_Speed
23 24 23 24 22 19 17 15 15 17 16 18 19 18 20 15 13 13 15 13 23 6 3 17 15 9 3 1 3 3 3 5 6 6 3 1 1 5 1 3 5 2 2 5 11
24 24 24 24 22 22 19 17 12 15 19 18 18 17 17 8 15 17 17 18 20 15 8 17 8 10 3 3 3 4 4 9 6 5 4 2 1 3 4 6 3 3 5 6 20
25 23 24 22 21 20 13 13 12 14 14 17 18 17 20 20 2 8 24 28 21 17 13 12 15 7 5 3 4 4 4 5 5 5 3 3 2 1 1 4 4 2 5 6 2
24 23 22 20 20 17 17 12 15 14 15 15 18 17 18 8 7 2 2 24 25 21 20 8 4 8 6 6 4 3 5 5 4 4 3 3 0 3 4 7 4 2 0 2 4
23 22 20 19 19 17 15 14 14 14 15 15 15 15 10 4 8 5 9 9 29 24 19 9 5 5 7 7 5 4 2 5 5 5 3 3 5 6 6 8 7 5 5 4 3
21 21 20 17 16 16 15 15 14 14 15 14 13 12 7 7 6 16 13 11 28 26 16 13 8 5 5 5 5 6 6 5 4 4 3 4 5 6 5 6 8 5 7 8 6
22 18 18 17 15 14 15 15 14 14 14 14 11 9 6 8 5 6 6 18 25 22 11 15 12 4 5 4 5 4 2 2 5 4 5 4 7 7 9 10 11 9 8 9 10
19 16 18 16 14 15 15 15 15 13 12 10 7 6 5 8 13 16 11 12 22 22 21 17 9 4 2 3 5 6 3 1 3 6 5 8 5 3 8 7 11 11 9 8 10
17 17 18 17 15 15 15 15 15 14 10 9 6 4 5 2 10 22 6 5 19 16 19 19 7 4 2 6 3 2 4 4 4 4 2 7 2 3 2 2 8 9 10 9 8
19 20 18 16 14 13 14 17 13 5 4 5 9 4 3 4 5 4 8 12 7 11 8 6 5 4 2 6 7 5 3 2 4 1 2 4 7 9 8 6 8 9 10 10 9
23 20 17 15 12 11 12 3 4 3 2 5 5 3 1 3 8 3 8 6 6 7 7 8 4 13 14 5 5 5 4 3 3 3 3 6 4 13 10 6 9 9 12 12 14
23 20 20 13 11 9 4 2 3 4 4 10 11 4 7 9 5 4 8 4 3 3 9 4 6 6 9 8 7 7 5 2 4 1 1 6 10 15 14 7 11 14 13 12 9
23 21 18 12 8 3 6 3 8 6 2 4 3 3 3 4 5 4 8 2 8 6 2 6 2 8 11 5 6 2 3 3 4 4 2 7 7 5 4 4 4 7 8 7 9
24 17 14 10 1 2 3 4 1 3 4 2 2 2 3 4 5 3 5 2 4 9 7 5 3 9 8 1 3 3 3 2 2 3 2 4 5 7 6 9 6 7 7 7 8
19 13 8 8 11 2 2 1 3 0 6 3 3 3 6 2 10 2 9 3 6 9 4 3 1 4 7 6 6 3 5 4 3 3 2 3 2 8 4 6 3 7 9 8 7
21 15 10 11 6 2 3 1 1 5 3 1 1 4 6 2 3 3 4 7 6 10 9 4 4 1 3 4 2 8 6 6 4 2 2 2 3 7 1 2 6 6 9 9 9
21 16 13 6 5 8 5 2 4 5 1 3 4 5 6 6 5 4 1 4 4 4 3 5 3 3 4 7 5 6 5 2 4 3 4 1 1 8 6 5 4 7 8 8 8
19 18 19 14 10 6 2 4 6 2 2 4 6 11 5 4 4 2 2 3 5 5 3 4 2 1 2 3 5 2 4 4 4 1 3 1 5 4 4 3 3 2 3 7 11
11 11 8 6 4 9 2 5 2 1 3 9 11 7 4 5 4 3 3 3 2 1 5 4 3 2 4 2 2 3 2 2 6 2 2 3 7 8 4 4 5 7 9 10 11
5 2 4 7 12 5 1 5 1 2 4 6 5 1 3 1 3 3 3 3 4 1 2 3 4 2 2 3 7 3 6 3 3 1 3 4 4 4 3 5 7 9 10 10 12
3 3 3 10 8 3 3 3 3 2 4 4 3 4 4 4 2 3 6 0 1 3 5 3 3 1 2 2 5 2 1 5 4 3 3 2 5 5 4 1 3 7 8 9 11
2 3 10 10 3 1 3 4 5 4 2 3 3 3 3 3 3 2 7 2 5 6 5 2 4 3 2 0 1 2 4 4 4 3 2 2 6 3 5 3 5 10 9 6 6
2 2 5 4 4 4 2 2 2 4 3 1 2 2 2 4 4 2 4 1 7 4 6 5 2 3 3 3 3 2 3 3 4 3 5 4 5 1 4 6 10 10 9 8 9
2 3 4 3 1 2 5 4 4 3 3 3 3 3 4 2 4 4 2 3 6 6 6 5 3 4 5 5 3 3 5 5 5 3 3 5 7 12 12 12 14 11 5 8 10
3 2 1 3 3 4 3 4 4 4 4 4 3 2 5 3 2 3 2 2 3 3 3 4 3 2 3 5 4 4 4 8 8 5 6 3 6 12 14 15 14 4 6 8 9
2 3 3 2 2 4 3 4 5 4 4 3 5 4 3 4 5 7 6 3 4 2 4 1 3 2 3 2 5 5 9 9 10 7 12 15 19 18 16 11 5 4 5 6 7
5 4 1 3 3 2 1 3 5 2 2 4 3 3 4 2 2 4 2 4 5 7 3 4 5 2 4 3 6 5 8 13 5 5 9 8 11 9 8 10 4 4 5 7 8

GFSSW_925_spd_027.txt.gz
Wind_Speed
22 24 24 23 23 22 21 19 16 11 12 16 16 16 16 18 8 17 18 14 22 11 0 16 12 7 4 3 3 2 3 6 10 8 3 3 4 2 1 0 2 1 2 5 4
24 25 23 21 21 18 16 15 14 10 11 13 15 13 13 16 19 18 16 19 17 20 7 17 11 10 3 4 3 3 5 9 6 6 4 5 3 2 2 3 1 3 5 6 9
21 23 23 20 18 16 15 12 11 11 12 14 14 12 12 14 8 6 23 27 22 15 14 17 17 7 4 3 4 4 5 5 4 5 5 6 2 3 3 2 3 3 2 4 5
23 21 19 17 16 15 13 12 11 10 12 12 12 12 11 5 6 2 1 21 25 23 15 15 9 9 5 6 4 4 4 4 3 5 4 4 4 1 3 5 4 4 1 1 5
22 20 16 17 15 14 12 11 10 11 10 11 11 11 5 6 8 8 10 5 28 26 21 8 13 7 9 6 5 3 3 3 2 0 3 3 2 4 6 5 5 5 2 4 3
22 21 15 14 14 13 11 10 9 10 10 10 10 8 4 11 9 18 13 4 31 26 21 11 9 4 7 6 5 8 4 3 1 2 1 4 5 4 5 4 5 3 7 7 8
24 21 16 13 13 13 10 10 9 10 9 9 8 7 7 9 5 9 6 4 32 25 13 15 13 4 6 5 3 6 4 2 4 4 3 4 5 6 11 6 8 8 7 9 10
25 21 17 16 14 13 12 12 10 10 8 5 5 5 6 8 11 15 5 3 23 22 21 19 12 4 2 5 4 5 2 4 2 7 5 7 8 2 4 5 9 10 9 9 13
23 16 18 17 13 12 12 12 12 11 8 5 3 4 4 3 5 16 6 3 19 18 21 20 13 3 2 6 4 3 4 4 2 6 3 6 2 3 2 3 9 9 10 8 10
25 21 18 15 12 10 11 13 5 1 5 3 4 2 4 3 4 8 7 9 12 14 12 12 4 4 4 5 8 6 4 3 5 3 3 2 7 10 10 3 8 9 11 10 10
29 20 17 15 9 7 8 2 4 3 2 4 4 5 5 0 10 7 7 8 9 10 5 7 5 15 12 6 4 6 5 4 2 1 2 4 5 11 11 6 10 12 13 13 11
27 17 8 10 4 4 6 3 4 0 3 7 10 7 12 2 5 4 10 6 6 13 7 6 7 9 9 6 5 4 4 3 2 1 1 3 11 16 11 6 7 9 9 9 5
26 15 3 3 3 2 3 2 4 4 1 2 1 6 4 2 4 3 8 6 17 8 13 7 2 13 11 5 7 3 5 3 2 2 2 5 5 5 2 3 4 6 6 3 4
30 17 2 4 4 2 3 5 4 4 4 7 6 1 3 5 5 6 3 2 5 12 11 4 1 14 15 9 6 5 3 4 4 2 2 4 4 6 4 3 1 8 9 8 7
28 23 8 5 8 3 3 3 2 3 6 4 4 5 2 2 6 9 7 6 6 8 3 0 3 8 12 7 3 2 5 4 3 3 1 3 2 5 3 4 3 7 8 8 6
26 17 11 7 6 4 2 4 2 5 3 1 4 6 4 4 4 4 5 1 5 7 11 6 3 3 2 5 3 9 6 6 3 1 1 2 2 3 0 1 3 3 4 4 6
21 21 15 7 3 3 4 3 4 6 3 1 4 3 5 5 5 3 4 3 4 5 3 4 4 1 3 9 4 1 5 1 2 2 3 1 2 6 4 4 3 2 4 6 6
9 11 13 12 6 7 6 4 9 1 3 1 5 10 5 5 4 5 3 3 6 5 4 3 4 1 2 3 6 2 4 3 4 3 2 2 5 2 4 5 2 3 3 6 8
9 6 4 3 5 9 2 6 5 1 0 6 5 6 5 5 5 3 2 2 2 2 4 4 3 2 4 3 2 3 2 2 6 1 1 2 5 6 1 3 1 4 7 11 9
5 4 4 7 7 2 0 6 2 3 2 3 3 1 3 1 3 2 1 1 3 2 1 3 5 2 1 2 7 2 6 2 2 2 2 2 3 3 3 3 3 6 10 8 6
3 3 2 13 0 3 3 3 3 1 2 3 3 3 3 3 3 3 4 1 1 2 4 3 3 1 2 2 5 2 1 4 4 1 3 1 3 5 5 3 3 7 9 8 8
2 3 11 9 4 2 2 5 6 4 3 3 4 3 3 2 3 2 5 2 5 5 3 2 4 3 1 1 1 1 3 4 3 4 1 1 4 1 5 6 4 8 8 4 8
2 1 6 5 3 3 3 4 2 5 4 3 2 1 1 4 4 3 3 2 5 4 6 5 1 3 1 1 1 3 3 3 3 2 5 3 3 0 3 5 8 8 4 4 6
2 3 4 4 2 2 3 4 4 2 2 2 2 2 3 3 4 4 3 2 4 2 7 5 3 4 4 4 3 3 4 4 4 3 3 5 5 7 6 8 11 8 2 5 6
3 2 0 2 3 4 2 0 2 4 3 3 3 1 3 3 2 2 2 3 3 5 3 3 3 2 2 3 3 3 4 8 7 4 5 3 5 8 12 11 11 6 3 5 6
2 2 3 1 2 3 2 2 2 2 1 3 4 1 1 4 5 7 5 2 4 1 3 2 3 2 3 1 4 4 7 8 10 7 9 7 16 13 11 6 5 3 5 7 8
5 3 1 3 4 1 3 3 2 1 1 2 3 3 3 2 2 2 1 3 6 7 3 5 5 2 3 2 4 5 11 13 6 5 9 8 10 5 7 6 3 4 4 6 7

GFSSW_925_spd_030.txt.gz
Wind_Speed
20 22 22 22 20 18 17 16 15 16 12 10 9 12 11 11 16 11 24 11 20 8 10 14 13 14 11 9 5 3 10 17 22 19 14 8 10 5 2 6 3 1 2 4 2
21 22 23 21 19 15 12 13 11 10 11 7 6 7 9 11 12 13 17 21 17 15 10 20 14 16 8 9 6 11 14 22 12 12 13 11 11 9 7 8 7 6 2 4 7
23 22 21 20 15 13 10 11 13 10 9 9 7 5 8 8 10 11 18 22 21 18 15 18 17 14 10 8 9 13 16 12 9 9 6 11 10 6 8 9 7 7 4 4 6
23 22 22 17 14 11 9 9 8 8 9 9 5 5 5 4 7 6 4 24 22 21 19 20 18 12 12 14 13 8 13 8 5 5 6 11 7 7 9 1 7 7 3 0 5
24 22 20 13 13 10 8 8 7 7 7 7 5 4 3 8 13 6 3 3 26 25 25 18 22 17 16 13 12 13 6 7 4 7 5 5 7 8 9 6 5 5 5 5 3
23 20 19 16 12 11 8 6 7 7 6 6 5 5 5 15 14 15 18 8 25 28 27 22 17 14 14 12 13 13 5 13 8 8 4 6 7 4 6 5 7 10 12 9 9
25 21 17 10 15 14 10 8 8 8 7 7 6 6 9 14 4 4 11 13 25 29 22 21 16 14 10 8 9 8 13 8 9 7 8 6 12 14 15 15 13 13 10 8 10
25 20 13 18 11 12 11 9 9 9 8 6 6 6 7 14 23 10 5 2 22 26 22 14 19 8 8 6 10 13 7 9 11 16 6 6 14 4 5 11 14 13 12 12 15
27 21 14 13 11 9 9 9 10 9 7 4 4 6 5 7 11 11 8 4 23 21 19 15 12 9 7 14 9 14 10 17 5 7 8 17 9 8 5 5 9 10 10 10 11
27 20 12 6 9 7 5 7 1 3 5 4 1 5 6 11 6 7 7 6 15 17 13 14 8 10 12 14 14 16 15 11 14 6 9 9 13 6 7 8 11 12 12 12 12
27 19 2 4 3 3 3 3 3 3 5 3 4 2 6 6 6 9 8 6 18 20 10 20 10 19 20 17 0 10 15 10 8 2 4 11 12 12 13 13 14 15 16 14 12
27 17 8 7 3 3 4 2 5 3 2 7 6 7 13 9 5 6 9 8 11 19 12 8 14 17 14 10 7 13 13 9 5 3 4 4 11 14 15 13 12 12 13 13 10
27 14 9 9 5 3 5 6 5 2 1 4 3 6 5 3 4 6 6 3 18 12 18 7 13 18 15 13 12 8 10 6 2 4 1 6 9 5 3 5 4 3 3 4 0
27 16 9 7 4 4 5 7 4 1 1 4 3 2 5 4 5 10 7 2 5 7 7 2 1 20 19 16 14 9 5 7 6 3 4 3 2 5 5 8 7 9 10 10 8
21 14 10 14 2 3 4 5 5 2 3 7 4 4 4 1 6 7 7 5 9 10 4 2 3 19 18 17 14 3 7 7 4 3 2 4 4 6 7 9 9 9 8 7 6
17 13 7 6 6 4 6 7 3 3 6 4 6 5 4 8 6 5 2 5 6 9 11 5 3 4 3 9 5 14 10 7 3 1 3 3 3 5 7 8 7 5 5 6 7
9 8 11 5 1 5 10 3 2 6 1 6 4 5 11 8 7 5 3 2 4 5 3 3 4 3 3 9 4 1 7 3 4 4 1 2 3 2 5 5 5 6 5 6 7
9 7 3 2 1 7 4 2 9 4 2 3 5 12 7 4 4 5 7 5 4 3 3 3 5 1 1 1 6 8 3 2 3 4 3 2 5 3 1 5 4 5 4 5 6
7 5 3 3 4 6 2 5 3 1 2 6 7 6 4 7 4 2 4 3 3 2 2 4 4 3 1 2 4 4 4 2 4 1 2 3 3 1 4 8 9 7 5 3 3
5 3 2 3 4 2 1 5 1 3 3 1 3 2 3 4 3 3 1 2 3 2 2 3 6 3 3 1 9 1 8 3 1 4 4 4 3 5 9 8 7 4 5 6 6
3 2 0 7 3 2 3 4 2 1 3 2 3 4 5 4 4 4 3 2 2 3 2 4 3 4 3 3 6 4 3 1 1 2 2 2 3 4 10 8 3 5 5 5 6
3 0 4 2 2 2 2 2 2 2 1 2 2 3 4 3 4 2 3 1 3 3 3 2 4 5 2 2 2 2 3 5 3 4 0 2 3 5 5 3 4 9 7 5 5
3 2 5 2 3 3 2 2 1 5 4 2 2 1 1 3 2 2 3 2 4 3 4 5 3 5 2 2 2 5 6 3 4 1 5 3 4 3 3 4 7 7 7 4 5
2 0 3 3 3 2 1 1 1 1 1 1 2 2 3 3 3 4 3 2 1 1 3 3 2 1 3 3 4 5 10 10 5 4 4 5 1 5 5 8 8 9 7 6 6
3 2 1 1 3 2 1 2 2 2 1 1 1 1 3 3 3 4 3 3 3 5 2 1 2 1 1 2 3 3 7 13 10 7 6 2 6 5 9 8 10 8 5 5 6
2 2 2 1 2 1 1 1 2 1 2 1 2 4 2 2 1 6 7 5 3 4 3 1 3 1 1 2 6 7 11 12 15 16 14 15 17 14 7 4 7 6 5 7 7
5 3 2 2 0 2 1 1 2 3 2 2 0 3 3 2 2 1 2 4 5 7 5 5 5 2 1 1 5 7 16 18 11 9 14 11 9 6 7 6 6 4 4 4 4

GFSSW_925_spd_033.txt.gz
Wind_Speed
23 23 23 22 23 20 20 16 14 13 16 18 10 7 11 11 10 8 9 16 23 5 7 14 12 11 12 11 16 10 10 14 24 21 16 11 9 12 4 8 6 4 5 6 9
24 23 23 22 21 19 15 12 14 14 12 13 8 7 5 8 13 16 11 19 17 11 10 20 16 16 11 15 9 13 15 23 19 18 10 14 12 12 7 12 10 8 5 6 8
25 24 22 21 17 12 14 13 12 10 10 9 8 6 5 7 13 22 19 20 21 20 13 18 20 16 15 12 16 15 21 19 17 5 1 12 13 11 12 13 12 13 7 6 8
24 23 22 19 15 13 13 12 10 7 7 7 8 6 3 6 7 10 18 19 20 21 18 17 19 16 16 15 19 12 22 17 13 4 4 13 11 10 12 5 6 6 4 4 7
26 23 19 16 12 11 13 11 9 5 5 5 5 4 5 9 12 5 13 15 18 21 25 19 23 18 17 19 16 17 11 15 6 6 9 12 13 12 12 6 5 5 4 4 4
29 25 17 15 12 11 12 10 7 5 4 5 4 5 9 16 6 11 12 3 12 24 28 25 19 21 10 9 19 11 8 13 10 7 6 8 12 8 11 10 10 9 9 8 7
29 27 18 11 11 10 8 10 7 6 5 6 6 9 13 16 3 5 13 12 8 30 22 25 21 17 7 7 10 10 15 7 14 10 7 7 14 18 14 9 11 11 10 9 11
30 25 17 9 7 8 9 7 7 7 6 6 6 10 10 13 22 14 6 10 14 25 26 21 17 17 7 5 12 10 14 13 11 11 8 9 13 15 15 17 19 15 14 13 13
31 21 15 1 4 4 5 6 7 6 5 3 7 10 9 1 15 18 13 10 12 24 21 15 19 17 9 13 13 14 13 17 11 15 12 14 10 13 11 6 10 12 11 11 12
28 20 8 6 4 3 3 2 2 3 5 5 6 5 10 7 17 16 16 9 18 20 11 8 6 15 12 14 16 18 19 17 17 9 14 18 15 9 5 9 12 12 12 12 12
22 15 13 9 7 7 4 0 3 3 8 2 3 10 7 13 15 12 18 11 18 19 14 21 9 20 28 23 14 13 16 12 12 8 7 14 15 15 11 14 14 14 13 13 13
16 14 13 9 6 4 4 2 6 4 3 6 6 8 11 11 9 15 16 5 19 21 17 7 17 19 17 18 9 7 15 12 5 6 7 10 12 11 13 17 15 15 13 13 11
16 8 11 7 7 9 10 7 6 4 3 5 5 7 7 6 5 5 4 8 4 22 17 13 9 15 12 14 12 12 15 14 4 9 8 5 14 16 10 7 5 5 8 9 7
16 11 12 2 2 3 6 6 4 4 2 6 2 1 4 3 5 8 6 4 3 21 12 5 5 17 15 17 16 12 8 9 6 7 6 7 3 8 11 8 5 4 4 6 7
17 13 11 6 1 2 2 4 5 3 2 4 4 6 5 2 10 7 3 3 5 7 3 2 5 18 19 18 14 7 10 9 6 4 4 7 5 8 11 10 8 8 7 6 4
21 13 9 6 2 0 2 5 4 3 7 4 3 5 1 3 5 4 5 3 5 7 11 5 4 3 4 3 12 12 12 8 5 2 4 9 7 9 11 11 11 8 7 5 4
25 12 8 4 4 3 5 3 3 5 2 5 2 4 13 6 7 3 2 1 4 4 3 5 3 2 1 10 9 9 14 4 5 4 3 3 5 4 7 10 13 10 6 3 2
21 8 9 6 4 5 4 3 7 5 4 2 2 8 6 3 2 4 4 4 5 10 4 3 4 4 5 2 8 11 11 2 6 6 6 4 6 2 8 9 7 7 3 1 2
12 3 5 4 4 4 3 5 3 2 4 3 4 5 4 5 5 7 6 5 4 1 3 4 4 4 0 2 6 6 6 3 2 2 1 6 4 5 7 9 10 8 2 1 1
7 4 4 2 3 4 1 4 1 3 4 4 2 2 2 3 4 3 1 3 5 2 2 4 6 6 5 5 3 3 4 2 2 3 5 6 5 4 11 12 12 9 6 3 2
4 3 3 2 4 2 3 4 4 3 3 4 3 2 6 4 2 2 3 3 2 3 2 4 4 6 8 7 9 5 4 3 3 2 3 3 4 12 15 13 10 3 3 4 2
4 2 0 2 0 2 3 0 2 1 0 0 1 2 4 4 3 2 3 3 3 2 3 3 5 4 2 3 4 4 5 10 3 4 1 3 3 7 12 9 3 3 4 3 1
5 3 2 1 1 5 5 3 2 1 1 1 1 2 1 4 3 3 2 3 2 0 2 5 4 5 2 3 3 6 9 6 1 3 4 3 5 6 7 5 2 2 4 3 1
3 2 1 2 4 1 4 3 3 1 0 1 2 3 5 4 1 6 4 2 1 2 4 1 3 2 1 3 3 6 11 12 8 3 5 8 6 9 9 3 2 4 4 4 2
3 2 2 2 2 3 2 0 1 1 0 2 3 3 3 4 4 4 6 4 2 3 2 1 2 1 0 3 2 4 8 14 13 11 6 1 7 8 2 3 3 4 4 4 5
3 3 5 4 4 4 1 2 3 2 2 1 3 3 4 1 1 5 8 6 5 7 5 2 2 1 2 3 6 8 10 11 16 16 16 13 12 9 7 2 2 2 2 3 4
7 3 3 2 2 4 2 3 4 4 2 1 4 1 4 2 2 2 2 2 3 6 9 6 5 2 1 2 4 9 17 18 15 10 16 14 11 6 2 1 3 1 2 3 2

GFSSW_925_spd_036.txt.gz
Wind_Speed
26 24 23 22 21 18 17 16 14 15 13 15 16 8 6 9 11 11 11 9 23 5 10 13 10 11 8 6 10 5 6 12 13 15 12 5 6 5 1 7 2 3 9 12 14
27 26 23 21 20 17 15 13 12 14 13 11 12 9 4 6 12 21 12 14 18 20 7 19 13 13 6 9 6 10 9 16 18 20 16 9 6 9 4 6 4 7 11 17 13
28 26 25 21 16 15 12 13 11 10 9 7 8 8 4 6 13 15 24 18 18 19 15 19 18 13 11 6 10 8 15 16 20 20 16 9 5 2 7 6 8 8 10 9 12
30 30 25 18 15 13 11 10 10 9 6 4 8 7 5 8 5 19 29 25 23 19 15 10 16 13 9 12 14 8 17 15 14 4 5 5 3 6 6 4 2 6 10 9 8
32 29 27 19 12 12 12 10 8 7 4 2 1 6 5 7 9 6 15 22 20 22 22 11 17 14 12 15 11 18 11 16 17 6 3 7 6 5 4 1 8 9 7 1 5
33 28 26 18 7 7 9 5 8 5 2 2 1 5 6 8 11 7 9 9 14 23 22 18 12 13 8 6 14 8 15 9 6 4 2 4 6 3 4 4 6 4 4 6 5
32 28 19 11 2 5 4 4 5 4 3 2 2 4 8 12 3 7 6 6 6 16 14 22 17 13 3 5 8 4 7 6 5 6 2 1 8 11 7 4 6 6 7 7 7
31 24 16 8 4 3 5 3 3 3 3 3 2 6 7 11 19 17 1 3 5 7 18 22 19 13 4 3 3 9 3 7 8 9 4 8 5 13 9 8 8 8 8 8 10
25 21 17 11 7 4 4 3 3 3 2 2 2 7 7 2 18 16 14 5 10 4 16 17 6 11 8 6 5 7 8 12 8 13 6 9 3 14 7 8 8 9 10 7 7
19 19 17 12 8 7 6 4 0 4 3 3 6 3 8 7 9 16 12 9 3 13 6 10 7 8 7 8 10 15 13 13 13 12 13 10 9 8 4 2 6 6 7 6 6
17 19 16 11 8 9 4 3 2 3 6 1 3 9 9 14 8 9 14 5 3 12 10 10 6 18 26 21 8 10 13 12 14 8 11 14 12 10 8 7 7 7 7 7 6
20 16 16 13 11 9 6 3 5 3 4 3 7 6 6 3 5 8 9 1 7 11 13 8 13 14 15 13 15 4 7 15 2 7 4 6 9 9 8 7 8 8 8 7 5
20 18 16 15 8 6 9 5 4 3 3 3 2 6 4 3 3 6 6 3 9 17 14 10 10 18 17 15 17 6 6 9 4 5 2 4 6 9 7 8 7 0 2 5 6
22 18 18 14 5 4 2 4 4 4 2 5 2 1 2 8 6 7 7 4 3 17 13 6 1 9 11 14 13 9 7 5 9 5 3 8 4 11 14 5 4 2 4 7 5
22 22 13 7 10 4 2 4 6 2 2 9 3 4 4 3 13 3 4 5 5 5 3 3 5 7 12 10 7 3 10 7 5 4 3 6 2 2 10 7 6 6 6 6 6
25 20 9 7 6 2 5 6 5 2 7 5 4 0 2 9 5 7 6 7 5 6 11 3 1 5 4 3 5 3 10 8 3 3 1 7 6 4 7 10 8 7 7 7 6
28 16 5 4 3 3 7 5 2 5 1 6 3 3 7 6 6 4 4 3 4 7 3 3 4 3 4 5 10 9 8 3 1 1 4 3 3 5 1 12 11 8 8 7 6
22 7 3 5 4 3 3 2 6 4 2 2 1 10 5 2 4 5 4 3 6 4 4 3 2 0 3 3 4 7 7 3 5 5 4 2 5 3 8 8 10 9 7 6 5
10 2 3 3 4 3 2 5 2 2 4 4 2 4 3 2 2 5 3 3 4 1 3 4 3 3 2 2 3 3 2 3 3 2 4 5 3 1 5 6 7 8 7 7 6
8 4 2 4 5 3 1 4 1 4 4 4 3 1 2 4 3 6 7 5 6 2 3 5 6 4 1 2 4 2 1 2 1 2 3 5 6 4 9 9 8 7 7 6 7
3 2 4 4 5 3 3 3 3 2 4 5 5 2 4 1 6 4 5 3 4 5 7 5 4 5 5 4 6 2 1 3 1 2 1 2 2 5 11 8 10 8 6 4 5
5 1 7 9 2 1 2 3 2 1 3 1 3 5 3 3 1 3 7 6 4 4 3 3 4 3 2 5 3 6 5 2 1 3 1 2 2 8 8 8 6 5 1 4 7
5 2 5 5 1 3 2 3 1 2 1 2 1 3 4 0 1 4 6 1 3 4 2 5 3 3 2 4 4 5 5 8 3 3 3 2 2 7 8 7 7 7 5 7 6
2 3 1 3 2 5 3 5 4 1 2 2 1 2 2 2 3 3 5 2 2 4 4 3 3 3 3 2 4 5 8 8 5 3 3 4 5 4 7 7 6 5 7 6 6
3 2 2 3 4 5 3 3 1 2 3 2 3 5 4 3 3 3 5 5 3 3 1 2 2 2 1 4 3 2 5 11 8 6 5 2 6 12 9 7 7 6 7 5 6
3 3 4 5 4 5 4 2 5 4 4 3 3 1 2 3 3 4 5 4 3 5 3 2 2 2 2 3 2 4 7 7 12 12 11 10 5 1 5 7 6 7 6 5 5
8 5 2 5 3 3 3 6 4 7 3 3 7 5 2 5 8 7 4 2 4 5 5 4 3 2 1 3 3 7 13 15 10 7 13 11 7 2 6 7 4 6 6 5 5

GFSSW_925_spd_039.txt.gz
Wind_Speed
27 27 25 20 19 17 15 14 12 12 10 10 11 13 8 7 8 12 11 10 21 1 15 15 12 10 7 6 8 4 5 9 13 10 11 16 16 1 5 6 6 3 5 10 11
30 30 28 24 17 14 15 11 8 9 8 9 11 9 8 4 6 16 15 18 19 13 15 16 7 8 3 5 2 4 7 17 15 20 9 17 19 1 3 4 6 7 9 14 10
31 31 27 23 17 9 12 9 8 5 6 6 5 9 7 2 4 8 19 22 22 24 8 17 12 4 4 5 7 7 14 16 13 11 6 12 19 8 6 1 6 9 11 9 10
32 29 26 22 17 7 8 7 6 4 4 3 2 8 9 2 5 3 11 32 23 20 18 19 7 4 4 7 9 9 14 14 17 8 3 9 13 8 4 4 4 11 14 9 9
32 28 23 18 10 5 5 7 5 3 2 3 0 6 7 5 7 10 8 33 25 22 20 9 11 6 6 6 9 7 5 13 6 8 9 8 18 12 3 7 11 10 7 11 9
31 25 18 13 9 8 6 4 3 5 4 4 5 7 2 4 6 7 3 26 22 25 18 12 9 8 5 11 8 8 11 6 6 13 14 13 13 6 1 5 10 8 3 3 8
27 26 20 14 11 9 9 4 3 4 5 3 1 4 3 10 2 11 4 8 18 22 14 19 9 9 5 4 8 2 13 8 3 7 5 4 5 7 5 3 4 5 6 4 5
23 22 19 16 13 9 7 4 2 2 2 1 1 4 4 10 7 9 3 3 4 9 14 10 14 4 2 3 3 5 6 6 6 9 5 7 7 7 10 2 4 5 4 5 7
20 21 19 16 13 12 9 4 2 0 0 2 3 0 5 6 2 10 6 2 2 3 7 3 4 3 3 3 4 4 5 5 5 10 5 5 4 11 8 6 7 7 7 7 7
21 19 19 16 12 11 9 8 3 1 1 0 4 0 5 3 4 4 6 7 3 7 5 3 3 3 5 5 14 19 12 9 8 8 7 7 8 6 4 7 8 7 6 5 6
20 18 17 15 12 11 11 3 2 2 2 1 4 3 6 11 2 8 7 6 3 2 6 5 4 18 24 5 2 5 6 5 6 6 8 7 8 14 8 4 6 7 6 5 5
20 18 16 11 10 12 7 4 3 1 4 6 6 3 4 2 0 4 10 6 4 10 10 5 9 10 8 9 8 4 8 7 3 7 8 6 10 10 9 7 8 9 7 6 2
21 18 16 12 7 2 7 2 2 1 2 2 1 2 2 1 2 6 4 4 1 13 12 9 7 8 9 6 10 5 5 7 6 2 2 3 4 8 9 6 7 5 5 4 4
21 18 18 11 2 2 2 1 2 2 1 1 3 1 3 3 3 3 1 3 2 9 15 4 7 13 8 10 6 4 5 4 12 5 3 6 4 6 13 15 7 7 5 5 3
24 21 15 4 5 1 3 1 2 1 2 5 2 4 1 3 8 3 1 2 3 4 5 2 0 7 11 6 8 5 7 6 4 5 4 2 2 7 7 6 6 6 4 6 7
25 21 10 2 6 3 1 1 1 2 5 2 0 5 7 9 8 10 5 3 1 6 7 4 1 4 2 3 4 5 10 8 5 3 2 6 6 5 5 10 6 5 8 8 7
28 17 4 3 5 3 4 2 2 5 2 6 2 3 6 5 5 2 3 3 3 7 2 5 4 3 3 8 6 4 7 2 2 1 5 3 5 9 5 6 10 9 8 8 7
20 8 2 5 4 2 2 2 8 1 3 3 1 4 3 4 5 5 3 3 3 4 4 4 6 1 4 3 6 5 6 5 6 4 4 3 7 6 5 11 13 10 10 8 8
13 1 1 2 5 3 1 5 5 3 4 4 3 3 3 3 6 2 3 4 2 1 5 5 1 2 2 2 2 4 6 2 3 2 3 4 5 5 3 5 9 10 9 9 8
11 3 1 5 8 2 2 4 2 5 3 3 2 1 2 2 3 4 2 1 2 2 2 4 5 1 2 1 5 1 1 1 2 1 4 4 4 5 7 9 8 8 8 7 7
1 1 4 4 5 2 3 2 3 5 0 2 4 3 3 2 3 3 3 7 5 3 1 3 3 4 3 4 6 3 2 2 2 4 4 2 5 5 15 13 12 8 7 7 8
7 1 8 9 0 1 2 2 3 1 1 2 1 4 2 3 4 5 3 3 8 11 6 3 4 3 2 5 5 1 6 5 4 4 3 3 5 1 7 8 8 8 7 7 8
3 2 5 3 2 2 1 1 2 3 2 4 2 2 3 3 3 5 4 3 6 3 5 5 2 4 3 1 4 5 4 4 3 1 4 4 4 0 6 7 7 8 5 8 7
2 3 2 0 2 2 1 2 2 0 1 2 1 3 2 2 2 3 3 2 2 2 1 2 3 5 6 5 5 5 8 9 5 2 2 4 3 4 7 8 6 4 7 7 6
4 2 3 2 4 4 2 4 1 1 2 1 2 2 3 2 2 4 3 2 1 0 2 3 3 2 0 3 3 4 7 12 12 5 6 4 8 11 10 8 8 8 7 8 6
3 3 5 5 4 3 4 5 5 4 5 1 3 1 3 4 3 1 5 3 3 1 3 2 2 3 3 3 3 3 6 7 12 10 7 5 6 6 7 6 6 8 8 7 6
7 5 2 6 5 2 2 3 6 4 1 4 5 3 5 2 2 2 1 3 7 7 4 4 4 2 3 1 1 6 14 14 7 11 14 11 7 3 4 8 8 8 7 8 7

GFSSW_925_spd_042.txt.gz
Wind_Speed
26 28 26 24 21 18 13 15 14 9 9 9 9 9 11 11 10 14 12 13 18 7 18 22 13 9 2 2 9 3 5 13 8 8 4 9 11 9 7 5 4 5 2 10 14
28 27 26 23 19 16 7 10 7 6 5 6 8 8 9 10 6 16 14 18 15 14 15 19 7 8 2 3 4 5 9 16 11 13 4 13 12 13 8 6 5 4 7 13 16
29 26 23 22 18 13 5 4 4 4 3 5 4 6 11 9 2 8 17 25 22 19 14 18 13 5 4 4 4 6 12 8 9 4 4 6 19 9 11 5 5 10 6 4 15
28 24 21 19 14 8 6 5 5 3 3 3 0 8 13 8 6 3 4 17 25 24 11 15 6 5 5 8 6 8 5 14 5 5 3 3 8 13 6 8 6 10 12 7 9
26 25 22 18 15 12 9 6 5 3 4 2 2 7 8 2 6 16 19 12 28 28 24 7 6 4 6 5 8 4 14 11 10 12 5 7 8 9 19 19 8 9 8 7 8
22 22 20 17 14 13 10 7 6 6 6 5 5 6 4 6 4 11 19 18 29 27 23 10 8 6 5 5 9 7 3 15 12 11 14 11 8 7 13 4 5 10 8 7 7
18 19 18 16 13 11 10 7 5 6 5 4 4 6 3 6 5 16 12 12 21 25 14 12 9 5 5 4 4 5 9 4 10 10 7 10 5 12 18 6 4 6 9 8 9
16 17 15 15 13 12 8 4 3 3 3 1 2 2 4 5 7 7 8 7 9 9 18 16 9 3 1 1 5 4 4 6 7 10 7 15 10 14 20 5 9 6 5 4 4
17 16 14 13 12 11 11 6 0 3 2 2 2 2 6 11 3 1 2 4 5 4 10 10 7 2 2 4 4 2 5 10 6 13 6 10 4 14 11 7 9 8 6 5 4
15 16 16 12 10 11 10 5 4 3 4 1 5 1 3 4 7 2 6 4 0 10 6 4 4 4 3 6 15 18 6 14 10 12 9 6 5 4 6 8 11 9 7 6 4
17 15 16 13 9 11 8 1 3 3 1 2 2 2 4 10 2 5 7 4 4 6 3 9 11 18 7 5 2 7 5 7 2 5 8 12 4 12 8 4 7 8 6 5 4
19 17 17 14 8 7 3 3 2 1 2 2 5 3 2 2 2 4 7 1 4 7 4 3 13 6 8 7 3 8 7 5 1 4 7 6 13 8 9 6 6 7 7 7 3
20 18 15 16 9 2 4 3 1 1 2 2 1 1 2 3 2 4 8 8 2 12 14 4 5 4 8 5 6 2 6 5 4 3 2 4 5 8 8 5 7 7 7 6 8
19 19 16 12 4 1 1 4 3 3 0 1 1 1 1 2 3 2 1 2 2 12 7 2 2 12 6 10 5 3 5 3 8 5 3 4 4 6 10 14 11 10 8 8 7
20 21 13 5 3 2 3 4 0 2 2 1 3 1 3 2 6 3 1 3 3 7 5 4 13 14 11 10 6 5 5 8 4 5 4 1 0 6 3 8 13 9 9 8 7
24 19 8 5 6 3 4 3 2 4 4 3 4 2 4 2 1 3 2 3 2 5 5 2 3 2 3 2 6 6 7 8 5 3 1 6 6 5 6 7 3 4 7 8 9
28 14 6 7 2 8 3 3 2 5 1 6 3 8 5 4 4 4 6 2 2 3 6 4 2 3 2 6 4 6 7 3 2 1 6 2 4 13 6 6 8 10 9 9 9
20 3 7 6 7 6 3 1 7 3 2 3 2 9 4 8 4 4 6 5 2 4 3 5 6 1 5 3 4 4 5 5 6 4 4 1 7 6 6 7 8 12 12 9 8
9 4 4 7 9 8 2 4 6 5 3 3 2 2 3 3 5 3 1 6 2 2 4 4 2 1 3 3 1 4 2 2 5 3 3 4 7 8 2 2 8 9 8 9 9
4 1 1 8 12 5 2 3 3 4 2 2 2 1 2 6 6 5 5 2 5 2 3 5 4 1 1 2 0 0 2 3 3 3 3 4 5 6 4 7 8 9 9 8 7
4 2 3 5 8 2 2 4 3 5 3 1 3 3 1 2 4 4 5 4 6 3 4 5 3 3 2 5 7 1 1 3 3 3 4 2 6 5 10 11 13 11 9 9 8
2 3 6 8 2 1 2 2 2 0 1 2 2 2 1 2 4 3 5 4 8 7 5 2 4 3 3 3 4 2 6 5 3 4 3 3 6 4 7 8 7 8 8 6 7
1 2 5 3 2 3 1 1 1 2 2 3 2 3 2 2 4 3 3 3 8 6 7 6 1 3 2 1 2 6 5 3 4 3 6 5 5 4 1 6 7 8 6 7 8
1 2 2 1 2 3 1 1 1 1 1 2 2 3 3 4 4 3 2 3 3 3 4 4 3 5 5 4 5 6 11 8 6 4 4 6 4 4 3 7 7 6 6 8 8
4 2 2 2 2 3 3 1 2 1 3 1 2 0 1 1 2 3 2 2 3 2 2 4 4 3 1 2 3 3 11 16 13 16 9 11 11 9 9 9 8 7 7 8 7
3 3 4 4 4 4 5 6 4 3 4 2 2 5 4 4 2 3 4 2 3 1 2 2 1 2 3 2 1 3 6 14 18 13 12 4 8 7 7 4 6 9 9 8 8
6 4 1 6 5 2 4 4 4 5 2 4 3 2 5 2 2 3 3 4 5 6 3 2 4 3 3 1 2 6 15 13 10 10 16 13 16 3 4 12 10 9 9 10 8

GFSSW_925_spd_045.txt.gz
Wind_Speed
26 25 23 22 22 19 17 15 11 10 8 8 8 10 8 11 14 14 11 10 17 7 10 17 12 8 2 5 3 2 4 13 11 7 4 4 8 9 11 4 6 4 3 7 23
25 24 22 20 19 15 9 8 8 6 4 5 6 8 7 8 10 10 11 12 16 12 8 19 7 6 3 5 5 4 7 14 10 1 1 3 7 8 8 16 4 2 8 17 24
23 23 23 20 19 15 11 7 6 5 4 5 6 7 9 10 2 6 21 19 18 16 11 18 16 6 5 2 4 5 15 4 6 4 3 6 6 6 6 8 4 12 10 6 17
20 21 19 18 18 15 11 9 7 4 4 4 3 4 10 11 7 6 6 9 21 20 17 11 7 7 8 8 5 9 6 12 5 6 2 5 9 10 3 8 14 14 9 7 10
19 19 18 17 16 16 12 10 8 5 6 4 1 6 9 2 4 8 13 12 14 25 19 7 7 10 14 5 5 4 14 12 12 10 5 5 5 7 16 20 18 11 7 7 8
18 17 17 16 15 14 12 8 7 5 6 5 5 6 3 3 6 10 18 11 18 25 25 11 8 9 5 7 8 8 9 11 8 6 6 4 3 5 14 7 16 5 6 6 6
17 16 15 15 14 13 11 8 5 4 4 4 2 3 0 5 10 12 12 5 24 26 14 14 11 5 4 6 5 5 7 6 9 9 5 6 4 7 23 16 15 8 8 6 7
18 16 15 14 13 11 11 10 6 3 3 1 1 2 3 2 5 8 11 9 15 17 17 16 17 3 2 3 4 6 4 5 9 14 6 11 7 15 18 10 17 9 8 6 6
17 16 15 14 12 10 9 9 5 4 3 1 1 1 5 4 1 5 6 5 8 10 6 13 11 3 2 7 5 2 7 6 9 19 9 11 5 9 13 10 10 8 8 7 5
18 17 15 13 12 10 9 2 3 2 1 2 4 1 4 4 4 0 3 9 1 8 9 10 4 4 2 6 15 15 6 9 8 13 12 13 2 5 4 12 13 11 8 8 7
19 17 15 13 11 9 7 1 3 2 1 2 1 2 4 11 4 6 4 3 4 8 3 7 5 12 6 3 1 6 4 8 3 8 10 16 6 10 11 14 10 9 9 9 8
21 18 15 14 10 8 1 2 3 2 2 1 4 2 3 4 2 3 3 4 3 4 6 2 10 6 7 3 5 8 5 4 2 3 10 7 10 11 9 14 11 9 8 9 5
21 18 16 13 10 4 1 4 1 1 1 2 1 1 2 4 2 2 3 4 3 6 12 3 6 8 6 3 5 3 7 4 4 4 3 5 4 10 10 7 8 7 7 5 9
22 19 17 9 4 2 2 6 3 1 2 1 3 1 2 3 3 2 4 1 5 8 6 1 3 9 7 5 4 3 2 4 5 5 4 5 4 7 9 13 9 13 9 9 8
22 20 14 5 1 2 2 6 1 2 1 3 3 1 0 3 4 3 8 2 2 11 4 1 1 8 5 5 5 2 4 4 2 3 3 2 1 5 3 7 16 13 9 9 9
24 18 8 6 7 3 6 5 2 4 2 2 2 2 5 2 2 3 2 1 3 7 4 1 2 3 3 3 5 6 6 7 4 3 3 4 5 5 5 6 5 7 8 9 9
26 15 5 8 2 11 8 3 2 4 0 4 3 5 5 4 4 4 6 4 3 6 2 3 3 2 2 7 2 3 5 2 2 1 4 3 4 14 5 5 6 8 9 9 9
18 2 9 6 9 8 5 2 6 2 1 3 3 7 4 6 3 4 7 2 1 4 5 4 5 3 1 2 5 5 6 5 5 4 3 1 7 6 5 6 7 8 6 6 8
5 7 8 8 10 6 2 3 6 5 2 2 11 4 3 6 5 6 9 8 4 4 2 4 3 1 2 1 3 4 3 3 6 3 3 4 7 8 7 7 4 7 8 9 8
3 5 3 7 7 2 3 3 1 3 2 1 2 4 3 6 7 4 6 5 4 3 3 4 5 3 1 1 4 3 5 3 3 4 4 4 5 6 5 8 5 7 10 7 7
1 3 3 8 8 2 2 4 4 4 2 1 3 3 6 4 3 5 6 1 4 5 4 3 3 2 2 3 5 2 1 3 4 4 4 1 5 6 6 8 8 8 8 8 8
1 3 5 10 2 1 1 3 2 2 1 2 1 3 2 3 5 4 7 4 7 7 7 3 4 2 3 1 2 1 4 5 4 4 2 2 6 2 6 7 7 7 7 7 7
2 1 3 2 2 2 4 3 2 4 3 3 3 3 2 2 4 2 3 2 9 6 7 6 2 4 4 1 2 5 5 3 3 3 6 4 5 2 4 1 4 7 7 7 6
2 1 2 2 2 1 3 3 2 3 3 3 2 3 2 3 5 3 3 3 2 0 4 3 3 5 6 4 4 8 12 10 6 4 6 12 7 5 4 2 5 7 8 7 7
3 1 1 1 1 2 1 5 3 2 5 5 3 4 1 2 2 3 3 3 3 5 4 3 5 4 4 3 4 5 9 19 17 19 10 10 12 9 6 7 9 7 5 6 8
2 2 2 2 2 1 5 5 6 4 6 4 3 5 3 3 2 5 4 3 3 2 3 1 2 2 3 2 4 4 8 15 20 19 18 10 15 6 5 5 7 9 10 9 8
4 2 0 4 4 1 2 2 4 4 3 4 6 2 4 2 3 2 2 2 5 7 3 3 4 2 3 4 4 6 12 14 10 11 17 12 27 4 5 7 10 9 10 12 10

GFSSW_925_spd_048.txt.gz
Wind_Speed
22 23 22 21 21 19 16 11 10 9 8 5 8 8 9 8 9 13 10 9 22 4 7 15 9 5 7 3 3 1 2 5 6 7 3 3 3 6 4 3 3 6 4 5 25
21 22 22 21 20 19 16 13 11 9 6 5 5 6 7 8 9 8 7 9 14 14 3 11 6 8 4 5 5 7 9 9 3 3 5 6 5 6 6 9 4 8 15 11 22
21 20 20 19 19 17 15 13 12 10 8 6 6 6 5 4 1 5 14 16 11 12 10 13 14 5 6 3 4 3 15 9 3 4 7 3 3 4 5 4 4 8 15 8 7
18 19 19 18 17 16 14 13 11 9 8 6 4 1 8 6 4 4 2 14 13 13 11 8 6 5 6 7 7 8 11 10 5 3 4 2 2 4 3 6 7 9 14 6 7
15 16 17 17 15 15 13 11 11 10 9 7 3 3 6 2 3 8 9 10 12 15 16 7 6 4 6 7 9 5 13 13 9 7 3 7 3 3 10 5 5 11 15 7 6
19 14 14 15 14 14 11 10 9 9 9 6 6 3 2 2 3 12 15 14 15 17 17 9 8 7 4 4 9 7 7 12 12 9 5 3 1 2 15 6 12 14 14 7 6
17 18 14 13 13 12 12 10 7 7 7 5 3 1 1 4 3 6 14 11 15 24 11 14 7 6 3 3 4 3 10 8 8 8 3 4 8 9 15 8 10 11 12 8 7
18 17 16 15 13 12 12 12 7 4 6 5 4 4 3 4 3 9 9 2 17 24 20 16 7 5 3 3 5 4 4 5 5 10 4 9 11 8 11 10 11 11 11 8 7
17 18 16 16 13 11 11 11 5 2 3 3 3 2 3 1 2 11 9 3 17 15 16 13 5 3 2 8 3 3 5 5 5 11 8 6 4 10 3 8 11 9 9 8 8
18 18 17 13 13 11 11 6 4 2 1 3 3 2 5 4 5 6 4 8 6 11 5 6 3 4 3 7 14 7 5 4 7 12 7 13 4 3 9 5 14 9 8 8 8
19 19 17 15 13 10 9 2 3 3 2 1 2 2 3 11 3 6 5 4 3 5 2 11 2 14 7 5 1 8 5 5 2 9 6 11 8 7 8 7 11 16 8 8 9
20 20 17 16 13 9 4 2 2 1 2 1 4 3 2 5 2 4 4 3 2 6 5 2 7 6 6 7 6 6 7 5 1 6 6 9 12 6 9 8 11 19 9 8 4
21 20 17 16 10 6 2 2 2 3 1 2 1 1 2 4 2 3 3 4 9 4 5 3 7 9 6 5 7 3 7 4 6 4 2 6 6 14 8 5 8 12 9 5 8
21 19 18 12 4 2 2 6 2 2 2 3 2 1 1 2 3 3 3 1 4 5 6 3 3 8 7 5 5 4 4 5 7 6 5 2 4 9 14 11 11 18 17 11 8
23 21 15 6 1 2 3 7 1 1 0 2 1 4 3 3 4 4 1 2 6 7 2 1 4 10 7 7 4 3 5 6 3 4 3 1 2 4 5 11 23 21 14 9 10
24 20 9 4 7 3 8 5 0 5 2 3 1 1 2 1 2 4 2 4 1 5 4 3 0 3 4 4 5 7 6 6 4 3 1 6 5 5 6 9 3 8 11 10 10
24 15 5 6 3 10 8 2 3 4 3 5 3 3 2 1 2 2 3 2 2 3 2 3 2 2 2 6 3 3 6 3 3 2 4 4 3 10 2 5 5 7 7 7 8
17 4 7 3 8 10 3 3 6 3 2 5 5 4 1 3 4 2 4 3 1 2 3 2 3 2 4 3 6 3 4 4 4 3 3 1 6 5 6 5 7 7 5 3 7
3 5 5 3 10 6 1 4 5 5 1 4 6 4 1 2 3 4 3 1 4 2 3 3 3 1 4 2 2 3 3 4 6 3 3 4 7 8 5 8 6 6 4 6 8
5 2 3 7 7 1 2 2 1 3 4 5 3 3 4 7 6 6 6 2 3 3 1 3 5 2 2 2 4 3 7 2 3 2 3 4 5 6 9 7 8 6 7 5 5
2 2 1 8 5 1 1 4 3 5 3 2 1 4 4 6 5 5 9 1 4 4 3 3 3 2 2 3 6 2 1 3 4 4 4 2 5 6 5 5 8 9 7 8 8
2 1 4 8 2 1 2 3 2 3 1 1 1 3 4 6 4 5 7 1 6 7 5 2 4 3 1 2 3 2 3 4 4 3 1 2 7 2 5 8 6 8 6 7 7
2 1 2 3 1 2 4 1 0 4 4 4 4 4 3 3 4 1 2 2 7 4 6 6 3 4 2 2 2 3 4 3 3 3 7 4 6 1 4 5 6 4 6 6 7
2 1 1 1 1 2 1 2 2 1 2 3 2 3 3 5 6 3 2 2 1 3 9 4 3 5 6 4 3 5 8 10 4 5 6 15 10 11 8 6 3 5 6 7 7
2 1 1 1 2 3 1 1 1 2 3 7 4 4 1 3 3 3 3 4 6 4 4 2 3 3 4 4 5 3 5 12 14 16 12 13 18 16 12 11 8 8 6 7 8
2 2 2 1 2 1 4 5 4 4 5 4 4 5 3 4 2 4 4 2 4 2 3 2 1 2 4 3 2 4 7 9 19 21 15 23 24 8 4 5 5 9 9 9 8
2 1 1 4 3 1 2 3 4 4 4 4 3 3 6 3 2 2 3 1 3 7 3 3 4 3 3 3 3 7 13 12 5 7 15 14 26 3 5 9 8 9 10 12 10

GFSSW_925_spd_051.txt.gz
Wind_Speed
20 19 20 20 20 19 18 16 14 12 11 7 4 4 6 5 5 7 9 8 20 3 9 13 8 9 9 3 3 2 3 3 3 5 5 3 1 1 2 3 4 5 7 9 5
17 19 18 19 18 19 17 14 13 12 10 8 7 5 4 4 4 6 12 9 14 16 1 15 5 11 4 5 3 5 8 6 2 1 3 4 4 3 3 4 2 7 16 17 5
14 16 17 17 17 16 15 15 12 11 10 9 8 6 2 3 2 2 9 12 10 10 9 6 15 4 4 6 6 8 13 10 4 4 4 3 2 1 1 4 2 6 11 14 2
18 14 15 16 16 15 15 13 12 11 11 10 7 6 4 4 3 4 7 4 12 8 7 7 5 6 4 8 7 8 16 14 13 4 3 3 4 2 2 2 3 2 4 10 6
18 18 14 13 14 14 13 12 11 10 11 11 6 4 3 0 3 2 6 4 5 9 12 7 8 5 5 6 6 7 10 13 19 2 2 4 2 3 7 6 2 3 9 12 6
17 18 17 13 13 13 12 11 9 8 8 7 8 2 1 2 4 6 7 9 10 12 14 7 8 6 4 9 7 7 7 17 12 10 4 9 2 1 2 4 4 7 8 8 8
17 16 17 16 15 12 12 11 10 6 6 5 7 4 2 4 4 7 3 11 10 17 14 14 9 5 3 5 5 3 8 7 10 14 7 4 15 15 4 6 7 7 7 8 11
17 16 17 16 14 13 12 12 9 6 4 4 4 4 2 4 4 2 9 14 12 17 15 17 7 4 2 3 4 4 6 6 5 14 7 11 14 12 2 5 9 6 7 7 10
17 18 16 15 14 13 11 11 6 5 3 2 2 3 2 2 6 8 7 6 15 16 16 12 4 4 3 6 4 3 7 8 7 12 9 11 4 5 6 5 15 6 5 7 9
17 18 17 15 12 13 12 8 4 3 2 3 1 1 3 4 2 8 3 5 10 12 6 7 4 4 3 5 12 9 5 3 4 8 6 8 2 6 3 8 15 14 6 7 9
19 18 17 14 12 10 11 3 3 3 2 1 2 2 2 10 2 5 7 5 9 6 5 1 8 16 10 6 4 7 5 6 3 9 7 8 4 7 7 4 9 13 10 11 11
19 18 17 14 12 7 7 1 2 1 1 2 4 2 3 4 2 5 4 2 7 9 7 3 3 7 10 7 5 8 6 3 2 9 7 9 13 13 10 7 9 14 17 14 11
18 18 16 15 9 5 4 2 4 2 2 1 0 1 2 5 3 5 3 4 10 5 5 3 5 6 10 6 7 2 8 5 5 4 2 7 6 9 6 5 10 14 14 12 11
19 18 15 11 3 2 2 7 4 2 2 1 2 1 1 2 4 3 3 3 4 7 4 3 9 11 7 8 5 3 5 7 10 9 5 2 4 4 12 15 15 16 17 15 10
18 17 12 4 0 2 1 8 2 2 3 1 1 3 2 2 3 5 2 1 5 7 3 2 12 16 12 7 6 4 5 5 4 4 3 1 2 4 6 18 18 15 14 14 7
19 14 4 4 5 1 7 5 1 4 1 2 1 1 2 2 0 2 3 4 5 5 1 5 2 3 5 1 1 7 6 6 4 2 2 4 4 4 5 8 4 12 17 18 15
17 6 6 6 1 7 6 1 3 4 3 4 3 2 1 1 1 2 2 5 4 5 4 5 3 2 3 6 4 4 5 2 1 1 4 1 3 10 6 6 5 6 8 7 6
6 7 8 3 7 9 2 3 5 1 4 3 3 2 2 3 1 4 5 3 1 4 2 3 7 1 4 3 6 3 4 4 6 4 3 1 5 5 4 4 4 5 6 5 4
7 9 5 4 9 3 2 4 5 3 1 6 4 3 1 2 3 0 2 3 3 3 3 4 4 3 3 1 2 3 1 3 6 3 2 3 4 9 5 5 4 6 4 6 6
7 4 4 5 5 0 2 2 1 3 5 1 3 5 4 3 3 1 1 1 3 2 1 3 5 4 2 0 4 3 6 2 2 3 3 2 3 4 2 3 7 6 6 6 4
4 3 3 6 2 0 0 4 3 4 4 5 4 3 2 5 5 3 4 2 2 2 1 4 3 3 3 2 6 3 1 4 3 2 3 1 4 6 5 3 6 9 7 5 5
3 2 2 7 1 1 2 4 2 0 3 2 2 4 2 3 5 0 5 1 5 5 4 3 4 4 2 1 3 3 3 4 3 4 1 1 6 3 6 4 4 6 5 1 2
3 2 3 2 1 2 4 3 0 3 3 3 2 2 6 5 4 3 2 2 6 5 6 5 2 4 2 3 2 3 4 3 3 3 5 3 4 3 2 4 3 2 1 4 5
3 2 1 1 1 1 3 3 1 2 3 2 2 3 3 3 4 4 2 2 3 2 5 5 3 4 5 4 4 5 5 5 3 2 4 13 11 11 13 11 8 4 3 5 7
3 1 1 3 2 1 1 2 2 3 3 7 5 5 2 3 3 3 2 3 5 4 4 3 3 2 1 1 2 3 4 9 12 13 10 13 16 10 9 11 9 5 3 5 7
4 4 2 1 1 1 3 4 3 4 4 3 5 6 5 4 2 4 5 2 3 4 3 4 1 2 4 3 1 4 7 7 13 17 13 18 21 15 20 8 6 8 6 8 9
3 2 3 3 1 2 0 1 2 2 4 4 2 3 7 2 2 2 1 2 5 6 4 4 4 2 2 2 3 6 9 12 4 5 8 13 19 12 12 10 8 10 8 11 12

GFSSW_925_spd_054.txt.gz
Wind_Speed
12 14 16 16 16 16 15 14 13 13 12 11 8 3 4 5 6 6 14 7 19 4 9 12 11 9 6 7 8 2 5 15 11 11 8 4 4 1 3 9 10 5 7 6 5
16 13 14 15 15 15 15 14 12 12 11 10 8 6 3 5 6 9 8 12 9 13 2 18 15 17 6 7 7 6 4 18 8 3 6 3 3 3 3 8 7 8 11 7 6
16 15 12 12 14 14 13 13 12 12 12 11 8 7 4 5 6 2 3 10 11 8 9 9 16 15 14 3 11 11 16 9 7 8 6 1 3 2 7 6 7 8 11 9 5
15 16 17 11 12 13 13 11 11 11 11 11 7 7 1 3 3 4 6 2 16 6 10 5 15 16 14 18 11 8 15 17 9 4 4 4 3 1 2 4 4 4 7 11 3
15 13 15 15 11 12 11 12 10 11 10 9 9 4 0 3 1 4 4 3 17 9 7 9 17 16 15 17 19 13 7 9 8 2 0 2 4 6 6 4 2 1 4 11 7
15 14 13 15 15 12 10 10 10 9 9 8 8 3 1 4 2 2 3 2 12 9 10 8 13 10 12 14 17 14 14 19 16 16 6 9 9 6 12 4 4 3 2 7 10
15 15 13 14 15 13 10 9 11 8 7 8 6 3 3 2 2 4 3 3 7 11 9 8 9 8 9 14 9 12 13 13 15 19 10 10 21 23 18 9 11 11 5 4 6
15 16 14 16 14 12 11 9 10 7 5 7 5 4 2 2 4 4 4 7 11 12 14 14 5 6 6 6 12 9 12 10 16 20 10 18 21 18 18 13 16 14 9 6 3
16 16 15 14 12 13 12 10 6 5 4 5 4 4 0 0 5 4 5 7 19 15 13 8 3 5 6 14 11 12 11 16 10 20 9 18 11 5 2 15 20 19 13 8 5
16 16 14 14 13 12 11 9 5 4 2 3 4 5 1 4 1 8 7 6 15 18 10 5 3 9 11 13 16 17 15 16 10 14 14 17 12 4 7 11 18 21 19 15 10
17 16 15 13 12 10 8 2 2 3 1 2 3 4 3 10 0 3 5 4 8 16 11 2 6 17 22 18 5 14 13 14 4 8 8 14 13 13 10 8 9 12 15 19 14
17 15 13 12 11 7 5 1 1 1 0 1 2 5 3 4 1 5 3 5 6 14 6 3 7 16 15 13 12 15 15 11 7 13 14 11 17 16 14 13 12 14 15 19 14
16 15 13 12 9 4 4 2 3 1 1 2 1 2 1 4 2 6 2 2 10 12 6 2 4 15 16 15 10 11 15 13 8 10 9 4 11 16 17 18 15 15 15 15 18
16 15 12 9 2 3 3 5 3 1 1 2 1 1 1 1 2 5 1 2 2 14 7 2 8 19 19 15 12 10 10 11 8 9 6 9 4 8 17 20 20 17 15 13 15
17 14 9 3 3 3 1 7 1 2 2 2 3 4 3 3 2 3 2 5 7 11 3 1 11 19 17 16 9 5 10 12 10 11 4 8 5 10 4 17 17 17 18 17 14
16 10 2 5 3 1 9 5 1 3 3 1 3 1 1 3 2 2 2 4 7 7 6 2 1 3 6 7 5 13 11 9 5 6 6 11 10 4 5 8 11 12 17 19 17
12 4 8 7 4 7 7 3 2 2 0 2 2 2 1 3 2 3 2 5 3 6 3 4 3 2 4 8 8 13 16 4 5 5 4 2 8 11 6 8 5 7 8 12 14
1 7 7 4 9 9 2 2 1 1 2 2 2 3 2 1 3 2 5 2 1 4 4 4 6 8 6 5 9 14 13 3 6 5 5 3 7 3 2 2 4 7 9 8 6
8 7 3 7 9 4 2 1 2 2 2 7 4 0 4 2 1 2 2 5 4 3 1 4 3 3 3 2 3 7 5 2 4 1 3 4 4 11 3 3 2 3 5 8 6
5 3 3 6 4 1 1 2 2 3 4 6 2 3 4 4 3 2 3 3 5 4 3 4 6 3 3 2 5 2 10 3 1 4 4 3 4 3 8 5 5 7 7 6 4
3 2 1 5 3 1 1 1 1 6 7 5 2 4 2 5 3 2 2 3 2 5 1 4 3 4 7 6 10 4 4 1 0 2 2 1 2 2 8 3 5 6 6 6 2
2 1 1 4 2 0 1 2 2 4 5 4 2 2 2 3 4 2 2 2 3 6 5 1 5 5 3 3 2 1 8 12 6 5 1 3 3 4 3 3 3 6 6 3 2
3 2 0 1 1 1 1 2 2 3 2 5 4 2 3 2 3 1 1 2 3 3 2 4 4 5 3 1 2 6 6 6 5 2 6 6 2 1 4 6 4 7 10 7 5
3 3 1 1 1 1 1 1 2 1 3 2 3 6 4 2 1 5 3 2 3 1 4 1 3 3 5 3 6 8 13 10 9 7 14 14 15 8 9 14 15 16 9 7 6
0 2 1 4 4 3 1 1 2 2 2 3 4 1 2 3 3 4 4 6 3 2 2 2 2 2 3 4 2 3 9 15 12 16 14 15 18 16 15 15 14 14 15 10 9
4 3 2 3 2 4 0 1 2 2 4 4 6 6 3 3 3 4 7 3 3 2 2 1 3 1 2 1 2 4 8 8 13 17 17 18 21 16 15 14 14 15 15 13 15
3 2 2 2 3 3 2 2 2 0 4 5 1 5 9 4 2 3 3 2 3 6 3 2 4 2 2 2 2 6 6 10 7 7 8 13 15 14 16 15 15 16 16 15 14

GFSSW_925_spd_057.txt.gz
Wind_Speed
16 15 13 13 14 15 16 14 13 12 13 13 12 10 8 6 6 7 12 15 18 6 6 15 16 14 11 9 13 8 7 13 13 16 12 7 7 3 4 4 4 4 5 4 7
16 16 16 12 13 13 14 13 12 12 12 12 12 11 8 6 10 12 15 9 12 10 7 17 18 18 4 7 6 10 4 20 17 1 12 9 7 6 4 7 8 7 8 6 9
16 15 15 17 12 12 13 12 11 11 11 11 9 11 6 5 10 5 2 6 12 3 8 10 21 16 13 2 7 9 19 5 8 8 10 6 7 3 8 5 7 7 9 7 7
17 15 13 16 15 12 12 12 11 10 10 9 10 8 4 6 4 5 4 4 10 4 4 6 15 18 16 11 6 14 17 7 9 8 7 6 7 6 0 10 6 6 8 6 7
16 15 13 14 15 16 11 11 11 10 9 8 10 9 4 7 4 5 3 5 6 12 7 8 14 19 21 14 11 7 20 18 17 3 8 4 2 1 4 6 1 3 3 8 5
15 14 14 14 16 16 15 11 11 10 8 9 9 6 7 8 3 1 2 3 8 19 8 11 10 18 12 15 21 10 9 15 11 11 3 1 4 8 8 7 3 2 2 5 7
15 14 14 13 15 15 14 12 10 10 7 7 8 6 7 3 3 3 3 3 8 18 13 12 15 11 8 13 20 24 7 13 12 10 6 5 9 16 16 9 7 7 6 3 3
16 14 14 14 13 14 14 13 11 9 6 5 6 6 5 2 6 4 3 9 8 15 10 11 15 11 9 8 18 15 9 10 14 15 13 13 16 17 18 18 20 13 11 6 4
16 15 14 13 13 15 14 13 11 7 6 5 6 5 1 0 9 7 6 8 14 14 11 9 8 12 7 15 14 15 13 19 15 17 12 16 10 9 17 21 23 19 15 11 7
15 16 14 13 13 15 13 11 7 6 3 5 7 6 0 3 3 9 7 12 10 17 9 6 4 8 13 15 16 19 18 15 12 15 15 16 14 5 8 14 23 23 19 16 14
14 14 14 13 12 13 9 5 4 5 6 4 4 4 3 8 5 6 8 2 9 15 10 4 3 17 24 22 15 18 18 15 11 10 16 13 13 15 10 11 13 24 24 21 20
14 14 13 14 13 10 5 4 3 3 2 1 2 3 3 4 1 1 2 5 9 13 13 5 1 15 16 13 5 15 18 11 9 9 13 11 15 19 18 17 14 13 21 22 20
14 14 14 13 11 7 8 2 0 2 3 4 1 3 2 5 4 4 4 4 11 13 7 6 3 11 15 11 11 10 17 16 13 11 10 6 10 20 20 18 14 16 13 15 16
13 14 12 9 4 3 4 4 1 2 2 2 3 1 2 4 3 4 6 2 1 11 7 3 1 11 17 14 13 14 11 9 10 13 7 14 5 19 18 19 18 16 14 13 12
13 13 9 6 3 3 1 4 1 3 2 2 3 1 3 3 3 1 3 1 7 12 5 3 8 12 18 16 8 6 6 7 9 12 7 12 6 11 10 11 16 15 16 15 13
13 8 2 4 4 1 4 2 3 2 2 2 1 1 3 1 4 5 1 5 10 9 9 3 2 7 8 13 2 10 11 8 7 9 8 13 10 8 6 3 5 10 13 15 15
6 4 6 5 1 5 4 3 3 2 1 1 4 2 3 5 4 2 3 3 4 6 0 5 2 2 7 12 5 13 16 5 4 3 4 4 9 10 1 5 5 2 2 6 9
5 5 4 1 4 5 4 3 1 4 1 2 3 3 2 3 3 1 3 2 0 4 3 1 3 5 4 11 7 12 14 4 5 6 10 6 6 4 3 4 1 2 5 5 6
10 4 3 2 5 2 3 2 3 2 2 6 3 2 4 5 3 2 1 2 4 2 2 3 4 0 8 1 5 13 11 4 3 3 1 6 6 7 3 2 3 3 3 3 4
5 5 3 6 2 4 3 2 2 2 3 7 1 3 5 8 6 6 3 3 4 1 1 3 4 5 6 5 1 6 9 3 1 4 4 4 3 1 8 8 9 11 11 9 3
5 2 2 4 2 4 0 3 2 3 2 2 1 2 1 7 3 2 3 6 3 3 2 6 4 5 8 7 11 5 4 3 1 3 3 1 5 9 9 7 7 7 8 10 8
2 2 1 2 2 1 1 3 1 5 7 3 3 4 1 3 4 1 5 3 6 9 5 1 4 5 6 3 3 8 9 11 5 4 3 4 1 2 8 2 1 1 6 10 6
3 3 2 2 2 4 4 3 0 3 4 4 3 4 3 2 3 3 3 2 3 3 2 3 4 5 2 4 4 6 10 7 9 3 5 4 2 2 1 3 5 7 10 12 7
4 3 2 3 3 2 5 5 6 2 2 1 2 5 3 2 2 5 5 2 4 1 3 3 6 2 3 3 7 8 14 12 11 5 9 12 13 10 6 10 12 14 15 13 13
4 3 4 4 5 7 2 3 7 5 2 1 2 4 1 2 4 4 4 6 3 2 2 2 2 3 4 5 3 3 11 15 14 16 12 12 14 13 13 16 18 19 17 16 13
3 4 3 5 6 8 4 3 5 5 2 3 1 0 2 3 4 4 5 2 2 3 2 1 2 2 1 2 2 4 6 7 12 15 15 15 16 14 15 10 15 15 16 15 15
3 1 3 5 8 9 4 5 5 3 6 6 3 5 7 6 4 4 4 3 1 3 6 2 4 2 1 1 3 6 6 9 7 7 8 11 8 12 10 11 13 14 15 15 15

GFSSW_925_spd_060.txt.gz
Wind_Speed
16 16 17 18 12 14 15 15 14 14 14 15 14 12 12 8 6 5 10 14 20 16 6 12 14 13 6 6 13 4 2 12 17 11 8 11 4 2 5 7 7 6 9 8 12
16 17 14 16 17 12 13 14 14 13 14 14 13 12 12 9 8 15 12 13 13 10 8 16 14 14 3 6 7 6 5 11 8 5 13 8 7 5 2 8 7 9 12 12 11
16 17 15 15 17 16 12 12 13 13 13 13 13 12 11 7 10 3 3 6 10 6 11 8 16 15 9 4 11 3 8 11 6 4 9 7 4 2 5 5 10 8 10 7 8
17 15 14 13 14 17 17 12 12 12 12 12 14 15 10 7 5 3 3 3 4 7 8 6 9 12 11 7 11 8 10 8 4 4 2 8 7 5 5 9 9 7 7 10 5
18 17 13 13 13 16 16 15 11 13 11 12 13 14 8 6 3 3 5 7 1 7 7 9 11 12 15 14 7 5 3 10 7 11 6 6 2 4 9 7 7 4 7 7 9
18 16 13 14 14 15 15 14 11 12 11 11 12 9 8 7 2 1 2 4 3 9 10 7 6 10 11 14 9 7 2 2 8 12 8 9 2 2 6 3 7 3 4 9 5
16 16 14 14 15 13 14 14 13 12 11 11 11 9 9 7 5 5 3 4 4 8 9 5 13 5 5 9 15 7 6 6 8 9 5 2 4 5 1 5 2 4 6 6 7
14 15 15 14 14 14 15 14 13 12 11 10 10 9 6 3 4 5 6 4 3 4 8 7 12 10 4 9 9 6 4 2 7 10 8 5 9 8 6 5 6 8 6 5 7
15 14 14 14 13 15 16 13 14 12 10 10 9 8 4 1 2 7 5 8 4 6 5 7 12 6 8 11 6 7 6 8 11 14 9 9 3 10 10 10 11 9 8 7 7
14 14 14 13 13 13 15 12 10 9 8 8 10 5 6 4 4 6 5 10 6 8 5 2 6 3 4 8 13 8 8 9 6 9 14 8 8 5 8 12 13 14 14 10 7
14 12 14 13 13 13 11 6 3 3 7 4 4 5 4 6 4 5 5 7 6 9 4 2 4 8 15 14 12 14 15 18 15 15 11 11 11 11 6 8 7 8 15 15 11
13 13 12 11 12 11 5 4 6 3 2 1 4 6 4 2 1 4 3 4 3 6 10 3 4 13 22 17 16 10 14 13 13 13 9 8 7 8 8 7 8 9 9 15 14
12 12 11 11 11 7 8 5 2 5 3 2 1 5 2 4 2 1 2 3 2 7 8 3 5 5 7 10 9 13 19 14 14 10 4 4 7 10 13 15 9 7 7 7 20
10 11 9 7 4 3 4 2 1 4 0 2 1 1 2 3 2 3 4 3 3 9 10 4 7 3 7 18 10 6 8 15 16 8 4 10 3 9 16 13 10 11 7 8 7
10 10 7 5 6 3 3 2 2 3 1 4 2 3 3 3 2 2 3 4 8 9 3 3 2 2 7 8 6 4 13 6 12 8 5 7 1 5 12 9 10 12 9 8 8
9 5 1 4 4 4 2 1 3 2 3 4 3 2 2 7 3 2 2 1 3 8 10 4 2 1 5 6 5 3 8 9 6 3 2 4 5 5 4 6 4 4 9 10 9
2 8 6 5 2 3 2 3 2 2 2 0 1 1 6 5 5 5 5 3 1 5 3 3 4 4 3 5 2 4 7 2 3 2 3 3 4 7 6 6 5 2 4 7 6
7 8 3 1 3 3 3 2 1 3 2 3 2 2 3 2 2 6 3 2 4 5 3 2 3 2 2 1 4 4 5 3 4 4 3 4 2 3 8 8 7 4 5 6 7
11 5 3 2 4 1 2 2 2 2 3 6 4 2 3 3 2 4 1 2 3 6 3 3 3 4 5 4 3 4 3 3 2 3 5 5 5 3 8 7 6 7 8 6 6
7 4 4 5 2 3 2 2 2 2 3 5 1 3 3 4 5 3 2 3 3 3 3 4 4 4 4 3 2 2 6 1 3 2 2 3 4 3 8 8 8 8 8 7 5
3 2 2 4 1 3 1 3 4 4 3 2 2 1 7 4 3 2 5 3 2 3 5 1 5 4 4 1 4 0 2 2 1 3 0 2 1 4 9 9 9 6 4 5 5
4 2 3 5 1 3 2 3 1 8 2 2 2 3 4 3 3 3 5 3 5 4 2 4 3 4 2 3 3 5 4 4 3 4 1 3 2 3 8 7 2 3 2 3 7
4 3 3 2 2 3 3 5 1 7 8 7 4 3 4 3 2 4 5 2 4 3 4 0 3 3 2 2 4 4 5 3 2 2 2 2 3 3 6 4 6 7 7 4 5
4 4 3 2 3 5 6 5 5 0 4 1 8 5 3 3 3 4 7 3 3 4 5 3 2 2 2 1 6 5 6 6 3 2 4 5 5 5 6 4 3 6 7 8 7
3 4 5 4 5 8 2 7 8 4 2 4 4 2 0 3 5 4 3 5 2 2 2 4 3 3 5 6 6 3 6 8 6 7 2 5 7 7 7 8 8 8 8 8 8
3 3 2 4 8 10 4 5 7 6 3 3 2 4 2 7 3 6 6 4 1 2 1 2 1 3 1 1 1 1 5 4 10 12 12 10 11 6 7 8 9 9 9 9 8
2 0 1 5 8 8 6 6 7 6 3 6 3 8 9 6 6 6 3 4 2 3 2 1 3 1 1 2 3 3 2 8 4 1 1 5 2 7 8 10 8 8 8 9 10

GFSSW_925_spd_063.txt.gz
Wind_Speed
16 16 15 13 14 15 13 13 14 13 13 14 15 13 14 12 11 8 10 12 12 24 21 10 15 17 6 4 6 5 5 6 5 4 7 7 5 0 1 6 5 4 3 6 30
17 17 14 12 13 15 14 12 12 13 13 13 13 14 14 12 12 16 17 15 13 16 18 14 8 8 4 7 5 6 6 7 2 1 10 8 7 6 3 6 4 9 10 9 18
16 18 16 12 12 14 16 15 11 12 12 13 13 15 17 12 5 2 6 3 10 7 9 14 14 7 4 3 5 9 7 3 1 4 5 8 4 4 7 4 2 9 10 7 5
16 18 17 11 13 13 15 15 15 12 13 12 13 15 17 6 3 3 5 6 5 3 9 7 3 6 5 8 4 5 9 11 0 1 2 6 6 4 5 5 6 8 11 8 4
16 17 15 12 13 13 14 14 13 11 11 11 12 13 9 3 4 2 4 7 4 5 7 3 4 7 6 8 3 8 4 11 4 1 2 7 5 6 8 7 7 8 7 10 6
17 16 14 14 13 14 11 13 13 12 10 11 10 12 4 4 4 1 3 6 5 4 5 1 5 6 4 6 10 6 8 5 9 7 5 5 4 4 4 6 6 8 8 8 7
15 14 15 13 13 13 10 13 13 11 11 10 8 7 5 10 3 4 5 6 5 4 6 9 7 5 5 5 9 10 10 6 8 7 4 5 3 1 1 6 7 7 7 7 9
14 13 13 13 12 13 12 15 12 11 10 9 7 5 5 2 3 2 5 2 2 1 5 5 7 4 4 2 6 7 1 5 5 5 3 4 9 5 5 3 4 4 3 7 6
13 11 12 14 13 13 12 16 12 10 9 7 5 4 5 3 0 12 5 3 0 3 7 5 3 3 5 5 4 2 3 3 4 3 4 2 2 8 7 7 8 6 6 6 7
12 11 11 12 11 12 15 12 7 7 5 4 8 4 5 3 1 4 3 3 3 5 2 4 4 4 2 6 8 8 7 5 7 1 3 3 6 4 9 9 9 9 9 8 7
11 10 11 10 10 8 11 4 3 1 3 4 2 3 3 3 2 3 2 1 3 4 2 2 1 5 3 3 8 10 9 8 5 8 5 14 12 10 7 6 8 7 8 9 9
10 9 9 9 8 7 4 1 3 1 3 4 5 6 12 2 3 2 2 2 2 4 6 3 9 5 6 5 4 10 12 5 7 11 10 9 11 8 7 5 7 9 8 9 7
9 7 8 6 7 1 5 5 1 4 1 1 2 4 1 3 2 3 1 2 3 5 7 4 4 5 1 3 7 4 7 7 9 9 6 7 5 7 8 5 6 8 8 7 10
7 6 5 3 1 2 2 4 1 3 3 3 1 1 2 7 2 3 1 1 4 4 5 4 6 4 3 8 6 5 13 13 10 7 4 5 3 6 15 10 10 9 8 9 8
6 5 3 5 1 1 3 2 2 2 4 4 4 1 4 3 2 1 2 3 7 9 3 2 8 6 15 10 6 7 17 14 12 5 4 2 2 6 6 11 12 12 9 9 9
6 5 6 7 3 2 4 3 1 4 3 5 3 3 3 6 2 2 4 6 3 9 9 6 3 3 5 2 12 1 11 9 3 1 2 6 5 5 4 7 5 3 8 10 8
5 13 10 8 3 4 5 2 2 4 3 3 3 2 4 4 4 5 5 3 3 4 4 5 5 5 2 2 5 4 7 3 2 3 3 2 3 7 4 4 6 8 6 7 7
14 13 10 4 7 6 2 2 5 3 4 4 2 4 2 3 1 4 3 4 3 6 3 2 3 6 8 3 4 1 3 4 4 3 3 1 5 4 3 5 7 7 5 7 8
16 12 4 9 8 5 2 1 2 4 4 3 2 3 2 1 3 4 2 4 5 1 4 3 4 5 1 4 3 2 4 3 5 3 4 3 3 4 3 7 8 8 9 8 7
14 10 6 8 7 3 1 3 4 3 1 4 2 2 1 4 3 2 2 3 2 3 3 3 5 5 3 3 3 5 3 3 3 3 3 3 3 3 5 8 8 7 6 7 6
9 4 4 7 3 1 2 2 4 2 0 2 1 1 2 3 5 3 2 2 2 2 4 3 3 1 2 5 4 5 2 3 4 3 3 2 4 5 10 9 9 5 3 3 4
7 3 7 8 2 2 2 3 4 4 2 1 0 2 1 2 6 4 3 2 2 2 2 2 4 3 2 5 4 0 1 1 3 3 1 3 3 3 7 7 7 6 3 1 2
4 3 5 4 3 3 3 3 3 5 2 4 2 0 2 3 4 6 4 5 5 4 2 3 2 3 3 5 2 2 2 1 2 2 2 4 3 2 5 4 5 7 7 6 3
3 4 2 2 2 2 5 4 3 2 4 3 3 3 1 3 5 4 3 2 4 3 4 3 3 5 5 3 5 4 4 4 4 2 1 4 2 4 7 8 7 7 6 6 6
3 4 5 6 4 5 1 8 6 4 3 4 3 5 1 3 5 4 4 3 4 3 4 3 3 3 3 4 3 2 5 7 6 5 5 3 2 5 3 5 3 2 5 6 7
4 4 2 4 4 6 1 4 7 4 3 4 4 4 8 4 4 6 5 2 2 0 2 3 1 2 3 3 3 1 3 4 7 4 5 4 5 4 3 2 6 7 7 7 7
4 3 4 6 5 5 4 3 7 7 3 6 7 7 7 2 3 5 5 4 4 5 3 3 4 3 2 3 3 4 5 4 1 2 7 7 2 2 6 6 7 6 7 8 9

GFSSW_925_spd_066.txt.gz
Wind_Speed
14 14 15 12 10 12 13 13 12 11 12 12 12 12 13 14 13 9 9 13 9 14 17 14 15 20 16 5 8 5 6 9 8 8 5 4 6 2 3 3 3 3 3 16 36
12 13 15 15 10 11 13 15 14 11 11 12 12 12 14 15 14 10 13 15 21 9 13 12 16 20 5 6 7 10 9 8 5 6 5 5 3 8 5 1 3 4 7 21 20
14 13 15 16 9 11 13 14 15 13 11 12 11 13 14 13 4 3 7 10 5 6 12 14 8 8 8 3 11 8 9 4 5 2 1 6 4 2 12 1 4 9 15 16 13
15 13 14 14 11 11 12 13 13 13 10 11 10 12 16 2 3 1 5 8 8 3 8 10 5 5 6 7 3 7 9 11 3 4 2 6 7 4 2 5 4 5 7 13 11
14 13 13 13 14 12 13 10 12 11 8 9 10 11 6 2 6 4 2 8 8 5 5 5 4 6 8 5 8 5 12 9 8 5 3 3 3 6 6 6 8 6 5 4 7
14 12 13 12 13 12 12 8 12 11 9 8 8 9 1 3 3 2 3 7 7 4 7 7 3 4 4 3 19 3 8 11 7 3 4 3 3 5 6 4 8 7 6 6 7
11 12 12 12 11 12 11 9 12 11 9 8 6 5 3 9 3 2 1 6 6 5 6 9 6 6 4 2 15 4 7 7 9 4 4 5 4 5 4 3 8 6 4 5 6
11 11 11 11 11 11 11 11 13 11 9 7 4 3 5 6 5 7 6 5 2 4 5 7 5 4 3 4 4 5 4 5 3 5 5 4 5 3 4 8 6 5 4 3 4
11 10 9 10 11 11 12 13 14 10 6 5 4 3 7 2 3 7 8 4 4 5 7 4 3 3 3 4 4 4 5 8 1 5 1 4 4 5 7 5 4 4 4 5 4
11 8 8 9 9 11 12 13 5 4 1 2 6 2 5 2 2 5 5 3 1 4 3 2 2 2 2 5 10 9 5 4 6 7 4 7 9 5 4 7 8 7 6 6 6
10 8 7 7 8 9 10 2 2 2 1 5 3 3 3 2 6 7 2 2 2 2 2 2 3 4 3 10 4 10 9 8 10 10 5 7 8 7 4 3 5 7 8 7 7
10 8 6 6 7 5 3 2 2 1 2 7 5 4 8 7 4 6 2 1 3 3 4 4 4 5 7 14 12 9 12 6 7 12 5 6 11 10 5 5 6 9 8 9 7
11 7 5 4 4 2 4 4 1 1 1 2 4 2 1 5 3 3 2 1 0 5 5 5 4 7 4 3 13 9 12 9 8 6 2 7 5 14 6 4 5 6 6 6 10
11 7 4 4 3 4 3 4 3 2 4 5 2 2 2 3 2 2 0 1 3 4 7 1 7 9 4 1 4 5 4 5 16 10 4 3 2 7 13 12 6 9 7 7 8
11 9 7 10 5 4 3 3 2 1 4 4 5 2 5 3 4 1 1 1 5 4 4 3 10 8 5 2 3 3 7 5 12 7 2 3 1 5 2 7 14 11 9 9 10
12 10 12 9 6 5 4 4 2 5 3 5 3 4 2 1 3 3 3 3 0 5 8 6 3 3 2 4 3 6 9 11 5 3 2 6 4 5 2 6 5 7 7 8 9
11 15 16 12 4 7 6 2 4 4 2 3 2 2 2 4 3 3 0 2 2 3 5 3 2 4 1 6 4 2 7 3 2 0 2 3 4 7 5 3 4 7 4 4 4
16 21 12 9 9 10 4 3 5 4 5 2 3 3 1 1 4 5 2 4 5 5 3 2 3 3 5 3 6 8 4 4 4 5 4 3 5 4 3 6 8 7 5 6 7
24 14 7 11 11 8 3 2 7 6 4 4 1 1 1 2 3 1 5 2 2 1 4 4 4 3 2 3 1 3 3 3 6 4 4 3 2 2 6 6 7 8 8 7 7
16 10 6 14 11 3 1 3 4 4 3 2 3 4 2 2 2 2 3 3 2 2 1 2 5 5 5 1 3 5 4 2 3 3 3 2 2 3 4 4 4 6 7 5 4
15 4 8 12 7 1 3 3 3 3 3 3 4 1 2 4 3 2 2 3 3 4 3 3 4 4 3 5 3 5 3 5 4 2 3 2 4 3 7 7 7 5 5 5 6
7 3 12 11 2 3 3 3 5 5 2 2 3 2 3 3 3 3 3 1 2 1 3 2 4 4 2 4 3 1 1 3 4 1 2 3 4 3 4 3 7 5 6 5 6
4 3 7 3 3 3 2 4 3 4 4 5 4 3 1 3 5 6 2 4 2 4 2 1 3 3 6 5 2 2 2 3 4 3 1 3 3 6 8 8 6 7 7 6 7
4 4 2 2 1 3 4 3 4 4 4 4 3 1 0 4 5 4 3 2 3 2 1 3 3 4 5 5 3 3 4 3 4 3 3 3 4 6 4 6 6 7 6 6 6
3 4 5 7 5 4 4 6 4 4 1 3 1 2 2 3 4 3 3 3 5 5 3 3 3 3 3 4 2 3 4 6 6 4 4 3 4 3 3 6 4 4 6 8 9
4 4 2 4 3 6 4 7 7 3 4 3 2 1 4 4 3 6 4 2 2 3 2 3 1 3 4 6 6 2 2 3 2 3 2 4 3 2 3 4 5 6 7 7 8
4 2 4 6 5 5 5 7 7 7 2 2 8 5 6 2 2 3 5 4 4 5 2 3 3 3 1 4 4 4 3 1 1 3 1 5 3 2 3 4 3 6 6 6 8

GFSSW_925_spd_069.txt.gz
Wind_Speed
13 14 12 14 14 12 11 13 15 15 12 12 11 11 12 14 15 12 7 12 8 12 10 16 15 16 18 6 5 4 7 10 9 16 9 4 5 2 3 6 1 25 7 12 30
15 14 15 13 15 12 12 13 14 15 14 12 12 11 12 14 16 9 9 11 13 17 10 7 6 8 9 11 7 9 9 15 6 4 6 4 5 8 5 4 4 3 6 31 26
16 15 15 13 13 11 11 11 13 15 14 10 11 11 12 14 4 5 2 6 6 0 5 8 12 7 12 10 9 14 10 12 13 3 3 5 7 1 10 4 5 19 22 20 25
15 14 14 13 12 12 12 12 11 12 12 8 10 11 13 1 4 2 2 6 5 4 4 4 8 5 7 16 8 10 16 12 12 3 3 3 5 4 3 7 9 7 13 22 19
17 12 13 13 12 13 12 12 10 10 11 7 9 9 6 2 7 6 3 5 5 4 6 4 7 15 17 18 7 14 9 14 5 5 4 4 3 6 3 0 12 12 17 13 12
18 11 12 14 11 11 12 11 10 10 11 9 8 7 1 4 2 3 4 6 7 5 5 5 5 8 6 8 11 11 11 14 7 5 1 3 2 1 4 0 9 10 11 15 11
18 10 11 12 13 9 10 10 11 11 10 8 6 4 2 10 4 3 3 5 6 6 4 4 6 5 7 7 6 7 8 14 8 6 4 5 3 4 2 5 6 8 5 8 11
17 11 12 12 10 11 10 10 11 11 8 7 4 2 5 5 5 6 9 8 5 6 2 3 6 5 5 3 5 8 6 10 3 6 2 3 4 3 2 8 7 8 5 6 8
14 13 11 10 9 10 9 11 12 10 7 5 2 3 6 5 3 5 5 5 4 2 1 3 4 3 8 6 5 6 1 6 5 8 5 3 5 2 0 5 6 4 3 4 3
15 13 11 10 9 9 7 10 3 2 1 3 3 2 5 2 1 5 4 5 3 2 1 0 3 1 2 2 3 8 7 7 10 6 3 5 5 2 6 3 6 5 4 2 1
17 12 12 9 7 10 0 2 3 1 1 6 4 3 4 0 4 5 4 1 1 2 2 2 2 4 4 3 8 10 8 5 6 7 1 7 5 6 6 7 6 5 4 4 6
19 13 13 7 7 7 6 3 2 1 4 8 6 5 4 6 4 5 2 2 3 3 3 1 1 6 3 5 7 10 10 5 7 9 6 1 5 4 9 9 7 7 7 7 4
20 13 12 7 6 9 8 5 3 1 1 3 4 3 3 2 2 2 2 1 1 2 4 2 3 7 4 5 9 11 12 11 5 6 5 3 2 5 9 11 8 6 5 5 7
20 14 13 9 4 8 4 7 4 1 4 4 2 2 4 2 3 2 2 3 3 6 4 2 7 9 5 3 13 7 12 15 16 8 2 3 4 3 13 14 6 6 5 6 6
19 15 14 16 7 5 9 9 4 2 3 3 4 3 4 2 3 1 2 3 4 3 2 2 6 6 6 6 2 3 7 9 10 5 6 4 2 4 4 6 10 7 9 7 7
20 18 15 12 6 6 12 10 5 5 4 4 3 2 1 3 2 3 2 2 0 2 4 4 4 2 2 4 4 8 19 11 6 4 1 6 4 4 2 4 5 5 6 6 6
22 20 20 12 5 13 14 6 4 4 3 2 1 1 1 2 2 4 1 1 2 4 2 4 3 4 1 4 7 7 4 3 3 1 2 4 4 5 7 6 4 2 5 7 7
23 22 20 10 14 17 9 4 4 4 5 1 2 2 2 1 1 3 2 2 5 4 3 3 2 3 1 3 4 3 2 4 4 2 2 2 4 2 3 3 5 7 7 8 8
27 21 13 11 16 15 5 3 6 6 4 4 1 2 4 2 1 3 2 2 2 2 3 2 4 3 3 2 3 2 2 2 6 2 3 2 1 2 4 7 9 9 9 9 9
21 12 10 16 16 9 3 4 3 5 3 3 3 4 2 2 1 2 2 1 1 2 2 3 5 6 4 1 3 4 5 3 2 3 3 2 2 2 2 4 6 8 8 8 7
15 4 10 16 14 2 3 4 3 3 2 4 4 2 2 3 1 1 1 2 3 3 2 2 4 3 3 4 1 4 2 4 4 2 3 3 3 1 5 3 7 5 6 7 7
4 4 16 18 3 3 3 4 5 5 1 1 2 1 4 3 2 1 2 1 5 2 3 0 4 5 2 2 2 1 1 3 4 2 2 2 2 8 9 6 7 7 6 6 7
3 3 9 2 3 3 2 4 3 4 4 3 2 3 1 2 3 2 2 4 4 3 2 2 2 3 6 5 3 1 1 2 4 3 1 4 3 6 7 8 6 6 6 6 6
2 4 2 1 1 2 4 4 4 4 4 3 3 2 0 4 4 3 3 5 4 4 7 4 4 4 5 4 2 2 3 3 4 3 3 3 4 1 4 6 5 5 6 6 6
1 3 4 6 5 4 1 5 7 5 1 5 2 2 4 2 3 1 3 3 5 7 4 4 4 3 5 3 2 2 2 5 3 4 4 5 7 4 4 4 3 4 6 8 9
2 3 2 4 5 7 3 5 5 4 4 3 5 3 4 5 3 6 3 3 1 5 3 4 1 3 4 5 5 3 3 3 2 1 3 6 3 4 4 5 5 6 7 7 7
3 3 4 8 5 5 4 6 7 8 1 3 6 5 4 3 1 3 5 4 2 2 2 3 4 3 2 5 5 4 1 1 3 5 1 5 2 5 3 4 4 3 5 5 6

GFSSW_925_spd_072.txt.gz
Wind_Speed
21 18 14 15 14 16 14 13 13 14 16 14 12 13 12 13 15 18 7 8 6 11 10 11 12 9 9 4 5 2 6 14 16 9 11 8 9 2 2 9 5 19 11 9 25
26 20 15 14 14 14 14 13 12 14 15 14 10 12 10 12 17 12 13 7 10 10 10 8 5 3 3 3 4 7 10 21 13 8 9 10 6 8 5 10 2 19 9 27 15
32 21 15 14 14 13 12 13 14 12 14 12 8 10 10 13 4 5 1 3 5 4 2 5 3 3 7 5 7 7 17 14 6 10 5 11 7 4 9 16 8 27 14 17 23
31 24 16 15 14 13 12 13 13 11 11 10 8 9 11 3 4 1 2 3 3 4 2 4 3 4 5 12 14 11 17 12 9 10 3 4 4 8 7 5 8 19 20 15 19
28 24 17 15 14 14 12 10 10 9 9 11 7 6 4 2 7 5 6 5 5 4 5 2 4 8 13 5 14 14 11 21 12 11 5 3 8 14 6 3 10 12 19 18 19
29 25 18 14 14 14 12 10 11 8 8 9 7 4 0 4 3 6 5 7 8 6 7 6 6 8 7 9 15 7 16 20 10 14 6 6 2 3 7 2 11 24 20 15 10
30 23 16 12 13 12 11 10 10 11 8 6 5 2 1 10 3 7 5 7 9 8 3 12 7 5 4 12 12 17 18 5 9 13 8 7 5 8 6 7 6 15 16 14 11
35 21 14 10 10 11 10 10 10 11 7 3 1 1 5 5 9 6 9 10 11 10 10 8 3 11 5 2 11 20 7 5 7 12 2 7 13 4 5 3 3 3 8 14 13
39 22 17 10 8 10 11 10 9 14 6 2 3 3 7 6 4 6 6 5 8 7 5 4 2 5 4 2 5 7 6 4 4 6 6 3 6 2 3 3 5 2 3 6 7
29 19 18 8 9 9 7 9 3 6 5 4 3 2 5 3 3 4 7 8 3 3 3 3 2 4 3 3 4 11 8 3 4 11 3 3 1 2 6 0 2 1 3 4 7
25 23 19 8 8 7 5 2 4 4 4 6 5 3 4 3 4 3 4 2 1 2 2 1 4 2 1 10 3 13 7 8 5 10 7 5 2 7 5 4 1 2 2 4 2
37 20 15 8 9 8 6 3 4 4 3 6 4 5 7 3 3 2 2 1 2 3 2 3 2 2 7 9 11 12 10 4 4 1 4 8 2 10 10 5 1 3 4 6 4
37 21 14 11 8 10 11 9 5 6 4 2 4 3 3 5 2 2 1 1 1 2 2 2 3 3 2 3 9 6 10 8 1 6 9 2 3 4 8 5 2 4 4 3 6
42 23 17 14 7 8 5 12 8 9 4 2 2 3 3 1 2 1 3 2 2 2 1 3 4 6 4 4 1 3 9 14 13 3 2 2 2 4 6 9 3 5 3 6 4
39 30 22 22 8 7 7 14 9 3 4 2 2 3 2 1 2 1 4 5 2 2 4 3 4 3 7 3 6 3 12 12 8 5 4 3 2 3 6 6 7 4 8 7 5
35 23 25 22 7 6 17 15 4 5 4 2 1 3 2 2 1 2 1 1 2 3 1 4 2 4 2 7 11 6 12 9 5 2 1 4 4 3 1 1 2 4 5 6 4
44 30 28 21 6 18 18 5 3 5 2 2 3 4 2 2 1 3 1 5 2 3 2 4 3 4 1 3 6 12 4 2 2 1 2 5 2 4 5 6 2 3 6 6 7
22 28 25 19 11 23 9 3 3 3 4 1 3 3 1 1 3 5 2 1 1 2 2 3 4 2 2 2 5 3 2 3 4 2 3 4 3 4 5 5 4 5 7 9 9
32 25 20 17 23 22 4 1 6 6 6 7 4 3 2 1 2 1 3 2 3 4 2 2 3 2 2 2 2 4 4 1 6 2 4 2 2 3 6 7 8 9 14 10 9
23 14 12 17 20 9 2 4 4 5 4 3 4 3 3 2 1 1 1 2 2 2 4 5 6 6 4 3 4 1 1 3 3 3 4 3 2 1 5 5 5 9 9 8 8
20 5 13 21 14 2 3 5 4 3 2 3 4 4 1 1 1 2 2 3 2 2 3 2 4 2 3 4 1 4 3 4 4 3 3 3 1 3 1 2 5 7 7 7 8
4 3 18 19 4 2 3 5 5 4 1 3 3 3 4 3 2 2 3 2 5 1 3 1 5 4 2 1 2 1 2 2 4 2 2 2 3 6 3 4 6 6 7 6 7
2 2 7 3 3 4 4 4 4 4 2 3 3 2 2 3 3 1 2 3 5 3 2 3 2 3 6 5 3 2 1 3 4 3 0 4 3 3 3 5 6 7 7 7 7
3 3 2 2 1 3 4 4 4 2 3 3 3 3 2 2 3 3 2 4 5 4 8 5 4 3 5 4 3 3 3 2 4 3 5 4 5 4 4 5 5 5 6 6 6
2 1 1 5 4 3 2 4 7 4 3 2 3 1 4 2 2 4 2 2 3 7 3 3 4 3 4 3 2 3 3 4 3 4 4 6 8 9 7 5 4 3 4 5 6
2 1 2 2 4 3 1 4 6 4 4 1 4 1 3 4 2 4 4 2 1 5 3 4 1 2 5 5 4 2 2 3 2 3 5 6 2 3 4 6 5 4 4 5 5
2 2 2 4 2 2 3 3 6 7 4 4 7 4 4 2 2 3 6 5 4 2 2 3 4 3 2 5 4 4 2 1 2 2 4 5 5 7 4 5 4 3 4 5 6

GFSSW_925_spd_075.txt.gz
Wind_Speed
25 27 24 18 13 14 13 13 11 13 13 15 13 8 10 10 13 15 6 6 3 8 10 9 8 3 1 3 4 2 6 12 21 20 18 11 12 12 3 5 5 15 6 8 23
24 26 23 19 16 15 12 11 11 11 13 14 12 7 7 9 14 12 12 6 7 6 5 4 5 1 2 3 4 7 6 17 15 16 11 9 12 14 8 10 8 14 3 20 33
25 24 27 21 16 14 11 10 11 10 11 11 11 6 5 8 3 5 3 2 2 4 2 1 2 2 4 4 5 5 16 15 12 14 7 8 4 3 7 10 10 20 15 12 17
26 27 27 20 15 14 12 11 12 9 8 8 10 6 6 0 3 2 1 1 1 1 1 1 3 2 4 9 11 11 16 15 7 13 9 15 12 8 9 12 10 18 15 17 20
28 28 29 23 16 11 12 11 9 7 6 7 10 3 2 1 7 6 5 5 3 4 4 2 3 4 9 5 11 17 17 9 15 17 13 8 10 12 16 11 13 15 17 15 19
29 31 31 24 14 10 10 10 8 6 5 9 8 3 2 3 4 4 4 7 6 7 5 7 5 4 7 11 15 5 17 10 12 19 12 15 9 3 15 7 14 16 17 13 15
25 28 26 23 16 9 7 8 7 7 6 10 7 4 2 10 4 4 5 6 8 9 4 9 11 8 5 6 13 15 11 9 13 16 14 10 14 8 4 6 11 18 17 14 13
28 30 20 19 13 6 7 6 6 6 4 8 5 3 6 3 4 7 6 8 8 11 13 13 12 5 5 6 8 15 11 11 13 19 13 13 16 4 5 5 13 19 12 13 17
28 30 29 15 11 4 5 5 5 6 5 5 4 2 8 3 3 3 7 4 8 10 11 8 4 6 7 6 1 11 7 15 10 18 6 13 5 3 5 2 8 5 4 11 14
25 31 32 20 9 8 4 2 3 2 3 4 3 3 6 2 2 3 5 5 3 4 4 4 4 5 4 3 3 6 4 8 6 8 9 5 1 5 8 2 6 5 5 5 6
26 28 33 17 9 8 9 5 4 1 4 7 5 4 2 2 2 1 2 0 2 2 2 3 4 7 6 3 2 5 9 6 1 6 9 7 6 4 5 2 1 3 5 3 10
29 26 29 12 10 10 9 3 4 2 4 9 2 6 7 2 1 1 3 3 2 2 2 3 6 6 2 6 8 11 17 7 4 2 10 10 5 9 2 2 2 5 5 2 1
26 23 21 14 12 11 12 10 2 2 3 1 5 5 3 5 1 2 4 1 2 3 4 5 5 5 4 4 11 7 10 6 5 5 10 3 3 6 3 4 2 2 3 3 6
26 24 28 10 9 9 5 12 10 3 2 1 4 4 3 3 1 2 1 1 2 3 3 5 2 3 3 3 4 6 3 12 13 3 3 3 2 4 4 4 2 3 2 4 5
24 27 29 19 11 9 4 12 12 3 2 3 3 5 3 2 1 1 3 4 4 3 3 0 1 2 3 2 4 2 8 9 7 5 3 2 1 4 4 3 5 2 4 6 2
28 35 22 17 11 9 15 20 7 4 5 2 5 4 3 2 3 2 1 2 3 5 4 1 1 2 2 3 3 1 10 8 5 2 2 2 3 4 4 1 4 2 4 4 3
40 33 16 24 9 21 22 7 3 3 3 4 4 4 5 3 2 2 3 2 2 3 3 4 3 3 3 2 2 3 3 2 2 2 3 3 5 5 10 5 3 5 6 10 8
34 28 16 23 29 28 13 3 3 3 6 2 4 4 4 2 3 4 1 1 3 2 2 2 3 7 4 2 5 1 2 3 4 3 4 4 5 4 4 6 10 13 12 11 11
18 12 24 22 28 27 4 2 5 6 5 7 4 4 2 2 3 2 2 1 1 1 2 2 3 1 2 1 3 3 4 1 6 3 4 2 4 5 7 10 11 12 11 8 10
22 16 11 27 22 13 2 3 1 2 2 3 4 1 3 2 1 3 1 1 1 3 3 4 5 2 4 2 3 3 2 4 3 3 4 1 2 5 3 6 7 11 10 9 10
19 4 12 18 16 4 2 3 1 2 3 3 3 5 3 3 2 1 2 2 1 3 2 2 2 2 3 5 3 4 3 4 4 2 3 3 2 3 5 4 10 7 6 8 9
5 4 15 23 3 2 2 4 4 3 1 2 5 5 4 2 3 2 0 2 4 2 2 2 4 4 1 3 3 2 1 2 3 1 3 2 0 2 3 6 6 7 6 5 6
3 3 8 3 2 3 2 1 2 3 1 1 4 3 2 4 3 2 1 2 4 2 2 2 2 3 7 4 1 3 3 4 4 3 0 3 2 3 6 6 5 6 5 5 6
2 3 2 2 1 3 2 3 3 2 3 4 5 4 4 4 3 4 2 3 3 2 8 4 4 2 5 3 1 3 3 4 4 3 3 1 4 4 5 6 5 3 4 6 7
3 3 2 3 2 1 3 4 5 3 3 4 5 4 4 3 2 3 2 4 3 7 3 3 4 3 5 6 4 3 3 2 4 2 3 4 7 7 9 7 5 4 4 5 7
2 2 1 2 3 2 3 2 4 2 2 3 7 2 4 4 1 2 3 3 1 5 4 4 2 2 5 6 5 3 5 2 3 2 2 5 2 2 4 5 4 4 4 6 6
3 3 1 3 3 0 2 3 4 6 5 5 8 6 6 1 3 3 6 5 4 3 3 3 4 2 1 4 1 4 1 1 2 2 2 3 3 3 3 4 3 4 4 4 6

GFSSW_925_spd_078.txt.gz
Wind_Speed
20 20 18 23 22 16 13 11 10 9 8 11 13 7 6 8 12 13 10 3 4 3 6 4 1 1 2 4 9 8 8 16 24 25 22 18 19 20 19 18 17 15 19 10 16
21 20 20 21 24 18 14 12 9 9 8 8 11 8 4 8 13 16 11 6 4 3 2 3 3 4 3 4 5 11 14 22 20 22 19 21 16 16 16 22 17 13 17 4 19
22 22 21 24 19 18 17 11 8 9 8 6 8 5 4 7 10 2 2 5 4 0 2 1 3 3 6 6 7 10 20 17 18 16 18 20 19 19 16 19 18 15 15 13 17
23 24 25 22 17 19 16 11 7 7 7 6 4 4 4 2 4 3 3 3 5 3 3 2 3 4 6 9 11 13 19 21 22 17 16 20 18 19 17 23 21 15 15 16 15
24 25 24 26 18 20 17 9 6 5 6 5 3 2 0 3 8 5 5 3 5 3 2 2 6 7 10 7 9 17 22 18 19 18 19 16 21 24 22 19 21 21 14 18 18
25 26 24 27 13 21 15 8 5 4 5 4 2 2 1 8 4 4 5 7 6 6 5 6 4 4 10 13 13 11 13 19 20 17 17 21 20 18 19 20 16 19 12 15 19
26 25 25 29 13 17 10 6 5 4 4 4 3 6 4 10 3 6 5 5 7 9 9 9 9 8 3 8 12 13 19 20 20 20 15 18 21 27 18 11 21 24 11 14 20
27 25 26 19 15 18 9 12 8 5 3 2 3 4 5 3 4 10 8 9 9 9 12 13 11 12 12 8 8 10 11 14 15 21 20 12 24 22 20 15 17 20 12 6 20
25 25 27 21 12 11 11 8 5 5 5 6 6 3 5 2 5 6 9 8 6 8 9 9 5 8 8 9 6 8 6 17 12 20 16 20 9 15 13 13 16 18 11 6 11
24 26 26 31 17 13 12 8 8 9 7 6 5 4 3 3 3 3 5 7 7 5 5 7 6 8 7 6 7 4 12 12 17 14 21 21 18 3 7 14 14 11 8 3 18
21 22 27 27 15 16 17 12 5 2 6 5 6 1 1 2 2 5 5 4 5 4 5 6 5 10 14 12 14 2 6 9 7 12 21 9 10 3 12 7 11 4 5 12 10
23 19 23 19 11 16 17 3 3 3 4 13 4 4 8 2 4 6 4 5 5 5 1 5 11 12 14 10 9 5 11 4 6 4 14 12 8 6 12 9 5 5 3 8 6
20 18 19 23 9 15 10 10 6 3 1 2 5 4 3 8 3 5 6 3 4 5 6 6 8 10 8 4 9 7 15 9 5 12 10 10 2 1 4 8 3 3 7 8 8
21 17 16 22 9 8 6 18 7 4 1 4 6 2 5 3 4 5 4 2 2 4 5 8 7 7 8 4 5 7 16 15 10 1 4 1 3 2 3 10 6 9 10 9 6
22 18 16 11 7 6 6 21 14 3 2 6 4 3 4 5 3 4 4 3 4 3 2 2 4 3 3 2 7 4 12 8 7 1 6 3 3 5 4 8 7 9 10 9 7
22 19 14 12 16 10 20 23 9 3 4 5 4 6 3 6 4 3 0 3 3 3 9 4 3 4 4 4 3 1 14 7 4 2 3 2 3 3 4 6 6 10 9 9 10
28 25 20 19 9 23 28 8 4 3 1 5 6 6 7 6 4 3 2 3 2 2 2 0 3 5 2 1 4 7 5 3 3 1 4 4 6 4 10 9 3 10 10 10 6
42 49 37 22 24 34 20 5 4 3 5 3 6 7 5 6 3 1 3 2 5 3 1 3 3 1 5 1 3 3 3 2 4 3 4 5 6 5 9 11 10 10 12 11 11
8 21 16 27 36 36 9 3 3 5 6 10 9 6 4 2 3 2 2 2 3 3 3 2 3 1 1 3 3 1 2 1 7 2 5 4 5 10 9 13 12 13 14 10 10
28 16 10 37 39 21 2 2 2 3 4 11 5 5 4 5 2 1 2 4 3 3 3 1 2 2 0 3 4 3 2 2 2 3 5 3 5 7 8 11 11 15 13 7 9
14 4 17 31 25 2 1 1 2 4 3 3 4 4 6 5 4 2 2 2 2 2 2 2 2 2 3 6 6 3 1 3 3 3 3 5 4 3 7 9 11 11 10 10 9
4 4 17 20 3 2 3 1 3 4 2 3 2 4 4 4 4 3 3 1 4 2 2 0 2 3 3 1 3 2 4 4 2 2 4 4 5 1 5 8 8 10 9 9 7
3 3 11 5 3 2 3 2 3 3 1 0 1 1 2 4 5 4 2 3 5 3 3 2 3 2 2 1 2 4 5 4 3 2 4 1 5 4 8 8 7 8 7 7 8
3 3 3 3 2 5 2 3 4 3 2 4 2 2 5 6 6 5 2 4 5 3 7 2 4 5 4 4 3 2 6 7 6 4 4 5 11 10 11 10 7 6 6 6 7
3 3 1 2 3 7 2 2 8 2 2 3 3 3 4 5 6 4 3 1 2 6 3 2 4 3 7 4 2 5 7 9 6 5 4 6 10 14 12 10 7 5 4 5 6
3 3 1 4 6 2 1 5 5 3 4 3 7 5 7 5 4 5 3 2 2 4 3 3 3 2 5 8 6 6 6 4 5 3 6 9 7 6 8 9 8 6 4 2 4
3 2 1 3 4 2 3 4 4 4 6 5 9 10 13 6 7 8 10 8 5 2 2 2 3 1 1 5 4 3 6 5 2 3 2 2 4 11 10 10 9 7 6 3 1

GFSSW_925_spd_081.txt.gz
Wind_Speed
21 21 20 20 18 14 21 14 12 9 7 7 8 10 8 8 10 11 12 2 2 4 4 6 5 3 5 7 12 10 7 16 25 25 19 21 21 20 18 18 20 24 23 16 3
25 24 24 23 24 20 22 16 12 7 7 7 6 5 6 8 13 15 11 9 5 6 8 8 7 5 5 8 5 11 14 23 21 20 21 22 23 20 17 21 21 23 21 20 14
24 22 23 24 22 20 19 18 12 8 7 7 5 3 5 7 12 2 4 8 6 3 2 3 3 6 10 9 11 10 19 20 18 21 20 22 22 20 18 21 18 19 15 11 14
24 24 23 23 23 24 18 19 14 10 8 8 4 3 5 5 3 4 5 4 6 2 2 4 6 9 8 14 15 20 20 19 21 23 22 17 19 24 20 22 20 19 18 9 9
24 26 25 25 24 30 19 20 13 9 8 9 5 4 3 5 7 6 7 4 5 4 6 6 7 9 14 11 15 20 19 20 22 20 23 21 20 22 22 22 18 22 13 10 7
25 25 27 26 29 30 20 19 13 9 8 9 7 6 6 8 3 4 6 7 9 7 8 7 6 7 11 15 17 17 18 19 20 21 20 21 23 21 23 22 19 17 19 22 15
23 24 26 29 33 36 21 17 11 9 8 7 6 7 6 9 2 5 4 7 8 10 11 9 10 9 7 11 17 15 18 20 23 18 21 17 22 26 26 20 18 24 16 15 14
22 24 26 30 28 32 20 14 13 9 8 6 7 7 5 3 3 8 8 8 11 11 13 12 13 14 15 11 18 17 17 16 12 21 22 19 19 26 22 20 20 16 17 17 19
21 23 24 30 33 7 16 14 12 9 7 8 9 7 3 3 6 6 7 8 8 11 14 14 14 15 12 11 10 11 14 17 18 18 16 20 20 22 16 23 21 14 16 14 10
21 21 21 26 29 14 17 16 10 9 8 6 1 4 5 3 6 3 3 5 9 11 11 12 7 10 9 10 12 11 8 14 16 15 19 22 20 2 5 9 15 16 16 15 7
22 22 19 22 19 18 21 16 5 2 9 8 5 0 5 5 4 4 4 5 10 7 11 12 7 11 17 18 19 11 14 14 11 14 18 23 19 14 5 7 12 16 15 8 9
20 21 19 20 18 7 15 2 5 4 5 15 5 6 4 2 2 5 4 5 8 11 11 6 13 17 11 13 17 16 14 16 14 11 11 19 17 13 2 7 9 12 11 9 9
18 19 17 16 23 16 14 7 7 4 4 5 11 5 3 7 2 4 7 4 10 12 11 13 12 10 10 10 11 13 17 13 6 12 15 14 3 6 7 7 4 5 1 3 11
17 17 14 11 4 6 7 14 8 4 2 8 8 5 6 3 0 3 4 4 4 8 7 10 11 10 9 7 9 11 12 10 7 9 4 11 6 2 5 8 4 6 5 5 10
17 15 14 9 3 2 6 14 11 6 5 9 7 6 5 4 5 5 5 5 9 6 1 2 7 6 5 4 10 3 6 8 3 2 8 7 4 3 7 6 8 6 8 6 10
19 16 12 8 12 10 8 13 5 4 4 5 6 8 5 5 4 3 3 4 7 4 9 9 8 4 5 9 6 12 6 7 8 3 3 2 3 4 4 5 5 6 6 8 13
25 22 15 10 3 8 12 8 4 5 2 7 7 7 5 4 8 8 6 7 4 4 2 3 1 4 3 4 5 3 6 2 4 1 4 2 5 4 4 5 2 5 6 11 13
41 33 25 19 10 13 16 3 7 6 3 5 9 11 4 8 1 2 4 3 5 6 3 4 1 3 1 4 3 5 5 4 2 3 4 7 5 4 5 3 9 7 11 12 13
8 38 24 24 15 24 4 5 4 3 6 11 14 7 5 7 5 5 4 0 1 4 4 3 4 4 5 5 5 4 2 6 3 8 6 3 5 7 9 9 9 10 13 13 13
27 20 14 22 23 17 1 2 3 1 6 14 7 6 7 8 9 8 1 3 3 2 2 2 1 3 4 4 4 4 7 3 1 2 5 5 10 6 8 10 9 9 12 12 10
18 5 17 28 24 3 2 3 3 4 2 1 2 5 5 6 3 3 2 1 2 4 1 5 1 2 3 6 7 4 5 1 1 3 2 4 4 6 9 11 12 11 12 11 8
7 5 21 20 3 1 2 3 4 7 2 3 2 2 4 3 4 4 4 2 5 3 4 5 4 4 3 1 1 4 10 7 4 4 4 8 4 2 8 10 10 10 10 9 8
4 4 9 6 1 1 3 6 7 4 5 2 2 2 1 3 4 7 5 4 4 4 6 5 4 1 2 3 2 6 11 11 3 3 5 3 7 8 11 9 9 9 9 8 8
3 3 3 2 2 3 7 8 6 7 7 3 3 4 5 7 6 7 7 4 3 3 4 5 5 6 6 5 5 6 12 14 7 6 8 7 12 13 11 10 8 8 8 7 6
4 4 2 3 2 9 4 7 8 5 3 4 3 2 2 4 10 7 6 6 5 1 1 3 4 4 8 6 5 7 10 12 12 11 8 7 10 11 10 9 8 7 7 6 5
3 3 2 7 5 4 3 9 7 5 7 5 7 6 7 9 7 6 4 6 5 4 2 3 2 1 4 6 5 9 9 7 9 8 7 8 9 7 11 10 8 7 4 1 2
2 2 1 4 6 3 6 5 5 1 7 9 7 9 12 11 11 11 11 8 6 6 5 3 2 3 2 4 2 2 9 7 3 6 6 2 4 8 7 7 8 6 4 2 2

GFSSW_925_spd_084.txt.gz
Wind_Speed
20 22 21 22 22 20 18 17 17 15 11 10 8 7 5 6 8 8 10 4 6 4 4 4 8 6 4 5 10 6 6 11 16 18 17 14 17 18 13 11 18 10 7 8 24
19 19 19 21 22 21 21 21 21 17 11 9 7 5 6 6 9 12 9 9 6 5 5 9 8 8 4 6 4 6 8 14 14 15 14 16 19 17 18 17 11 7 8 9 20
21 21 20 21 21 22 21 19 19 17 12 10 8 6 7 4 9 4 5 9 10 7 5 2 4 6 9 8 7 6 14 14 17 18 16 19 21 16 16 18 14 10 10 9 8
21 21 21 22 22 22 23 22 18 19 13 11 9 6 6 7 2 9 10 11 10 5 3 3 4 7 7 8 11 12 16 17 18 16 16 18 20 18 16 19 15 10 7 2 6
20 21 21 23 23 27 27 24 16 17 11 13 10 6 4 6 5 16 13 11 9 4 4 4 6 7 11 9 11 14 15 16 15 15 15 18 19 19 21 18 19 14 10 1 3
21 20 21 23 26 25 26 28 22 17 12 13 9 8 7 7 6 10 10 9 8 6 5 4 4 7 7 11 12 13 17 16 16 16 16 18 18 17 20 17 20 17 11 9 5
20 20 21 23 26 27 23 18 21 17 14 12 9 9 8 6 5 7 8 9 8 8 7 7 5 5 6 11 8 10 15 14 14 16 18 16 21 22 15 20 21 18 12 13 9
20 19 21 24 26 34 20 20 20 14 13 10 10 8 4 5 4 9 8 7 6 5 7 8 8 8 9 10 13 14 12 11 11 15 21 17 19 17 20 17 20 19 16 9 9
21 19 20 22 25 26 14 16 19 17 10 10 7 6 2 5 5 9 11 9 6 9 10 9 7 8 9 9 7 6 9 15 17 15 14 18 17 21 21 16 20 18 10 9 7
19 19 19 19 21 27 11 16 18 16 9 9 0 4 5 5 10 7 5 4 4 3 5 5 2 5 4 7 9 5 8 9 11 8 15 16 20 16 10 9 9 16 14 8 7
18 17 16 17 15 14 17 14 6 4 12 7 10 1 12 9 8 7 9 7 4 3 4 7 4 9 13 15 17 14 17 20 17 18 8 15 15 20 10 5 6 8 7 7 7
17 17 15 16 11 13 9 1 3 4 4 15 2 4 4 5 6 8 8 4 6 6 8 5 8 13 15 15 16 16 18 19 16 16 10 9 16 13 9 2 3 7 7 5 4
18 16 14 14 12 1 16 2 2 3 2 6 9 7 5 7 3 11 7 4 4 4 10 8 8 10 12 14 12 16 17 15 12 6 10 7 8 9 4 3 4 4 3 6 8
16 15 12 12 6 3 1 6 4 2 1 8 8 5 6 5 3 10 2 1 1 4 4 8 10 12 11 11 7 10 13 17 10 7 3 8 3 8 4 7 4 4 3 7 7
14 14 11 7 2 1 5 7 5 2 3 9 9 9 8 5 9 3 2 3 2 6 1 4 8 9 8 6 7 6 1 10 5 4 4 8 2 2 4 3 8 3 6 7 5
15 17 10 6 6 2 6 6 5 1 3 3 5 9 8 5 5 5 2 1 3 5 7 11 9 6 4 10 8 5 1 2 1 1 3 1 2 2 3 2 5 3 9 8 5
20 17 13 6 2 11 7 3 1 4 3 5 7 10 10 7 5 3 3 4 2 3 3 5 5 3 4 6 3 7 6 2 4 1 3 2 2 2 3 2 5 5 9 9 9
24 23 17 9 4 16 11 2 3 7 3 4 12 11 5 7 3 4 3 2 9 5 3 3 2 3 2 3 4 2 5 2 3 3 3 6 3 3 3 6 7 10 9 8 10
16 26 14 11 7 15 3 1 5 3 4 9 13 4 3 6 4 4 2 2 2 4 2 3 2 4 11 11 4 3 2 4 3 7 2 4 2 4 5 7 9 10 8 8 7
34 20 9 13 8 9 1 3 1 4 4 13 3 2 5 6 5 4 3 3 2 3 3 0 0 5 4 4 5 4 7 3 2 2 3 1 5 4 4 8 8 9 8 8 9
22 5 8 12 8 3 1 3 3 4 3 4 6 6 2 8 3 4 2 1 3 4 7 6 3 1 5 3 4 3 4 3 2 2 1 3 3 6 10 8 9 9 8 7 8
7 5 12 13 2 1 2 3 4 3 3 4 6 11 4 4 5 2 2 4 2 5 2 1 3 2 0 2 3 4 5 3 3 5 4 5 3 9 10 11 10 9 8 6 6
4 4 7 2 1 2 5 7 8 4 8 4 4 5 2 4 3 6 3 2 3 2 4 5 3 2 1 2 2 4 9 8 2 3 7 3 4 8 9 8 8 8 7 6 5
4 3 1 2 0 4 6 6 4 4 8 5 3 2 3 2 5 5 3 1 1 2 5 3 4 5 3 2 4 6 10 11 5 4 4 5 12 9 8 8 8 8 8 7 6
3 3 2 2 1 2 1 8 10 5 3 4 3 4 4 5 7 5 4 5 3 3 3 3 3 5 5 4 4 6 7 10 10 7 6 11 11 11 10 9 8 7 7 7 6
3 3 4 2 3 1 2 8 10 6 8 8 7 12 12 11 9 5 1 5 4 2 3 3 1 3 3 6 7 6 10 8 8 8 7 10 7 8 8 9 7 7 7 6 5
1 1 1 2 2 6 6 8 7 2 5 9 6 9 8 8 6 3 5 4 3 4 4 3 2 3 1 4 4 3 5 6 4 6 4 4 3 6 6 8 6 7 6 6 6

GFSSW_925_spd_087.txt.gz
Wind_Speed
18 18 17 18 18 18 18 18 16 15 18 12 11 9 7 5 7 8 7 5 11 7 4 3 2 3 3 1 1 2 2 2 4 6 7 12 16 14 9 7 10 4 5 5 21
19 18 18 16 18 18 19 20 16 18 20 13 11 8 4 4 7 14 13 9 10 7 7 4 2 5 1 1 2 4 3 4 5 7 10 12 13 13 11 17 9 15 5 15 24
19 18 18 18 18 19 19 21 18 20 20 15 12 8 4 2 3 4 7 13 8 8 6 5 3 1 3 1 4 4 5 5 12 15 13 12 15 8 12 12 8 9 16 5 8
20 17 18 18 19 20 21 23 21 14 20 17 13 8 6 3 2 5 11 11 10 7 3 2 2 2 2 3 5 7 7 9 12 15 15 16 13 16 14 10 13 13 15 7 7
18 19 19 18 20 20 22 18 24 19 20 17 14 10 6 3 6 16 14 13 11 7 4 1 2 3 4 2 6 4 6 9 9 9 10 12 14 17 20 11 15 16 17 5 2
17 17 17 19 20 22 24 26 21 22 24 21 15 11 2 4 13 18 17 13 10 6 3 2 2 3 2 2 2 5 9 9 9 12 11 13 17 12 13 13 17 17 15 10 9
18 17 17 19 21 23 27 25 16 17 25 19 17 13 3 5 11 13 14 12 9 8 3 3 4 2 5 5 4 7 8 13 13 12 9 13 22 19 13 14 17 18 16 13 14
18 16 16 18 20 24 32 11 21 26 22 18 16 7 3 7 11 13 11 8 6 2 1 5 6 3 0 4 5 5 5 3 1 4 8 8 23 18 11 11 19 19 15 13 14
18 16 15 17 20 25 20 20 18 22 22 18 11 3 2 8 9 13 12 10 10 8 7 6 3 4 3 4 4 3 4 7 8 3 5 4 16 8 16 15 17 15 15 13 14
17 16 14 15 16 17 10 23 19 15 17 11 8 2 3 5 8 12 11 6 4 3 2 2 2 1 1 3 4 4 3 5 8 3 11 15 21 20 17 8 19 13 13 13 10
15 14 11 12 12 11 12 10 7 1 5 4 10 3 11 15 12 5 8 6 3 5 5 4 2 9 10 9 7 5 10 15 18 16 14 14 15 17 11 7 10 8 5 4 6
14 12 10 10 10 10 1 1 2 0 3 6 6 2 10 9 5 5 13 5 5 5 3 2 9 11 10 9 9 14 17 21 17 16 7 10 17 14 6 8 8 5 4 4 4
13 10 7 6 9 3 5 3 7 4 3 5 4 3 3 3 6 10 8 4 5 3 6 6 4 6 4 6 13 17 15 17 16 11 11 11 9 5 5 0 3 5 4 2 6
11 7 3 5 3 3 6 3 8 7 2 4 6 2 4 3 3 8 5 1 2 3 1 6 3 4 6 10 9 13 12 16 16 7 4 8 3 2 2 5 7 8 6 6 7
8 3 2 2 5 1 3 4 7 5 3 5 6 8 6 1 10 2 1 2 3 3 1 5 2 3 9 7 6 7 13 10 5 6 3 3 1 2 6 3 5 8 6 7 5
7 6 3 3 5 4 5 9 5 0 4 3 3 6 5 3 3 3 3 1 1 2 4 7 3 2 4 8 12 11 5 3 2 1 2 3 4 1 2 2 4 3 7 6 6
11 8 7 5 3 8 8 3 4 5 3 4 5 7 6 4 3 5 4 3 3 2 2 2 3 2 3 7 2 1 3 2 3 2 0 0 1 1 5 2 6 4 6 7 10
17 14 11 8 10 12 2 4 7 2 2 4 7 8 4 8 1 4 3 1 4 1 2 3 4 2 3 4 3 4 3 2 1 2 2 4 3 2 5 6 4 7 5 10 9
33 23 11 10 8 4 3 4 3 3 1 7 8 3 3 4 4 2 2 0 2 2 1 2 3 4 8 6 3 2 2 4 1 2 2 1 1 1 6 4 6 8 9 8 10
27 17 8 8 6 3 4 3 1 2 4 8 4 5 5 5 3 0 2 0 1 2 3 1 2 5 5 3 8 7 4 0 1 2 3 2 3 3 3 5 7 9 9 9 8
11 5 6 6 2 3 2 3 3 3 8 4 3 4 6 4 3 3 2 1 3 2 6 2 2 5 2 3 3 3 5 3 2 2 3 2 3 3 6 8 8 9 6 5 6
6 5 4 3 3 2 1 2 7 6 7 2 4 4 3 4 3 2 3 3 7 3 3 6 2 3 3 4 4 3 6 1 4 5 4 4 3 4 8 9 9 8 4 5 4
3 3 1 4 2 1 4 4 3 4 4 4 2 3 2 3 4 3 3 2 1 2 2 4 3 3 8 5 6 4 7 4 2 3 4 4 2 2 7 10 10 11 7 5 5
3 3 2 1 1 2 3 2 2 4 4 3 4 2 1 3 1 3 1 2 1 1 3 1 3 3 4 5 4 5 8 12 4 4 1 1 8 6 6 7 6 6 5 6 6
2 2 3 2 3 5 2 3 3 4 5 6 6 5 2 4 4 3 1 3 2 2 2 4 2 3 4 1 4 5 5 10 9 2 4 6 3 5 7 8 6 7 7 7 6
3 3 1 3 2 2 4 4 4 4 6 6 5 6 10 5 4 3 2 3 0 5 2 3 1 2 4 3 5 3 9 8 8 8 8 6 3 7 7 6 7 8 7 6 5
4 2 3 5 4 4 5 5 5 2 5 4 1 5 7 6 5 6 2 1 2 1 3 2 3 3 3 3 3 5 4 4 3 4 1 2 2 5 4 7 7 7 7 7 6

GFSSW_925_spd_090.txt.gz
Wind_Speed
17 16 16 17 15 14 16 16 16 15 16 19 14 12 7 5 5 5 5 5 6 7 5 4 3 2 3 3 3 2 1 3 4 3 4 6 7 1 3 5 5 4 5 10 4
19 18 12 14 15 16 16 18 18 18 13 17 17 13 7 6 5 8 5 4 11 9 9 3 1 2 2 1 1 3 3 7 5 2 4 8 8 10 7 11 6 2 8 17 6
20 19 15 14 14 13 16 16 19 18 17 18 19 15 10 7 1 5 9 12 10 8 7 2 3 5 1 1 2 3 4 4 4 8 8 7 13 6 7 13 4 12 11 8 18
21 18 16 15 14 15 16 17 19 17 18 21 21 14 12 8 3 3 9 15 11 9 5 2 3 4 2 3 2 4 6 4 3 6 7 9 8 11 11 10 9 9 9 5 11
20 18 16 15 13 16 17 17 18 17 18 14 22 18 12 2 5 10 14 14 13 8 4 2 3 4 3 2 4 4 4 5 6 7 7 11 13 9 15 11 9 11 14 7 8
19 15 12 16 16 17 21 21 22 22 19 18 22 19 7 4 4 18 17 15 12 7 4 3 2 2 1 2 2 4 4 6 4 10 9 11 16 4 6 14 18 15 15 9 7
17 16 12 14 17 20 23 27 28 22 25 27 23 17 3 4 18 18 16 13 10 7 3 7 5 4 2 3 4 5 7 8 11 8 6 7 15 12 14 12 19 21 15 11 8
16 15 14 15 16 21 27 28 17 16 23 31 22 8 3 7 15 18 13 9 7 4 4 6 6 4 3 2 6 4 4 4 5 1 6 7 14 11 13 13 17 18 13 11 14
16 14 13 12 13 18 25 4 17 28 28 26 13 7 1 13 17 17 15 8 7 5 3 1 2 2 1 1 4 3 4 5 6 6 5 6 10 6 9 14 16 15 14 9 11
17 12 11 10 11 14 15 19 24 26 23 15 7 6 1 6 11 14 12 8 3 4 2 3 3 1 1 3 4 6 6 6 7 5 10 13 20 20 15 10 15 9 11 11 8
14 11 9 6 8 8 4 9 4 6 2 3 8 3 4 13 16 8 12 7 4 2 3 3 2 9 12 9 5 3 4 13 17 13 14 16 15 18 14 10 9 9 9 7 9
11 8 5 4 5 4 5 2 4 2 3 8 7 10 17 12 7 4 12 4 3 4 2 2 9 11 7 7 8 8 14 19 17 13 5 10 17 20 14 7 5 5 7 8 5
8 5 3 2 3 6 5 7 5 2 4 5 4 7 4 6 5 8 8 2 3 3 6 6 5 3 7 6 8 11 13 16 13 13 11 12 11 6 3 2 7 6 5 4 6
3 2 3 1 3 7 2 6 7 2 3 4 5 3 3 1 5 8 7 2 2 6 4 7 6 5 7 8 10 12 4 12 8 7 3 4 4 4 5 4 6 9 10 10 5
6 6 5 4 6 3 5 10 9 1 4 1 3 6 3 2 9 2 2 3 3 3 3 6 0 4 5 5 6 7 8 9 5 4 3 4 4 4 5 3 6 9 10 6 7
14 12 6 5 3 3 4 9 4 4 5 4 2 3 4 2 2 3 2 2 1 3 4 8 3 4 4 3 10 10 9 3 4 2 3 4 4 2 4 5 5 7 8 9 7
18 12 9 4 1 4 5 0 4 5 1 4 5 5 3 3 3 3 3 2 4 2 3 3 4 3 3 5 1 5 1 2 2 1 2 2 4 0 7 7 5 2 6 8 10
19 16 12 11 8 6 3 4 8 2 2 2 5 7 3 6 2 4 2 3 6 2 3 2 4 3 4 4 2 4 3 2 3 1 1 2 1 1 7 4 4 6 6 8 11
23 18 14 8 5 6 4 5 3 2 2 6 6 3 2 2 3 3 3 2 4 4 1 2 3 4 7 5 2 1 3 3 2 1 3 1 1 2 4 5 7 8 10 11 8
11 7 7 8 5 5 3 5 3 4 2 5 3 4 4 4 2 1 4 2 2 3 2 2 3 5 3 3 9 6 2 2 2 1 2 3 2 4 2 3 7 8 8 7 8
4 3 7 12 8 3 4 4 2 5 1 3 2 4 3 4 4 4 3 2 3 3 4 2 1 5 1 4 4 1 4 4 1 3 1 2 3 3 1 3 5 4 5 6 5
4 3 10 18 4 2 2 2 4 5 4 4 2 4 5 7 4 3 2 3 6 3 3 5 1 3 5 4 3 3 5 3 3 1 2 3 2 3 4 7 7 5 5 6 4
2 0 5 8 4 3 3 3 4 3 2 0 2 1 4 5 4 2 3 4 6 4 2 2 2 4 8 5 5 4 6 4 2 3 1 4 3 3 5 4 4 4 4 4 4
2 3 4 3 1 2 4 4 5 6 3 3 2 1 2 3 1 3 1 1 2 1 4 2 2 3 4 4 3 6 9 10 3 4 1 2 4 3 4 5 5 4 4 5 4
3 1 2 3 4 2 2 3 5 7 6 9 7 6 1 3 3 3 2 2 1 3 1 2 1 3 3 3 2 3 5 10 8 0 3 5 6 8 9 8 7 5 4 4 3
3 3 2 2 3 2 6 6 6 4 6 5 5 7 9 5 3 4 5 3 1 4 3 3 1 2 3 2 4 3 8 8 6 7 6 3 2 3 3 5 6 7 7 6 5
2 2 3 4 3 3 3 2 5 2 4 4 2 2 6 3 4 5 4 3 1 1 2 2 3 3 4 5 5 4 3 2 1 3 1 2 4 4 3 6 7 7 7 6 6

GFSSW_925_spd_093.txt.gz
Wind_Speed
20 20 19 15 13 14 13 13 14 15 14 14 13 16 10 6 5 4 4 3 4 5 4 2 5 5 6 3 3 3 2 3 4 5 3 5 6 4 4 4 4 3 2 6 10
20 20 20 18 13 14 13 14 16 15 17 15 12 17 11 6 4 7 3 8 6 7 5 4 3 3 3 2 2 3 3 6 4 1 2 5 4 5 4 6 3 4 9 18 21
20 21 21 16 15 15 12 14 14 17 17 18 12 16 11 8 1 5 10 9 12 7 6 3 2 3 3 2 1 2 4 4 3 5 4 4 7 3 4 7 5 7 7 9 15
20 20 21 19 14 11 12 15 16 17 17 18 10 17 11 8 4 1 10 14 11 6 6 3 3 3 3 0 2 2 4 3 3 5 4 6 4 7 10 9 6 7 7 5 9
21 20 21 16 13 12 14 14 18 18 17 17 11 22 14 2 5 9 14 14 11 9 5 3 3 3 3 1 3 1 3 5 7 7 8 8 10 11 12 13 13 7 7 9 9
20 19 17 15 13 14 16 17 18 20 19 15 13 28 8 4 9 15 17 16 13 9 6 5 3 2 3 2 2 4 4 7 5 9 8 12 17 5 3 12 18 16 13 8 10
17 17 15 15 14 15 17 21 24 25 23 16 28 22 3 2 12 19 17 14 10 9 6 9 4 5 1 2 3 5 7 7 6 7 6 6 13 9 12 10 13 16 15 13 10
16 16 17 16 14 16 19 24 33 25 25 21 28 11 4 1 20 19 13 13 8 8 13 9 9 5 3 0 6 5 3 4 6 3 5 7 15 15 12 8 13 12 15 14 9
17 14 17 15 10 14 21 24 10 13 23 22 23 11 5 8 14 16 14 10 11 9 7 7 4 3 3 3 4 4 4 4 7 3 5 6 10 7 7 10 16 17 14 13 10
13 13 12 9 7 10 13 21 25 33 30 23 16 9 1 8 9 13 10 13 5 6 4 5 4 3 3 3 3 4 3 4 6 4 5 13 22 24 15 9 13 13 13 12 9
11 9 6 4 5 8 10 11 4 6 10 4 9 5 12 10 15 6 11 8 4 5 2 1 4 5 8 6 1 2 3 10 12 14 11 14 19 21 14 6 11 12 9 11 12
8 6 3 1 4 1 14 2 9 6 13 12 10 5 16 20 7 4 12 4 3 2 3 3 5 6 5 4 5 8 13 16 13 7 3 10 16 19 19 8 6 7 8 9 6
3 3 1 3 3 5 13 8 2 4 6 8 8 14 3 13 4 5 4 4 3 3 4 4 4 5 3 4 7 9 13 16 11 9 12 11 9 5 3 2 6 7 7 10 6
4 4 5 3 5 4 3 7 3 7 5 3 4 3 3 3 5 4 4 3 2 6 4 5 4 3 7 8 10 12 7 12 14 5 3 1 4 3 4 3 6 8 9 10 10
8 8 7 3 7 4 4 4 0 3 5 2 2 4 2 4 10 2 3 3 3 2 3 5 2 2 5 7 8 7 5 10 14 5 3 4 2 5 4 5 7 8 10 11 8
14 10 8 7 11 7 7 7 0 3 5 3 2 2 4 3 2 3 2 3 2 0 2 6 3 3 5 6 10 8 10 13 3 3 2 3 4 4 4 5 6 8 10 11 11
15 11 11 9 3 4 5 0 3 6 2 4 4 3 4 3 3 2 3 2 2 2 3 4 5 3 7 6 4 5 3 3 1 1 4 1 2 3 7 8 5 7 8 10 10
19 22 20 16 9 5 4 3 9 3 3 3 4 3 3 3 2 2 3 1 3 2 3 2 5 5 6 6 2 4 2 2 4 1 2 1 2 2 6 6 5 7 7 9 11
13 14 17 15 13 12 4 6 2 2 2 5 4 4 3 2 4 2 1 1 4 9 3 2 4 3 7 5 3 1 3 2 4 2 1 3 1 2 4 7 7 8 9 9 9
10 6 7 14 18 5 5 6 3 2 3 1 3 2 3 2 2 1 4 3 3 6 3 2 4 4 1 4 6 3 4 2 2 3 2 2 3 3 3 3 5 6 7 6 5
6 3 8 20 5 5 5 4 2 3 1 2 1 3 4 4 2 1 3 3 2 3 2 2 1 4 1 4 3 2 2 4 2 2 2 2 2 4 1 1 3 5 5 3 4
3 3 15 19 4 3 3 2 3 2 2 2 1 3 4 3 3 2 4 4 6 5 4 5 1 4 6 1 2 3 3 3 2 2 1 1 2 5 4 4 3 6 5 2 2
2 2 6 5 4 4 2 1 1 3 1 3 2 2 2 4 1 4 4 4 7 4 3 2 1 4 7 5 4 3 4 4 2 2 1 2 1 3 4 4 4 5 5 6 4
2 3 4 4 1 2 4 4 4 3 2 3 4 2 2 2 2 1 1 2 3 3 3 2 1 3 4 4 3 6 9 7 1 3 2 2 2 2 2 3 3 2 3 3 3
4 1 2 3 4 3 2 3 4 6 5 7 4 5 2 3 3 4 3 4 1 3 2 2 1 0 3 4 2 2 5 9 6 1 2 3 1 4 6 6 5 4 3 3 3
3 2 3 2 3 4 6 5 4 3 5 5 4 5 5 4 2 2 2 2 1 4 1 2 1 0 3 4 6 4 5 5 4 3 5 3 0 2 3 4 4 6 6 5 4
2 1 3 5 5 3 4 4 5 2 1 2 2 2 5 2 4 5 5 5 4 1 1 2 2 3 4 4 5 4 3 2 2 1 1 1 1 4 3 6 7 7 7 6 5

GFSSW_925_spd_096.txt.gz
Wind_Speed
16 16 17 16 15 12 13 13 11 13 15 19 17 14 16 10 5 3 4 2 7 8 7 6 7 7 7 3 4 2 4 2 3 5 2 3 6 5 4 4 3 4 2 7 18
16 16 17 18 18 12 12 12 12 12 13 15 18 16 15 10 4 5 3 9 6 7 8 8 4 5 4 2 3 4 3 6 2 2 2 5 1 3 3 5 4 7 7 19 22
17 16 17 18 18 17 13 12 11 13 13 14 16 18 12 7 0 3 11 9 10 6 8 8 7 3 4 3 2 2 4 2 2 3 5 3 5 4 3 5 8 5 6 8 19
15 14 16 17 18 16 13 11 12 12 12 13 13 12 16 6 4 2 13 13 12 7 6 8 4 4 3 3 2 1 1 2 3 6 5 5 4 6 8 7 7 9 7 7 9
13 15 16 14 14 13 11 10 11 13 13 13 11 17 18 2 4 7 16 14 10 7 5 4 4 3 4 3 1 2 3 5 6 7 7 7 8 9 10 10 15 11 7 8 9
15 14 14 13 12 9 12 12 12 14 13 15 15 18 9 5 4 13 18 14 10 8 7 5 3 3 4 3 2 2 3 6 5 9 6 11 10 3 3 8 14 14 16 9 10
14 13 12 11 11 9 12 14 15 18 16 16 13 20 2 6 7 16 16 14 10 13 6 7 7 6 1 3 3 3 5 6 4 3 4 3 5 6 10 8 9 10 11 10 9
13 12 13 12 9 8 11 16 17 23 27 19 13 6 4 5 18 16 18 17 15 17 17 12 13 6 3 1 5 4 3 4 4 4 3 8 8 9 9 4 9 11 12 14 16
11 11 12 10 6 6 11 16 28 13 15 18 12 5 7 7 9 14 16 11 16 13 12 8 6 3 4 3 4 5 2 3 7 2 2 1 11 5 8 13 16 15 15 13 15
7 7 7 4 4 6 12 9 24 19 21 16 9 6 2 6 5 9 14 13 6 7 5 5 5 3 3 3 2 1 3 4 5 4 5 11 23 22 16 10 15 13 13 13 14
2 3 5 4 3 7 9 9 5 5 11 6 4 7 13 18 11 8 11 9 4 6 3 3 4 2 5 4 4 4 1 5 10 14 11 12 18 20 15 8 8 11 12 11 12
6 6 4 6 2 10 10 6 6 2 10 16 12 15 21 10 8 4 6 4 3 3 3 5 1 3 3 3 2 1 8 11 12 8 4 10 19 17 9 5 3 6 9 10 11
10 8 7 6 10 15 13 7 5 5 6 9 13 13 7 11 5 2 3 2 4 3 3 3 1 4 2 1 1 4 8 8 9 10 10 9 7 5 3 3 6 6 9 9 8
12 12 8 7 5 4 4 4 3 5 5 6 6 4 5 6 5 3 3 2 2 4 4 3 2 2 1 2 4 8 7 12 14 8 3 3 5 5 4 3 6 6 10 10 10
15 13 10 7 5 4 2 3 4 3 6 3 3 2 1 4 9 4 4 3 3 3 3 4 1 1 3 5 9 6 2 8 12 13 6 4 3 5 4 6 9 6 9 8 9
13 10 6 11 12 4 1 2 3 4 6 4 2 3 4 4 3 3 3 5 2 2 1 5 2 5 4 6 9 6 9 12 12 4 3 4 4 4 2 5 7 4 8 10 10
14 15 18 9 3 6 3 2 4 6 3 4 4 4 4 3 4 3 2 1 2 1 3 2 4 2 3 4 4 6 2 3 4 1 4 3 4 5 5 7 8 5 6 8 9
15 16 17 18 14 9 3 4 10 2 6 2 4 4 5 2 3 2 3 0 3 1 1 2 6 6 6 5 2 4 2 2 4 2 3 4 3 2 5 5 5 5 6 7 9
10 11 13 15 17 6 3 8 3 1 3 5 3 5 3 2 5 1 2 1 4 7 1 2 4 2 5 2 1 2 3 2 4 4 2 2 3 2 2 4 6 6 6 7 8
12 5 7 23 9 2 5 9 4 2 3 2 3 1 2 0 3 1 1 3 0 4 3 2 4 3 1 3 5 3 3 2 2 3 3 2 2 4 6 3 4 4 5 7 8
4 3 13 21 7 5 7 5 3 1 1 1 2 4 3 2 2 2 0 3 2 2 4 1 2 4 1 5 3 4 2 3 2 2 2 3 2 6 5 2 3 4 3 8 8
4 4 22 15 5 3 3 3 2 3 1 1 1 3 3 3 2 1 2 4 5 5 3 4 2 4 6 1 2 0 1 2 2 3 1 1 3 6 4 1 5 2 5 5 4
3 1 11 9 4 3 3 3 3 4 3 1 1 2 2 3 2 2 3 3 6 5 3 3 1 4 6 4 4 3 3 3 2 2 1 1 3 2 3 4 5 4 3 3 3
3 4 4 4 1 3 4 4 3 1 2 2 3 3 2 3 1 1 1 1 5 4 2 2 1 4 4 5 1 5 5 4 2 2 2 3 2 1 2 3 4 4 4 5 4
4 0 2 3 4 3 1 4 4 6 6 8 5 6 2 3 2 2 3 4 2 3 2 2 3 2 6 7 3 4 4 5 2 2 3 4 4 5 6 7 6 5 4 3 5
3 3 2 1 2 5 8 7 7 5 6 5 5 5 6 3 1 2 1 1 2 3 2 0 2 1 4 3 3 5 6 3 1 1 2 3 4 3 3 3 4 7 6 6 5
3 2 3 4 4 4 3 4 6 3 1 2 2 1 3 1 5 6 5 3 4 3 2 0 1 2 5 4 6 6 5 3 2 4 4 4 3 3 4 7 7 7 7 7 6

GFSSW_925_spd_099.txt.gz
Wind_Speed
15 14 13 13 13 13 10 9 8 8 10 10 12 13 16 13 7 4 4 3 8 8 7 8 8 9 9 4 4 2 3 2 3 5 1 2 5 2 2 4 3 3 3 9 20
17 16 14 12 13 13 12 11 7 8 8 8 9 9 13 13 6 6 4 9 12 10 10 8 4 5 4 3 3 3 2 5 2 2 2 5 1 4 4 4 5 8 11 11 22
15 15 14 13 13 13 13 12 9 7 7 6 9 7 12 10 2 1 11 13 11 9 10 8 9 4 4 3 2 2 3 4 1 2 4 4 7 3 4 5 7 5 6 11 14
13 12 12 13 13 12 10 11 12 9 7 6 8 6 13 11 3 3 12 12 13 12 11 10 4 4 4 3 1 3 2 2 1 2 2 3 4 6 10 10 11 15 11 7 14
14 13 13 12 10 8 7 7 7 9 6 4 6 5 10 3 2 4 11 17 11 10 7 4 4 4 5 4 2 1 1 2 2 8 6 6 11 10 11 15 15 16 14 12 11
13 10 9 10 9 6 5 2 8 9 5 3 7 12 6 6 6 12 17 14 10 10 6 5 3 4 6 3 3 1 2 5 6 5 5 6 5 1 9 6 9 12 14 13 12
14 11 10 9 7 5 2 6 7 13 7 5 6 11 5 6 12 17 13 13 14 15 6 7 8 6 3 3 1 1 4 6 2 2 4 4 4 7 10 8 9 10 11 13 13
11 6 7 6 4 3 2 6 10 14 14 11 7 6 5 11 19 17 18 18 19 21 20 13 13 7 4 3 5 4 3 4 2 5 2 5 7 5 9 6 12 14 16 14 16
8 2 2 2 2 2 4 7 10 18 15 12 6 7 5 18 12 22 17 15 18 17 15 11 7 4 4 3 4 6 1 2 7 2 2 1 11 10 11 14 18 16 14 15 15
10 6 8 7 5 2 3 6 12 24 24 17 10 6 4 5 9 14 19 14 8 7 6 6 5 3 3 3 2 1 2 3 5 2 2 13 19 17 14 12 16 15 14 14 15
11 11 11 8 8 6 4 13 5 6 14 5 11 4 11 14 11 10 11 15 5 6 3 3 4 2 2 3 5 5 1 5 5 9 6 9 15 17 16 8 7 7 8 11 11
14 14 11 9 11 10 16 7 3 5 11 15 15 12 16 12 10 5 5 4 4 3 2 4 3 1 4 4 3 2 4 6 8 5 4 10 18 16 6 2 2 8 9 10 10
15 13 10 12 12 19 17 13 8 9 6 6 7 6 4 9 6 4 3 3 4 3 2 3 5 5 3 2 1 3 3 2 6 8 8 8 8 3 2 2 6 7 8 9 9
14 10 6 5 5 4 9 7 4 2 4 8 6 3 1 5 6 3 3 3 2 4 5 1 1 2 2 3 4 2 5 9 9 7 4 3 5 4 2 5 4 6 8 10 11
14 14 13 7 4 5 6 3 4 2 6 5 4 3 1 3 9 5 5 4 3 4 4 5 5 3 2 4 5 6 5 6 9 9 7 4 4 4 2 3 9 6 8 8 8
15 8 6 11 14 6 4 4 2 4 7 3 3 6 4 4 4 3 3 5 1 2 0 3 2 3 4 3 7 6 5 9 11 5 4 3 3 3 2 5 8 5 6 7 8
15 14 14 8 2 3 3 3 5 7 2 4 4 2 5 3 4 2 2 1 2 3 4 2 2 2 3 3 4 5 3 3 2 2 5 5 4 5 3 6 8 3 5 7 8
12 7 8 12 10 4 3 3 9 5 5 2 2 4 4 3 2 2 2 1 2 3 3 4 5 5 4 4 1 4 2 1 3 2 3 5 4 2 2 5 5 6 5 6 7
11 4 4 22 9 2 3 8 3 2 3 6 3 4 2 2 5 1 1 1 2 5 3 2 4 2 5 3 2 3 2 2 3 3 3 2 2 3 1 2 7 7 7 7 8
6 7 9 22 8 2 4 9 4 1 2 2 2 2 3 4 4 4 3 1 0 4 3 1 4 3 2 3 4 2 2 1 1 3 4 2 2 4 7 5 3 4 5 8 8
4 4 18 9 13 6 7 5 4 3 1 2 2 4 3 2 3 2 2 2 2 3 4 1 1 5 1 5 5 3 2 2 2 2 2 4 1 5 5 4 4 1 5 6 7
3 4 21 6 5 2 4 3 4 4 2 2 3 3 3 2 2 1 2 4 5 5 3 2 1 4 6 2 1 2 3 3 2 2 2 1 3 4 3 4 3 5 7 5 2
3 2 11 9 5 3 2 2 2 5 4 5 4 3 1 3 2 0 1 1 6 4 4 3 2 4 5 4 3 2 1 2 1 2 3 2 3 3 3 5 5 6 6 4 3
3 4 5 4 2 4 4 5 4 4 4 3 3 3 2 3 2 2 3 1 6 4 4 4 2 5 5 5 2 4 2 0 2 2 2 4 3 4 5 6 7 6 5 4 4
4 0 1 3 5 5 2 4 4 5 4 5 4 4 0 3 2 2 2 4 2 1 3 3 3 3 6 7 3 5 6 3 5 5 4 3 5 6 8 9 8 6 4 5 5
3 3 2 1 3 3 6 6 6 4 4 5 5 3 3 3 3 2 1 2 2 3 2 0 2 1 5 3 6 6 7 7 6 3 5 4 6 6 4 3 4 7 6 6 6
4 3 3 4 3 3 2 3 3 1 1 1 1 1 2 2 4 5 5 2 3 1 1 1 1 3 5 3 5 6 7 8 5 4 5 6 6 4 5 7 8 8 7 8 7

GFSSW_925_spd_102.txt.gz
Wind_Speed
12 14 14 13 10 10 10 9 7 4 5 7 3 4 3 14 9 4 5 1 7 11 9 8 8 7 6 4 3 1 3 4 2 4 4 2 1 2 1 7 5 5 9 12 21
15 16 16 13 10 8 9 9 9 4 2 6 5 4 2 17 9 4 3 8 11 11 11 11 9 8 4 3 2 2 3 2 2 2 1 1 3 6 5 7 12 13 15 14 14
13 12 11 9 8 9 9 10 10 8 3 2 4 2 11 16 5 1 8 11 12 9 8 8 10 4 5 3 2 1 0 3 2 1 4 4 9 3 7 9 10 11 14 15 17
12 8 8 5 7 7 8 9 9 7 4 2 2 3 13 9 5 2 12 12 11 11 11 11 6 4 3 4 2 3 3 1 1 0 4 7 8 9 12 18 15 16 17 19 17
11 9 7 6 5 5 3 4 7 7 2 2 4 8 11 1 4 5 15 17 14 9 9 8 7 5 7 6 5 2 3 2 4 6 9 10 14 15 20 19 16 16 16 15 15
12 8 5 4 4 2 2 2 5 7 2 4 4 11 3 7 10 12 22 18 11 10 7 3 5 8 9 4 2 3 2 4 5 5 6 6 8 4 6 3 10 12 13 13 13
14 9 6 5 3 3 5 5 3 8 4 6 2 5 4 7 17 19 20 12 12 13 9 8 10 3 6 7 3 2 3 3 2 1 1 6 9 10 8 5 10 11 14 17 19
13 9 4 3 5 5 6 6 7 7 9 7 1 6 4 8 19 19 20 17 14 15 16 11 13 10 3 7 3 0 1 2 3 2 1 4 6 3 6 13 16 17 17 16 16
2 8 2 5 4 5 4 5 6 12 14 7 4 2 5 10 14 19 18 17 17 14 11 9 6 4 4 4 2 2 1 3 1 2 2 2 11 4 13 13 16 16 14 13 15
17 9 9 8 6 4 4 15 15 25 21 12 9 3 5 6 10 14 18 14 7 12 6 4 3 3 3 2 1 3 0 3 5 2 7 12 19 15 13 11 10 9 10 9 10
16 13 12 8 5 6 16 11 8 6 14 5 2 4 9 6 16 13 11 14 6 4 3 3 3 5 7 5 7 6 1 4 7 3 7 6 16 17 11 5 7 8 9 10 10
14 12 10 12 11 10 10 4 4 6 10 16 15 15 7 10 14 10 3 3 2 5 3 3 5 6 8 6 4 3 3 5 6 4 7 13 19 15 4 1 5 8 8 12 13
13 10 9 13 15 21 19 10 12 8 6 8 7 8 4 7 9 6 2 4 6 5 5 4 6 9 4 5 4 6 5 2 3 8 6 11 9 5 4 4 2 6 7 9 12
13 10 4 1 4 6 6 10 5 1 4 7 6 5 3 4 6 5 5 2 2 6 5 5 5 5 5 4 5 3 5 3 5 8 5 5 6 6 3 3 3 8 9 9 12
11 15 18 13 7 5 4 6 7 2 6 7 4 4 6 3 12 4 5 1 4 7 3 3 8 7 5 3 8 1 2 5 8 8 8 3 4 3 2 2 6 9 9 9 10
18 8 7 13 10 4 2 4 2 1 7 2 2 6 7 6 3 3 2 4 2 3 1 3 1 3 1 5 10 3 5 6 3 1 3 4 6 2 3 7 10 8 6 8 9
13 9 10 3 3 2 2 3 1 6 2 5 4 4 5 4 5 2 2 3 1 3 1 3 4 3 3 3 4 3 3 3 1 2 4 6 5 6 3 8 6 6 7 8 8
14 5 5 5 3 6 3 2 10 4 6 2 5 9 5 1 3 2 3 3 2 1 3 1 2 5 7 2 1 1 1 2 4 3 6 4 5 2 3 4 6 7 7 6 7
9 1 4 8 2 10 2 7 5 3 3 6 4 5 3 3 2 2 2 2 2 1 3 1 1 2 4 2 4 4 3 1 3 5 4 1 2 4 3 5 5 5 6 7 7
2 2 7 9 5 4 3 10 5 2 3 1 3 3 4 3 1 1 1 2 2 2 2 1 1 1 3 3 5 3 4 2 3 3 4 2 2 4 5 5 4 2 2 3 2
4 2 19 6 8 7 6 7 6 1 1 1 3 4 4 2 3 2 2 3 3 4 1 0 2 3 2 5 4 5 3 4 3 3 3 5 2 1 3 4 2 2 4 4 5
4 4 22 8 4 3 4 3 1 2 1 2 3 3 3 3 3 2 2 1 6 5 2 2 2 3 3 2 2 4 3 2 3 2 3 3 2 3 2 3 5 5 7 7 6
3 3 11 7 4 4 3 4 4 2 3 2 2 1 1 2 2 1 1 2 5 4 2 4 1 2 2 2 3 5 5 2 3 2 5 3 2 4 4 5 7 10 10 9 7
2 3 4 4 2 3 3 5 3 2 3 3 3 1 2 3 3 3 2 2 5 3 2 3 2 6 3 3 2 4 6 5 6 3 1 8 4 7 8 10 11 12 11 9 8
3 2 1 4 6 7 4 4 4 5 5 6 4 6 3 2 2 2 1 0 1 1 2 2 4 4 11 13 10 10 11 8 8 8 6 3 6 6 13 15 15 12 10 9 9
2 3 2 2 2 3 5 5 5 3 5 4 3 2 3 2 1 1 1 1 0 2 2 1 3 3 5 1 9 12 13 13 13 11 12 13 12 10 8 10 11 12 11 11 10
3 2 3 1 2 1 2 2 3 1 2 1 2 3 2 3 4 6 5 3 2 2 3 2 2 3 4 4 8 11 14 18 9 8 9 8 4 7 9 12 14 13 12 12 11

GFSSW_925_spd_105.txt.gz
Wind_Speed
12 10 11 11 11 9 6 6 6 2 2 4 1 7 3 14 9 5 5 3 4 9 9 7 7 7 6 4 1 1 4 5 3 4 6 3 1 2 2 7 5 6 8 11 15
13 12 12 11 8 10 5 5 4 5 0 2 2 2 7 10 5 6 2 5 10 10 8 10 10 10 4 4 1 5 3 4 4 5 5 2 3 5 4 6 10 11 12 11 11
7 8 8 5 5 5 5 6 6 7 3 2 2 1 14 13 1 4 4 9 11 9 7 6 9 6 5 6 3 3 2 4 3 4 4 3 6 5 6 9 8 9 12 14 16
8 7 4 3 2 2 4 6 7 6 6 2 1 1 13 7 5 4 11 13 9 8 10 10 9 6 6 7 4 4 1 2 2 2 4 6 9 7 12 16 15 14 15 15 15
7 4 2 2 2 2 3 2 7 7 7 2 2 4 7 1 3 6 12 13 10 9 10 8 8 4 6 6 5 3 4 2 1 3 6 8 11 12 19 16 13 11 12 14 13
5 4 3 3 1 1 3 5 6 7 8 6 2 11 3 5 3 7 13 12 10 8 8 7 4 2 6 4 2 2 3 1 1 3 5 8 11 4 3 3 6 10 12 12 13
5 3 3 3 3 4 7 5 4 6 7 6 2 6 2 3 3 15 15 10 9 8 7 5 8 2 7 5 3 2 3 3 1 1 2 6 12 10 9 4 12 13 13 14 16
8 2 2 3 4 5 6 6 5 4 9 6 3 3 5 6 8 16 12 13 9 7 11 7 9 7 2 7 3 2 2 3 6 1 3 3 8 6 2 8 13 13 12 12 13
12 11 5 5 5 5 3 5 6 6 7 2 3 5 6 8 7 16 14 15 16 12 10 7 4 4 5 4 2 4 3 5 4 3 1 5 9 1 8 8 11 10 9 8 9
15 12 12 9 6 5 5 1 10 7 6 11 8 2 7 4 2 14 17 16 8 12 7 2 1 4 4 6 3 6 3 3 5 4 7 11 18 16 11 10 9 7 8 9 9
14 14 11 5 5 9 13 11 11 5 13 8 5 9 10 9 8 13 11 13 9 4 3 2 3 5 6 1 4 4 1 3 5 2 8 8 14 15 12 7 6 6 6 8 11
10 12 14 14 4 12 4 3 5 6 10 17 15 16 11 8 9 7 4 3 5 6 6 2 4 5 7 5 4 3 1 3 4 1 5 12 19 18 8 3 3 6 7 9 11
12 6 10 10 11 10 14 9 8 5 6 6 7 6 4 6 8 5 1 3 8 7 4 3 8 8 5 2 3 4 3 3 2 10 14 11 11 4 5 3 3 5 6 8 9
10 12 3 10 9 8 6 5 1 3 3 8 5 5 3 4 5 4 3 1 2 7 8 5 6 5 3 2 3 1 2 1 5 8 4 8 5 7 2 3 3 4 6 9 10
16 12 12 5 9 4 8 4 2 2 5 6 4 2 4 1 11 3 3 3 4 7 3 2 7 5 3 3 4 4 2 5 6 6 7 4 3 2 3 3 1 10 7 8 8
12 10 11 9 8 5 0 3 2 3 7 3 1 2 7 4 3 3 2 3 2 5 4 6 1 2 3 1 4 4 5 5 2 1 3 3 4 5 3 5 10 7 4 5 6
8 3 5 2 2 2 4 3 1 6 1 4 3 6 8 5 4 2 3 4 1 3 2 1 2 2 3 2 2 2 3 2 3 3 2 0 4 9 1 3 3 4 5 4 5
5 1 2 1 2 5 2 3 8 4 7 2 6 8 5 1 3 3 3 5 2 1 3 2 2 6 8 3 3 3 2 2 3 3 5 3 6 1 4 2 2 3 6 2 3
6 3 4 4 2 6 4 6 4 4 5 8 6 7 3 3 1 2 3 3 3 1 2 3 1 3 6 2 4 4 2 3 3 5 3 6 7 3 4 4 5 4 3 2 4
3 3 8 4 6 5 4 7 8 6 6 1 3 3 6 5 4 3 2 2 2 1 2 2 2 5 5 4 6 2 2 1 2 3 4 4 5 4 5 5 2 2 2 1 1
1 2 8 2 4 6 5 7 9 5 2 3 4 5 5 4 2 3 3 3 1 3 2 3 3 4 4 7 4 3 2 4 2 3 3 5 3 1 4 2 3 3 3 4 3
4 4 12 1 4 2 6 4 3 4 2 3 3 6 5 2 3 2 4 4 3 1 2 3 3 3 3 3 2 6 8 5 3 2 5 4 3 3 2 2 3 4 5 6 7
3 3 9 3 5 7 6 6 6 4 6 4 5 6 3 2 2 4 3 3 2 1 4 2 1 2 2 3 3 6 7 7 5 3 8 4 2 4 4 5 5 6 8 9 10
2 2 4 3 1 4 6 6 4 2 4 3 3 1 0 3 2 3 3 2 3 1 2 2 3 5 5 5 3 6 7 9 7 4 6 10 11 7 7 8 10 11 11 12 10
5 3 3 1 5 7 4 1 5 3 3 2 3 5 3 2 2 3 1 3 3 3 3 3 4 5 11 14 13 14 14 11 13 14 6 5 10 10 8 12 14 14 13 12 11
2 1 0 2 1 1 1 2 3 2 1 3 4 2 3 2 2 2 2 2 1 4 2 1 3 8 5 4 6 13 16 18 18 18 16 19 21 15 10 11 13 15 14 14 13
4 1 3 2 2 4 2 2 1 2 1 1 0 2 3 1 3 6 6 5 2 2 2 2 3 4 5 2 11 13 18 20 14 13 16 14 11 2 8 12 14 14 14 14 12

GFSSW_925_spd_108.txt.gz
Wind_Speed
11 8 12 9 5 6 3 2 2 5 3 2 4 5 3 6 6 4 4 4 3 8 7 5 6 6 4 4 4 4 2 3 3 2 5 3 1 2 1 4 5 5 6 11 12
9 9 9 6 4 6 5 2 2 6 5 3 2 1 3 10 3 9 2 4 5 10 6 8 8 8 2 4 2 2 2 7 7 8 7 6 4 4 3 5 4 6 8 6 15
6 2 2 1 2 5 6 4 3 7 5 5 2 1 9 8 4 3 2 7 7 8 4 5 9 3 3 4 2 2 3 3 6 8 7 4 5 4 4 5 3 6 9 11 16
7 2 2 2 4 3 1 3 4 8 7 3 3 2 14 6 7 3 8 9 6 2 5 8 5 2 4 5 3 2 2 4 3 4 4 5 7 5 8 7 8 7 6 6 7
6 5 5 5 5 2 1 3 9 10 9 4 3 5 8 2 4 2 8 10 6 4 8 7 6 3 4 6 4 3 4 1 4 1 4 5 7 8 9 10 5 6 6 7 7
6 8 8 7 6 4 5 6 8 9 8 5 4 9 4 6 3 2 5 8 5 6 5 7 3 2 6 5 2 4 2 1 2 2 4 5 5 4 2 6 3 5 6 6 6
12 10 7 6 6 5 5 7 6 8 6 5 5 7 4 3 4 6 11 5 6 2 2 5 2 0 7 4 3 4 3 6 4 2 2 5 7 9 8 2 6 7 6 6 6
14 14 11 9 7 6 3 5 7 7 7 5 6 3 5 3 9 6 12 10 7 9 11 6 7 6 4 5 4 4 1 3 4 3 4 3 6 8 7 5 6 7 6 8 6
18 16 12 10 8 7 4 4 5 6 6 5 3 3 6 7 9 3 11 10 12 11 9 6 6 3 3 3 2 3 2 3 5 4 1 4 6 6 3 5 5 5 7 6 6
18 16 13 10 7 6 3 10 10 9 7 11 8 3 4 2 8 7 10 13 5 7 4 4 2 2 2 2 2 4 2 1 3 5 5 7 13 14 12 6 5 3 5 3 7
14 14 11 7 8 15 21 23 6 4 14 7 4 10 7 4 2 12 10 6 6 3 3 2 1 2 5 6 4 4 3 3 5 4 2 7 9 9 9 7 5 3 5 7 7
11 14 16 9 11 7 9 4 3 6 8 18 17 12 8 4 8 6 7 2 5 5 4 1 4 6 6 2 2 2 1 1 3 2 3 9 14 16 9 3 6 3 4 5 4
12 3 10 13 10 14 17 9 4 5 6 6 6 4 4 6 5 1 3 4 4 5 5 3 6 5 5 4 1 4 3 5 1 6 10 9 7 3 3 5 5 5 7 7 6
14 10 7 11 10 6 4 3 4 5 3 7 5 5 3 3 5 2 8 4 2 6 8 5 5 4 2 2 2 2 5 2 4 5 3 6 4 4 9 7 7 2 7 7 7
16 14 8 8 13 2 3 3 5 4 4 5 3 2 4 2 9 2 3 5 4 5 1 2 5 3 1 2 2 4 4 4 5 5 5 1 1 6 6 6 6 7 6 5 6
11 11 10 11 9 7 4 3 4 2 6 3 2 1 4 5 3 4 1 3 4 4 9 5 3 1 4 2 3 5 4 4 1 1 3 7 5 5 4 2 3 5 6 5 5
8 6 9 5 7 5 1 4 2 6 1 4 3 4 3 5 4 3 5 4 1 4 2 2 4 4 2 3 2 2 2 1 2 1 4 3 3 7 5 4 2 3 4 5 3
8 5 3 2 6 4 1 2 7 6 5 3 7 7 5 3 2 2 5 4 1 2 3 2 1 5 8 2 3 2 0 2 2 3 2 5 5 5 5 5 4 2 4 4 2
11 7 3 3 4 6 2 6 4 1 4 8 10 5 3 3 2 2 3 3 3 4 3 3 1 3 5 3 5 3 2 3 1 4 1 4 5 1 4 4 3 2 3 4 5
3 6 3 2 7 5 2 8 5 6 5 4 2 3 4 4 3 4 3 2 3 1 4 2 3 6 6 0 4 3 3 1 1 2 3 4 4 4 5 4 1 3 5 4 6
4 1 4 3 5 1 3 5 7 4 4 5 4 6 6 2 5 2 4 2 1 3 4 3 2 4 4 7 7 4 2 3 2 2 2 4 4 3 4 3 4 4 4 5 4
4 3 4 6 2 3 3 4 3 2 3 1 4 8 6 3 5 3 5 5 5 2 2 4 3 1 6 5 4 1 4 4 2 0 4 2 5 5 5 6 5 5 5 6 6
2 2 1 6 3 1 5 3 5 3 4 3 3 4 3 2 2 4 4 3 3 1 3 3 2 1 1 2 2 4 5 6 2 4 6 1 5 5 5 6 7 7 7 7 8
2 3 3 3 1 2 2 4 3 2 2 1 3 3 4 4 2 4 5 3 4 0 1 1 2 4 4 1 2 4 6 8 7 3 4 8 8 8 8 8 8 8 9 9 10
4 1 1 1 4 3 2 2 2 2 1 3 2 3 3 3 3 4 2 5 4 5 2 2 3 3 7 11 10 10 10 10 13 13 5 4 7 7 7 12 13 10 8 10 12
3 2 2 3 2 6 2 3 4 1 4 2 3 2 6 3 5 3 2 4 3 5 4 4 3 3 5 10 7 10 11 15 17 16 18 17 22 15 15 9 10 13 12 13 11
3 2 1 1 1 3 3 4 5 4 3 3 6 5 2 5 6 7 7 7 4 2 6 3 1 4 5 6 8 9 15 18 11 8 17 16 15 5 2 6 9 10 13 12 9

GFSSW_925_spd_111.txt.gz
Wind_Speed
9 4 6 5 3 7 6 6 10 8 5 6 6 6 7 7 7 1 1 1 2 9 10 5 2 2 9 3 4 2 4 2 5 3 4 2 3 4 1 2 3 3 3 4 10
5 3 4 3 6 9 10 7 10 9 6 5 5 3 6 11 5 1 1 2 2 8 7 7 3 4 3 2 4 4 4 3 3 2 4 4 5 3 3 6 3 4 9 13 14
3 3 3 4 5 7 9 7 8 10 8 5 3 3 10 11 2 4 2 2 5 7 4 4 10 2 5 2 2 1 3 5 3 5 6 4 5 6 3 3 2 3 7 10 14
3 6 7 6 6 6 6 6 7 11 8 5 1 2 15 7 6 2 2 3 9 1 8 6 4 4 4 4 2 5 6 5 3 4 4 2 5 6 1 6 3 2 2 4 6
9 10 8 8 7 5 3 3 7 11 8 3 3 7 9 4 2 6 1 4 7 5 5 2 2 4 7 5 4 4 3 5 6 4 1 2 4 4 8 9 3 2 2 5 6
13 13 12 9 9 10 9 7 7 8 7 3 3 8 1 5 2 7 2 5 3 3 1 5 2 2 6 5 3 4 6 6 4 2 1 2 3 5 5 6 4 4 4 2 3
15 12 12 10 10 11 14 13 7 8 7 4 4 8 1 5 4 4 5 3 1 1 5 10 6 6 3 5 2 4 4 2 1 3 0 1 1 6 7 5 3 3 5 6 6
16 13 12 12 11 10 12 12 9 7 7 7 5 3 4 3 8 13 11 13 14 15 13 11 13 6 4 2 4 3 4 2 2 3 1 2 5 4 7 6 5 1 5 7 9
15 14 12 11 10 10 12 12 10 8 8 7 7 5 4 7 5 10 5 10 16 15 12 11 8 4 3 4 5 3 2 3 1 4 1 2 5 5 2 7 7 4 6 6 6
15 13 12 11 11 6 13 18 18 12 11 14 15 4 5 2 5 3 9 9 7 5 5 5 4 3 3 4 4 4 2 1 2 3 2 4 11 10 12 8 7 5 5 6 6
16 16 11 13 20 21 21 12 5 6 13 6 8 5 6 8 12 3 3 4 4 1 3 2 6 3 5 3 3 2 4 3 1 3 2 4 9 11 9 7 5 5 6 5 5
9 14 11 13 10 13 7 5 3 5 6 19 15 9 7 2 6 4 6 2 1 4 3 5 4 3 6 6 5 5 2 2 2 2 2 5 11 14 9 3 7 6 5 6 4
6 8 12 11 9 17 16 8 6 8 5 7 6 5 4 7 5 4 7 2 3 3 4 6 3 3 5 4 3 2 3 3 1 5 3 7 6 2 2 4 5 5 7 6 6
11 13 14 11 9 5 5 4 6 1 4 8 7 6 6 8 5 4 6 2 4 6 7 6 1 4 5 3 2 3 4 4 3 4 1 5 4 5 4 5 5 6 6 5 4
12 13 11 5 12 3 6 4 6 1 6 7 4 5 6 4 3 4 6 4 4 3 5 3 3 2 3 1 2 2 3 3 3 4 5 3 3 7 3 5 4 4 5 4 2
12 11 12 7 6 7 5 5 3 5 7 3 1 4 4 1 1 2 2 2 1 8 8 4 1 2 2 3 4 2 3 2 1 2 2 5 5 5 4 5 4 4 2 1 2
7 6 5 4 4 6 1 4 4 6 1 4 4 3 6 7 7 4 2 2 2 5 4 2 2 2 1 4 3 2 4 2 3 1 5 1 3 8 4 1 3 2 1 3 0
7 5 3 3 9 5 2 4 9 5 5 1 4 7 4 4 2 1 4 2 2 4 3 4 5 4 3 2 5 2 1 3 4 1 4 2 5 5 4 4 5 4 1 2 2
12 8 2 1 5 5 3 6 5 4 6 7 5 3 2 2 3 2 4 2 2 3 5 4 1 1 3 3 4 2 2 2 2 3 3 3 6 1 3 3 4 4 1 3 3
3 1 2 2 5 3 4 5 4 2 2 4 2 1 3 4 2 3 2 1 2 3 3 4 4 5 2 3 3 2 4 2 1 2 4 5 5 5 4 7 6 6 5 4 4
1 3 3 3 3 4 4 3 3 4 3 1 4 4 3 4 6 3 2 0 3 2 2 1 3 1 5 6 8 5 3 4 2 2 1 3 5 5 6 7 7 7 6 5 5
1 3 2 6 4 2 2 0 1 2 2 2 4 6 2 2 4 4 3 2 3 6 2 2 2 3 8 5 6 5 6 5 4 4 3 3 6 5 6 6 6 6 6 6 7
3 1 2 3 3 2 0 2 2 3 3 4 3 2 1 2 3 3 3 2 3 1 3 2 2 2 6 6 3 4 5 5 3 3 6 4 5 2 4 5 6 7 7 7 8
3 2 4 3 1 1 2 2 2 1 2 3 1 3 2 0 0 4 3 3 4 1 2 3 2 5 7 4 3 4 6 7 6 3 3 8 7 5 7 8 7 8 8 8 9
3 2 4 1 3 4 3 3 2 2 3 1 1 4 2 1 1 2 3 2 2 4 1 3 3 3 6 8 5 7 8 8 11 12 7 3 8 5 7 10 13 13 8 10 12
3 3 3 2 2 3 3 3 4 3 4 3 3 4 3 3 3 1 2 3 4 2 3 1 3 4 5 7 5 7 11 15 15 15 16 16 25 12 18 8 8 12 13 14 15
3 2 4 3 2 3 1 2 2 2 2 2 1 3 3 3 2 3 3 2 4 5 5 5 2 3 5 6 8 7 9 18 9 8 21 16 24 6 9 7 10 13 15 17 16

GFSSW_925_spd_114.txt.gz
Wind_Speed
10 7 5 6 9 9 6 6 11 7 5 6 7 11 13 13 8 2 1 0 1 5 4 6 6 6 8 3 3 3 4 3 2 4 5 1 2 3 1 2 3 3 4 4 4
4 1 3 7 11 7 6 5 10 8 6 6 7 10 10 16 9 1 1 1 3 4 1 3 5 7 4 3 3 4 4 3 2 1 4 3 4 2 3 4 3 3 4 5 6
10 8 6 5 6 8 10 9 12 8 5 4 3 7 10 16 7 0 5 1 3 7 3 6 3 4 4 4 3 2 4 5 2 3 3 2 2 4 3 1 2 1 5 5 6
11 11 10 9 8 9 10 8 10 10 6 3 0 5 15 6 8 4 6 1 3 4 2 1 2 4 5 6 0 6 5 5 4 2 2 2 1 2 2 4 3 4 2 3 7
12 11 12 11 10 7 5 5 8 9 5 2 4 9 10 4 3 2 4 3 5 2 3 2 3 3 6 7 5 5 4 5 5 4 2 2 1 3 5 8 6 6 2 5 6
14 13 13 12 13 11 9 10 9 8 4 1 3 8 1 5 4 3 1 4 2 3 5 6 1 1 6 4 4 4 6 6 3 3 2 2 1 4 4 3 5 1 3 6 9
12 12 12 12 13 15 14 15 12 8 6 3 3 3 6 5 5 5 10 7 2 0 3 4 2 5 3 5 3 6 5 3 1 1 1 3 3 6 5 3 4 3 7 8 9
12 11 13 12 11 13 14 12 11 10 7 7 5 3 4 7 9 14 8 10 12 14 11 8 15 8 4 3 5 4 5 3 1 2 1 2 4 4 6 5 4 4 7 7 6
11 11 12 11 14 14 12 14 12 11 7 7 5 4 3 7 7 10 3 6 11 12 11 10 8 4 4 5 5 6 2 2 1 3 1 1 3 4 2 3 6 6 6 7 6
10 9 11 9 12 17 20 21 15 12 10 10 9 6 5 3 5 7 9 10 4 4 6 8 5 4 3 5 4 4 4 2 1 0 1 3 8 8 8 7 8 7 6 6 5
11 10 14 17 18 19 13 4 5 6 15 10 5 7 6 7 8 7 8 8 2 5 3 4 6 3 4 3 5 6 5 4 2 0 2 5 8 9 10 8 4 7 7 5 6
8 10 13 15 15 7 6 5 2 6 7 18 15 12 8 4 4 4 5 3 4 4 3 6 4 2 4 5 5 5 6 2 1 1 2 4 14 10 8 6 7 8 6 5 3
5 10 10 8 7 8 16 10 10 6 5 6 6 5 4 8 2 6 6 2 5 5 4 5 4 3 4 4 6 5 6 2 3 4 1 5 6 2 2 3 6 4 5 4 3
8 12 10 6 7 6 4 9 5 2 5 10 7 5 3 2 7 8 5 3 4 5 5 6 3 4 5 4 3 3 1 3 3 3 2 4 4 5 2 5 5 5 4 3 1
9 5 4 1 11 2 6 4 4 1 5 7 4 6 6 3 6 7 5 3 4 2 4 5 3 3 5 1 2 3 1 2 1 2 3 1 3 6 2 5 7 7 5 3 1
10 9 6 5 4 6 4 4 1 5 6 3 3 3 3 5 2 2 4 3 3 8 7 3 1 2 2 3 3 2 3 4 3 2 3 3 3 5 4 5 3 4 4 4 3
4 5 5 3 3 5 2 3 4 6 2 4 4 2 5 3 3 3 3 3 3 5 4 2 3 2 2 4 4 3 5 3 5 4 4 2 2 9 6 4 4 7 7 6 5
4 3 2 1 6 3 4 3 8 5 4 2 3 4 4 7 3 1 2 2 2 5 3 4 5 2 3 3 5 2 4 4 5 0 4 3 5 6 2 2 3 4 4 5 5
6 2 2 2 6 6 3 6 5 4 5 5 3 0 2 1 3 1 2 2 1 3 5 4 2 2 3 2 3 3 1 1 4 2 2 3 7 6 2 6 5 7 6 7 7
1 2 2 2 2 2 5 6 4 2 3 3 1 2 3 4 3 2 2 1 3 2 3 6 4 4 1 3 1 2 5 3 2 2 4 4 5 5 4 7 7 7 8 6 5
3 3 3 2 1 4 3 3 4 1 1 4 1 4 3 3 3 2 1 1 4 1 2 3 4 2 3 5 7 3 1 3 2 4 3 3 6 6 7 5 6 7 7 7 7
1 3 4 0 4 2 2 2 2 3 1 2 0 3 2 2 2 2 3 4 3 3 1 2 4 4 8 4 6 4 7 5 4 4 3 2 7 3 6 5 6 7 7 6 7
2 2 1 3 3 3 2 3 2 4 3 4 4 4 3 2 3 2 2 2 3 3 2 1 1 2 6 5 2 4 5 4 3 2 5 4 6 1 4 4 6 8 8 8 8
3 2 3 3 1 4 2 2 2 1 3 3 3 4 4 4 3 2 2 1 2 2 5 3 0 4 6 4 4 5 6 7 6 3 3 9 8 7 7 9 8 9 9 9 9
3 2 2 1 2 3 2 1 2 3 3 2 3 3 2 1 2 2 2 1 2 2 2 3 3 2 6 9 6 8 9 9 12 16 9 5 12 15 10 12 13 11 8 8 11
2 3 2 1 1 2 2 3 3 1 0 1 3 3 3 2 3 5 3 3 5 1 4 2 3 2 5 4 5 8 14 16 17 16 18 17 24 18 17 6 7 10 9 13 14
4 3 3 2 1 3 3 4 4 4 3 3 3 1 2 2 3 2 2 1 1 5 5 3 1 2 5 3 8 9 15 19 7 6 20 16 26 2 6 5 8 10 10 14 15

GFSSW_925_spd_117.txt.gz
Wind_Speed
6 0 5 7 7 12 6 1 10 9 7 7 9 17 18 12 9 5 2 3 1 4 1 1 4 7 5 3 3 2 5 3 5 6 5 0 3 3 1 3 4 3 4 5 3
10 6 1 1 4 6 8 11 4 7 5 4 5 10 15 12 8 7 7 5 1 2 2 3 3 4 4 3 3 4 4 5 1 2 4 3 4 1 2 2 3 4 4 4 4
14 13 6 4 2 6 14 6 9 7 6 3 3 6 13 17 4 2 10 7 2 2 3 2 1 2 4 3 2 2 4 5 1 3 3 3 2 3 5 1 1 3 1 1 3
15 15 13 9 3 4 6 7 7 3 4 2 2 7 14 9 7 2 6 9 3 2 1 4 3 4 3 5 2 6 4 5 2 3 4 3 1 2 1 0 5 3 1 3 5
15 14 13 11 8 6 5 5 8 6 2 2 5 7 8 3 3 1 7 3 1 1 3 4 4 4 5 6 4 5 4 6 5 5 4 4 3 2 4 5 2 3 3 5 8
13 12 13 13 11 8 7 7 7 6 3 4 3 6 3 4 6 1 10 4 4 3 3 5 3 4 6 4 4 3 6 7 4 2 3 2 1 2 3 1 4 3 6 6 8
12 12 11 12 14 14 12 10 10 8 5 5 5 6 6 4 6 9 16 9 4 3 4 4 4 5 5 5 2 4 6 4 4 1 2 2 2 5 4 2 5 6 6 6 7
11 11 10 10 10 12 12 12 12 8 8 8 7 10 4 9 7 11 17 17 12 10 11 11 13 8 4 4 6 5 5 4 3 1 2 2 5 2 5 5 4 6 6 5 3
10 9 7 8 9 9 12 13 13 14 12 8 6 5 5 6 6 2 10 11 8 9 11 9 7 5 5 6 5 6 3 3 1 1 1 2 4 2 3 6 5 3 7 6 4
8 6 5 7 11 14 16 21 19 12 12 8 10 5 6 3 4 2 3 14 4 3 6 8 6 4 4 4 5 5 5 2 4 2 1 2 8 8 6 7 9 5 7 6 5
6 7 10 9 9 8 3 3 6 7 16 8 6 6 5 6 8 11 2 13 3 7 4 4 7 2 2 0 4 7 5 5 1 0 1 5 7 10 9 6 7 6 8 7 6
5 7 9 7 6 5 5 4 3 7 6 18 13 10 6 7 7 9 4 6 5 5 2 7 4 2 2 4 6 6 5 2 2 0 2 5 12 12 6 5 7 9 8 8 5
4 5 5 5 2 12 14 8 11 4 5 7 5 4 4 9 4 4 7 2 6 5 5 6 2 2 2 4 7 5 5 2 3 3 1 7 7 2 0 1 3 4 4 5 7
5 4 2 3 5 5 4 8 2 2 4 8 6 5 5 7 5 2 2 1 5 6 5 7 4 4 4 5 3 3 1 3 3 3 2 4 4 4 2 3 3 5 6 6 5
4 2 2 2 11 2 5 2 6 1 5 7 4 4 4 3 2 4 3 6 5 3 4 4 2 5 6 2 2 4 1 2 2 3 3 3 3 7 1 5 8 8 7 7 6
6 4 6 3 2 5 3 5 0 5 5 3 4 4 3 4 1 3 2 5 3 7 7 4 1 3 1 2 3 4 4 6 4 3 3 2 4 5 4 5 2 4 8 7 6
3 3 4 3 1 3 4 4 5 6 2 4 3 2 3 1 3 4 4 4 3 5 4 5 3 3 2 4 4 5 5 3 4 3 4 2 1 9 6 6 5 7 8 7 6
3 1 2 2 3 0 5 4 8 4 3 1 2 1 4 1 4 3 3 2 3 5 3 4 5 2 1 2 4 2 4 4 5 1 4 1 5 6 4 1 2 3 5 5 6
3 1 1 2 4 4 3 6 5 4 4 5 1 3 3 1 2 2 2 2 1 3 4 4 4 2 3 2 4 1 1 3 5 3 1 3 7 9 3 5 4 5 4 6 6
4 2 3 2 1 2 4 5 3 4 5 3 1 2 3 1 2 1 0 0 2 2 3 5 4 2 2 3 1 1 5 3 2 2 4 4 6 6 3 4 5 7 8 8 7
4 2 4 2 2 4 3 3 3 1 2 4 2 3 4 2 2 1 0 1 1 1 2 4 3 4 3 4 6 3 1 2 3 3 3 3 6 6 7 6 6 8 8 8 8
1 2 6 4 4 2 2 1 1 2 2 2 1 3 2 2 2 2 2 1 2 2 2 1 4 3 7 2 5 3 5 5 3 3 2 3 7 2 6 6 6 7 7 6 7
1 1 2 3 3 2 1 2 1 2 3 2 2 2 1 2 3 2 2 1 2 3 4 2 1 2 6 4 1 4 5 4 4 2 5 4 6 1 4 6 6 7 7 7 7
2 2 3 3 1 5 3 2 2 0 1 2 2 3 3 3 4 3 2 0 1 2 4 3 2 5 6 4 4 4 5 6 6 3 3 8 8 9 7 8 8 8 9 8 8
3 2 2 2 3 3 2 1 2 2 0 2 2 2 2 2 2 3 2 1 2 3 2 3 3 3 5 8 6 5 5 7 11 13 8 1 9 11 8 10 12 11 7 8 9
3 3 2 1 3 2 4 0 3 1 1 2 3 1 1 3 5 7 5 3 4 1 3 2 2 2 5 4 6 8 11 12 14 15 17 18 28 20 21 8 7 9 7 9 11
3 2 4 3 1 2 2 1 1 1 1 1 1 1 2 2 1 1 1 3 1 6 5 4 2 2 5 3 6 7 8 15 7 7 14 14 26 12 12 7 6 8 8 11 13